<?xml version="1.0" encoding="UTF-8" standalone="no" ?>
<gpx xmlns="http://www.topografix.com/GPX/1/1" xmlns:xsi="http://www.w3.org/2001/XMLSchema-instance" xsi:schemaLocation="http://www.topografix.com/GPX/1/1 http://www.topografix.com/GPX/1/1/gpx.xsd" version="1.1" creator="VisuGPX - https://www.visugpx.com">
  <metadata>
    <name>Croda Fiscalina Est (Östliche Oberbachernspitze) 2677m</name>
    <desc><![CDATA[Sesto, Moso, Piano Fiscalino - Croda Fiscalina Est (Östliche Oberbachernspitze) 2677m]]></desc>
  </metadata>
  <trk>
    <name><![CDATA[Croda_Fiscalina_Est_28 FEB 2019]]></name>
    <trkseg>
      <trkpt lat="46.667" lon="12.35378">
        <ele>1467.59</ele>
        <time>2019-02-28T08:04:39Z</time>
      </trkpt>
      <trkpt lat="46.66698" lon="12.35377">
        <ele>1466.15</ele>
        <time>2019-02-28T08:04:57Z</time>
      </trkpt>
      <trkpt lat="46.66697" lon="12.35377">
        <ele>1459.9</ele>
        <time>2019-02-28T08:05:10Z</time>
      </trkpt>
      <trkpt lat="46.66697" lon="12.35377">
        <ele>1467.11</ele>
        <time>2019-02-28T08:05:11Z</time>
      </trkpt>
      <trkpt lat="46.66695" lon="12.35378">
        <ele>1466.15</ele>
        <time>2019-02-28T08:05:40Z</time>
      </trkpt>
      <trkpt lat="46.6669" lon="12.35378">
        <ele>1469.99</ele>
        <time>2019-02-28T08:05:55Z</time>
      </trkpt>
      <trkpt lat="46.66693" lon="12.35379">
        <ele>1466.63</ele>
        <time>2019-02-28T08:05:56Z</time>
      </trkpt>
      <trkpt lat="46.66702" lon="12.35383">
        <ele>1466.15</ele>
        <time>2019-02-28T08:06:14Z</time>
      </trkpt>
      <trkpt lat="46.66702" lon="12.35384">
        <ele>1466.63</ele>
        <time>2019-02-28T08:06:27Z</time>
      </trkpt>
      <trkpt lat="46.66702" lon="12.35383">
        <ele>1467.11</ele>
        <time>2019-02-28T08:06:55Z</time>
      </trkpt>
      <trkpt lat="46.66697" lon="12.3538">
        <ele>1466.15</ele>
        <time>2019-02-28T08:07:29Z</time>
      </trkpt>
      <trkpt lat="46.66698" lon="12.35383">
        <ele>1465.19</ele>
        <time>2019-02-28T08:08:08Z</time>
      </trkpt>
      <trkpt lat="46.66699" lon="12.35383">
        <ele>1465.67</ele>
        <time>2019-02-28T08:08:48Z</time>
      </trkpt>
      <trkpt lat="46.66701" lon="12.35382">
        <ele>1467.11</ele>
        <time>2019-02-28T08:09:25Z</time>
      </trkpt>
      <trkpt lat="46.66697" lon="12.35379">
        <ele>1467.11</ele>
        <time>2019-02-28T08:09:44Z</time>
      </trkpt>
      <trkpt lat="46.66695" lon="12.35381">
        <ele>1466.63</ele>
        <time>2019-02-28T08:10:24Z</time>
      </trkpt>
      <trkpt lat="46.66695" lon="12.35378">
        <ele>1466.63</ele>
        <time>2019-02-28T08:11:02Z</time>
      </trkpt>
      <trkpt lat="46.66695" lon="12.35379">
        <ele>1466.63</ele>
        <time>2019-02-28T08:11:19Z</time>
      </trkpt>
      <trkpt lat="46.66697" lon="12.35379">
        <ele>1466.63</ele>
        <time>2019-02-28T08:11:45Z</time>
      </trkpt>
      <trkpt lat="46.66695" lon="12.35378">
        <ele>1466.63</ele>
        <time>2019-02-28T08:12:13Z</time>
      </trkpt>
      <trkpt lat="46.66695" lon="12.35378">
        <ele>1467.59</ele>
        <time>2019-02-28T08:12:23Z</time>
      </trkpt>
      <trkpt lat="46.66697" lon="12.35378">
        <ele>1467.59</ele>
        <time>2019-02-28T08:12:36Z</time>
      </trkpt>
      <trkpt lat="46.66696" lon="12.3538">
        <ele>1468.07</ele>
        <time>2019-02-28T08:12:49Z</time>
      </trkpt>
      <trkpt lat="46.66699" lon="12.35382">
        <ele>1467.11</ele>
        <time>2019-02-28T08:13:13Z</time>
      </trkpt>
      <trkpt lat="46.66694" lon="12.3538">
        <ele>1466.63</ele>
        <time>2019-02-28T08:13:38Z</time>
      </trkpt>
      <trkpt lat="46.66692" lon="12.35379">
        <ele>1467.11</ele>
        <time>2019-02-28T08:13:54Z</time>
      </trkpt>
      <trkpt lat="46.6669" lon="12.35378">
        <ele>1467.11</ele>
        <time>2019-02-28T08:14:08Z</time>
      </trkpt>
      <trkpt lat="46.66687" lon="12.35378">
        <ele>1467.59</ele>
        <time>2019-02-28T08:14:16Z</time>
      </trkpt>
      <trkpt lat="46.66676" lon="12.35382">
        <ele>1468.55</ele>
        <time>2019-02-28T08:14:32Z</time>
      </trkpt>
      <trkpt lat="46.66669" lon="12.35381">
        <ele>1469.51</ele>
        <time>2019-02-28T08:14:46Z</time>
      </trkpt>
      <trkpt lat="46.66666" lon="12.35378">
        <ele>1469.99</ele>
        <time>2019-02-28T08:14:49Z</time>
      </trkpt>
      <trkpt lat="46.66657" lon="12.35372">
        <ele>1470.47</ele>
        <time>2019-02-28T08:15:06Z</time>
      </trkpt>
      <trkpt lat="46.66655" lon="12.35377">
        <ele>1470.47</ele>
        <time>2019-02-28T08:15:28Z</time>
      </trkpt>
      <trkpt lat="46.66657" lon="12.35377">
        <ele>1469.51</ele>
        <time>2019-02-28T08:15:50Z</time>
      </trkpt>
      <trkpt lat="46.6666" lon="12.35377">
        <ele>1469.51</ele>
        <time>2019-02-28T08:16:07Z</time>
      </trkpt>
      <trkpt lat="46.6666" lon="12.35376">
        <ele>1469.51</ele>
        <time>2019-02-28T08:16:22Z</time>
      </trkpt>
      <trkpt lat="46.66661" lon="12.35385">
        <ele>1469.03</ele>
        <time>2019-02-28T08:16:35Z</time>
      </trkpt>
      <trkpt lat="46.66657" lon="12.35388">
        <ele>1469.03</ele>
        <time>2019-02-28T08:16:44Z</time>
      </trkpt>
      <trkpt lat="46.66641" lon="12.35381">
        <ele>1468.55</ele>
        <time>2019-02-28T08:16:59Z</time>
      </trkpt>
      <trkpt lat="46.66632" lon="12.35376">
        <ele>1468.07</ele>
        <time>2019-02-28T08:17:15Z</time>
      </trkpt>
      <trkpt lat="46.66625" lon="12.35378">
        <ele>1467.11</ele>
        <time>2019-02-28T08:17:26Z</time>
      </trkpt>
      <trkpt lat="46.66624" lon="12.35377">
        <ele>1467.11</ele>
        <time>2019-02-28T08:17:28Z</time>
      </trkpt>
      <trkpt lat="46.66607" lon="12.35384">
        <ele>1467.11</ele>
        <time>2019-02-28T08:17:44Z</time>
      </trkpt>
      <trkpt lat="46.66595" lon="12.35391">
        <ele>1467.59</ele>
        <time>2019-02-28T08:17:57Z</time>
      </trkpt>
      <trkpt lat="46.66586" lon="12.35386">
        <ele>1468.07</ele>
        <time>2019-02-28T08:18:08Z</time>
      </trkpt>
      <trkpt lat="46.66578" lon="12.35377">
        <ele>1469.03</ele>
        <time>2019-02-28T08:18:21Z</time>
      </trkpt>
      <trkpt lat="46.66569" lon="12.35374">
        <ele>1469.03</ele>
        <time>2019-02-28T08:18:33Z</time>
      </trkpt>
      <trkpt lat="46.66569" lon="12.35377">
        <ele>1469.51</ele>
        <time>2019-02-28T08:18:47Z</time>
      </trkpt>
      <trkpt lat="46.66565" lon="12.3537">
        <ele>1469.51</ele>
        <time>2019-02-28T08:19:12Z</time>
      </trkpt>
      <trkpt lat="46.66559" lon="12.35365">
        <ele>1469.03</ele>
        <time>2019-02-28T08:19:29Z</time>
      </trkpt>
      <trkpt lat="46.66557" lon="12.3538">
        <ele>1469.03</ele>
        <time>2019-02-28T08:19:50Z</time>
      </trkpt>
      <trkpt lat="46.66561" lon="12.35372">
        <ele>1469.03</ele>
        <time>2019-02-28T08:20:05Z</time>
      </trkpt>
      <trkpt lat="46.66558" lon="12.35368">
        <ele>1468.55</ele>
        <time>2019-02-28T08:20:08Z</time>
      </trkpt>
      <trkpt lat="46.66551" lon="12.35347">
        <ele>1469.03</ele>
        <time>2019-02-28T08:20:25Z</time>
      </trkpt>
      <trkpt lat="46.66546" lon="12.3535">
        <ele>1469.03</ele>
        <time>2019-02-28T08:20:39Z</time>
      </trkpt>
      <trkpt lat="46.66543" lon="12.35351">
        <ele>1469.03</ele>
        <time>2019-02-28T08:20:55Z</time>
      </trkpt>
      <trkpt lat="46.66542" lon="12.3535">
        <ele>1468.55</ele>
        <time>2019-02-28T08:21:06Z</time>
      </trkpt>
      <trkpt lat="46.66545" lon="12.35349">
        <ele>1468.55</ele>
        <time>2019-02-28T08:21:21Z</time>
      </trkpt>
      <trkpt lat="46.66544" lon="12.35349">
        <ele>1469.03</ele>
        <time>2019-02-28T08:21:38Z</time>
      </trkpt>
      <trkpt lat="46.66548" lon="12.35351">
        <ele>1469.03</ele>
        <time>2019-02-28T08:21:52Z</time>
      </trkpt>
      <trkpt lat="46.66546" lon="12.35352">
        <ele>1469.51</ele>
        <time>2019-02-28T08:22:09Z</time>
      </trkpt>
      <trkpt lat="46.66546" lon="12.35351">
        <ele>1469.03</ele>
        <time>2019-02-28T08:22:11Z</time>
      </trkpt>
      <trkpt lat="46.66545" lon="12.35351">
        <ele>1469.03</ele>
        <time>2019-02-28T08:22:32Z</time>
      </trkpt>
      <trkpt lat="46.66542" lon="12.35349">
        <ele>1468.55</ele>
        <time>2019-02-28T08:22:50Z</time>
      </trkpt>
      <trkpt lat="46.66542" lon="12.35349">
        <ele>1468.55</ele>
        <time>2019-02-28T08:23:08Z</time>
      </trkpt>
      <trkpt lat="46.66541" lon="12.35348">
        <ele>1468.55</ele>
        <time>2019-02-28T08:23:24Z</time>
      </trkpt>
      <trkpt lat="46.66541" lon="12.35349">
        <ele>1469.03</ele>
        <time>2019-02-28T08:23:47Z</time>
      </trkpt>
      <trkpt lat="46.66538" lon="12.35348">
        <ele>1469.03</ele>
        <time>2019-02-28T08:24:01Z</time>
      </trkpt>
      <trkpt lat="46.66535" lon="12.35347">
        <ele>1469.51</ele>
        <time>2019-02-28T08:24:17Z</time>
      </trkpt>
      <trkpt lat="46.66537" lon="12.35349">
        <ele>1469.51</ele>
        <time>2019-02-28T08:24:31Z</time>
      </trkpt>
      <trkpt lat="46.66532" lon="12.35342">
        <ele>1469.51</ele>
        <time>2019-02-28T08:24:45Z</time>
      </trkpt>
      <trkpt lat="46.66525" lon="12.35338">
        <ele>1469.99</ele>
        <time>2019-02-28T08:24:56Z</time>
      </trkpt>
      <trkpt lat="46.66523" lon="12.35331">
        <ele>1469.99</ele>
        <time>2019-02-28T08:25:01Z</time>
      </trkpt>
      <trkpt lat="46.66519" lon="12.35327">
        <ele>1469.99</ele>
        <time>2019-02-28T08:25:04Z</time>
      </trkpt>
      <trkpt lat="46.66502" lon="12.35319">
        <ele>1470.47</ele>
        <time>2019-02-28T08:25:20Z</time>
      </trkpt>
      <trkpt lat="46.66499" lon="12.35316">
        <ele>1470.47</ele>
        <time>2019-02-28T08:25:23Z</time>
      </trkpt>
      <trkpt lat="46.66478" lon="12.35307">
        <ele>1470.47</ele>
        <time>2019-02-28T08:25:42Z</time>
      </trkpt>
      <trkpt lat="46.6647" lon="12.35298">
        <ele>1470.47</ele>
        <time>2019-02-28T08:25:50Z</time>
      </trkpt>
      <trkpt lat="46.66453" lon="12.35291">
        <ele>1470.47</ele>
        <time>2019-02-28T08:26:06Z</time>
      </trkpt>
      <trkpt lat="46.66442" lon="12.35286">
        <ele>1470.47</ele>
        <time>2019-02-28T08:26:19Z</time>
      </trkpt>
      <trkpt lat="46.66427" lon="12.35277">
        <ele>1471.44</ele>
        <time>2019-02-28T08:26:34Z</time>
      </trkpt>
      <trkpt lat="46.66413" lon="12.35268">
        <ele>1471.92</ele>
        <time>2019-02-28T08:26:48Z</time>
      </trkpt>
      <trkpt lat="46.66399" lon="12.35258">
        <ele>1471.92</ele>
        <time>2019-02-28T08:27:03Z</time>
      </trkpt>
      <trkpt lat="46.66387" lon="12.35249">
        <ele>1472.4</ele>
        <time>2019-02-28T08:27:16Z</time>
      </trkpt>
      <trkpt lat="46.66374" lon="12.35235">
        <ele>1472.88</ele>
        <time>2019-02-28T08:27:29Z</time>
      </trkpt>
      <trkpt lat="46.66363" lon="12.35223">
        <ele>1473.84</ele>
        <time>2019-02-28T08:27:43Z</time>
      </trkpt>
      <trkpt lat="46.66354" lon="12.35217">
        <ele>1474.32</ele>
        <time>2019-02-28T08:27:58Z</time>
      </trkpt>
      <trkpt lat="46.66337" lon="12.35209">
        <ele>1476.24</ele>
        <time>2019-02-28T08:28:13Z</time>
      </trkpt>
      <trkpt lat="46.66319" lon="12.35213">
        <ele>1476.24</ele>
        <time>2019-02-28T08:28:29Z</time>
      </trkpt>
      <trkpt lat="46.66303" lon="12.35221">
        <ele>1477.2</ele>
        <time>2019-02-28T08:28:43Z</time>
      </trkpt>
      <trkpt lat="46.66286" lon="12.35232">
        <ele>1478.16</ele>
        <time>2019-02-28T08:28:59Z</time>
      </trkpt>
      <trkpt lat="46.66277" lon="12.35239">
        <ele>1479.13</ele>
        <time>2019-02-28T08:29:08Z</time>
      </trkpt>
      <trkpt lat="46.66268" lon="12.35246">
        <ele>1479.61</ele>
        <time>2019-02-28T08:29:18Z</time>
      </trkpt>
      <trkpt lat="46.66266" lon="12.35248">
        <ele>1479.61</ele>
        <time>2019-02-28T08:29:20Z</time>
      </trkpt>
      <trkpt lat="46.66253" lon="12.35258">
        <ele>1480.57</ele>
        <time>2019-02-28T08:29:34Z</time>
      </trkpt>
      <trkpt lat="46.6624" lon="12.35266">
        <ele>1481.53</ele>
        <time>2019-02-28T08:29:48Z</time>
      </trkpt>
      <trkpt lat="46.66228" lon="12.35274">
        <ele>1482.01</ele>
        <time>2019-02-28T08:30:02Z</time>
      </trkpt>
      <trkpt lat="46.66214" lon="12.35282">
        <ele>1482.97</ele>
        <time>2019-02-28T08:30:17Z</time>
      </trkpt>
      <trkpt lat="46.66201" lon="12.35288">
        <ele>1483.93</ele>
        <time>2019-02-28T08:30:33Z</time>
      </trkpt>
      <trkpt lat="46.66183" lon="12.35295">
        <ele>1484.89</ele>
        <time>2019-02-28T08:30:50Z</time>
      </trkpt>
      <trkpt lat="46.66171" lon="12.35293">
        <ele>1485.37</ele>
        <time>2019-02-28T08:31:02Z</time>
      </trkpt>
      <trkpt lat="46.66156" lon="12.35287">
        <ele>1486.34</ele>
        <time>2019-02-28T08:31:18Z</time>
      </trkpt>
      <trkpt lat="46.66142" lon="12.35282">
        <ele>1487.3</ele>
        <time>2019-02-28T08:31:33Z</time>
      </trkpt>
      <trkpt lat="46.66129" lon="12.35278">
        <ele>1488.74</ele>
        <time>2019-02-28T08:31:47Z</time>
      </trkpt>
      <trkpt lat="46.66116" lon="12.35275">
        <ele>1489.22</ele>
        <time>2019-02-28T08:32:01Z</time>
      </trkpt>
      <trkpt lat="46.66101" lon="12.35272">
        <ele>1490.18</ele>
        <time>2019-02-28T08:32:17Z</time>
      </trkpt>
      <trkpt lat="46.66086" lon="12.35271">
        <ele>1491.14</ele>
        <time>2019-02-28T08:32:32Z</time>
      </trkpt>
      <trkpt lat="46.66073" lon="12.35268">
        <ele>1492.1</ele>
        <time>2019-02-28T08:32:46Z</time>
      </trkpt>
      <trkpt lat="46.66057" lon="12.35267">
        <ele>1493.55</ele>
        <time>2019-02-28T08:33:02Z</time>
      </trkpt>
      <trkpt lat="46.66045" lon="12.35267">
        <ele>1494.51</ele>
        <time>2019-02-28T08:33:14Z</time>
      </trkpt>
      <trkpt lat="46.66032" lon="12.35269">
        <ele>1495.47</ele>
        <time>2019-02-28T08:33:28Z</time>
      </trkpt>
      <trkpt lat="46.66022" lon="12.35267">
        <ele>1496.43</ele>
        <time>2019-02-28T08:33:39Z</time>
      </trkpt>
      <trkpt lat="46.66019" lon="12.35267">
        <ele>1496.43</ele>
        <time>2019-02-28T08:33:42Z</time>
      </trkpt>
      <trkpt lat="46.66008" lon="12.35264">
        <ele>1496.91</ele>
        <time>2019-02-28T08:33:58Z</time>
      </trkpt>
      <trkpt lat="46.66005" lon="12.35264">
        <ele>1495.47</ele>
        <time>2019-02-28T08:34:00Z</time>
      </trkpt>
      <trkpt lat="46.65987" lon="12.35268">
        <ele>1497.87</ele>
        <time>2019-02-28T08:34:18Z</time>
      </trkpt>
      <trkpt lat="46.65977" lon="12.35272">
        <ele>1497.87</ele>
        <time>2019-02-28T08:34:28Z</time>
      </trkpt>
      <trkpt lat="46.65963" lon="12.35281">
        <ele>1498.35</ele>
        <time>2019-02-28T08:34:43Z</time>
      </trkpt>
      <trkpt lat="46.65952" lon="12.35292">
        <ele>1498.83</ele>
        <time>2019-02-28T08:34:56Z</time>
      </trkpt>
      <trkpt lat="46.65941" lon="12.35305">
        <ele>1499.79</ele>
        <time>2019-02-28T08:35:09Z</time>
      </trkpt>
      <trkpt lat="46.65939" lon="12.35307">
        <ele>1499.79</ele>
        <time>2019-02-28T08:35:16Z</time>
      </trkpt>
      <trkpt lat="46.65927" lon="12.35316">
        <ele>1500.76</ele>
        <time>2019-02-28T08:35:28Z</time>
      </trkpt>
      <trkpt lat="46.65917" lon="12.35326">
        <ele>1501.24</ele>
        <time>2019-02-28T08:35:41Z</time>
      </trkpt>
      <trkpt lat="46.65903" lon="12.35334">
        <ele>1502.2</ele>
        <time>2019-02-28T08:35:54Z</time>
      </trkpt>
      <trkpt lat="46.65888" lon="12.3534">
        <ele>1502.68</ele>
        <time>2019-02-28T08:36:07Z</time>
      </trkpt>
      <trkpt lat="46.65874" lon="12.35348">
        <ele>1502.68</ele>
        <time>2019-02-28T08:36:22Z</time>
      </trkpt>
      <trkpt lat="46.65862" lon="12.35357">
        <ele>1503.64</ele>
        <time>2019-02-28T08:36:35Z</time>
      </trkpt>
      <trkpt lat="46.65847" lon="12.3537">
        <ele>1502.68</ele>
        <time>2019-02-28T08:36:47Z</time>
      </trkpt>
      <trkpt lat="46.65832" lon="12.35377">
        <ele>1503.64</ele>
        <time>2019-02-28T08:37:02Z</time>
      </trkpt>
      <trkpt lat="46.65817" lon="12.35385">
        <ele>1504.12</ele>
        <time>2019-02-28T08:37:16Z</time>
      </trkpt>
      <trkpt lat="46.65806" lon="12.35389">
        <ele>1505.08</ele>
        <time>2019-02-28T08:37:29Z</time>
      </trkpt>
      <trkpt lat="46.65791" lon="12.35395">
        <ele>1506.04</ele>
        <time>2019-02-28T08:37:43Z</time>
      </trkpt>
      <trkpt lat="46.65784" lon="12.35399">
        <ele>1506.04</ele>
        <time>2019-02-28T08:37:50Z</time>
      </trkpt>
      <trkpt lat="46.65783" lon="12.354">
        <ele>1506.04</ele>
        <time>2019-02-28T08:37:52Z</time>
      </trkpt>
      <trkpt lat="46.65765" lon="12.35411">
        <ele>1507.48</ele>
        <time>2019-02-28T08:38:11Z</time>
      </trkpt>
      <trkpt lat="46.65756" lon="12.35416">
        <ele>1507.97</ele>
        <time>2019-02-28T08:38:19Z</time>
      </trkpt>
      <trkpt lat="46.65743" lon="12.35426">
        <ele>1508.45</ele>
        <time>2019-02-28T08:38:34Z</time>
      </trkpt>
      <trkpt lat="46.65732" lon="12.35437">
        <ele>1508.93</ele>
        <time>2019-02-28T08:38:48Z</time>
      </trkpt>
      <trkpt lat="46.6572" lon="12.35447">
        <ele>1509.41</ele>
        <time>2019-02-28T08:39:02Z</time>
      </trkpt>
      <trkpt lat="46.6571" lon="12.35459">
        <ele>1510.37</ele>
        <time>2019-02-28T08:39:15Z</time>
      </trkpt>
      <trkpt lat="46.65697" lon="12.35474">
        <ele>1511.33</ele>
        <time>2019-02-28T08:39:31Z</time>
      </trkpt>
      <trkpt lat="46.65692" lon="12.35482">
        <ele>1511.81</ele>
        <time>2019-02-28T08:39:38Z</time>
      </trkpt>
      <trkpt lat="46.65688" lon="12.35484">
        <ele>1511.81</ele>
        <time>2019-02-28T08:39:42Z</time>
      </trkpt>
      <trkpt lat="46.65686" lon="12.35488">
        <ele>1512.29</ele>
        <time>2019-02-28T08:39:45Z</time>
      </trkpt>
      <trkpt lat="46.65683" lon="12.3549">
        <ele>1512.29</ele>
        <time>2019-02-28T08:39:48Z</time>
      </trkpt>
      <trkpt lat="46.65669" lon="12.355">
        <ele>1513.25</ele>
        <time>2019-02-28T08:40:04Z</time>
      </trkpt>
      <trkpt lat="46.65655" lon="12.355">
        <ele>1514.69</ele>
        <time>2019-02-28T08:40:18Z</time>
      </trkpt>
      <trkpt lat="46.65643" lon="12.35497">
        <ele>1515.66</ele>
        <time>2019-02-28T08:40:32Z</time>
      </trkpt>
      <trkpt lat="46.65631" lon="12.35492">
        <ele>1516.62</ele>
        <time>2019-02-28T08:40:45Z</time>
      </trkpt>
      <trkpt lat="46.65619" lon="12.35488">
        <ele>1518.06</ele>
        <time>2019-02-28T08:40:57Z</time>
      </trkpt>
      <trkpt lat="46.65606" lon="12.35484">
        <ele>1519.5</ele>
        <time>2019-02-28T08:41:12Z</time>
      </trkpt>
      <trkpt lat="46.65593" lon="12.35482">
        <ele>1520.46</ele>
        <time>2019-02-28T08:41:24Z</time>
      </trkpt>
      <trkpt lat="46.65579" lon="12.35481">
        <ele>1521.42</ele>
        <time>2019-02-28T08:41:39Z</time>
      </trkpt>
      <trkpt lat="46.65572" lon="12.35484">
        <ele>1521.9</ele>
        <time>2019-02-28T08:41:53Z</time>
      </trkpt>
      <trkpt lat="46.65557" lon="12.35483">
        <ele>1522.39</ele>
        <time>2019-02-28T08:42:07Z</time>
      </trkpt>
      <trkpt lat="46.65549" lon="12.35484">
        <ele>1522.87</ele>
        <time>2019-02-28T08:42:15Z</time>
      </trkpt>
      <trkpt lat="46.65531" lon="12.35482">
        <ele>1523.83</ele>
        <time>2019-02-28T08:42:31Z</time>
      </trkpt>
      <trkpt lat="46.65516" lon="12.3548">
        <ele>1524.31</ele>
        <time>2019-02-28T08:42:47Z</time>
      </trkpt>
      <trkpt lat="46.65503" lon="12.3548">
        <ele>1524.79</ele>
        <time>2019-02-28T08:43:00Z</time>
      </trkpt>
      <trkpt lat="46.65497" lon="12.35481">
        <ele>1525.27</ele>
        <time>2019-02-28T08:43:07Z</time>
      </trkpt>
      <trkpt lat="46.65478" lon="12.35481">
        <ele>1525.27</ele>
        <time>2019-02-28T08:43:24Z</time>
      </trkpt>
      <trkpt lat="46.65464" lon="12.35479">
        <ele>1524.79</ele>
        <time>2019-02-28T08:43:38Z</time>
      </trkpt>
      <trkpt lat="46.65449" lon="12.35476">
        <ele>1525.75</ele>
        <time>2019-02-28T08:43:54Z</time>
      </trkpt>
      <trkpt lat="46.65436" lon="12.35473">
        <ele>1526.71</ele>
        <time>2019-02-28T08:44:08Z</time>
      </trkpt>
      <trkpt lat="46.65422" lon="12.35468">
        <ele>1527.67</ele>
        <time>2019-02-28T08:44:22Z</time>
      </trkpt>
      <trkpt lat="46.65404" lon="12.35463">
        <ele>1528.15</ele>
        <time>2019-02-28T08:44:39Z</time>
      </trkpt>
      <trkpt lat="46.65389" lon="12.35457">
        <ele>1529.11</ele>
        <time>2019-02-28T08:44:54Z</time>
      </trkpt>
      <trkpt lat="46.65373" lon="12.35456">
        <ele>1530.56</ele>
        <time>2019-02-28T08:45:11Z</time>
      </trkpt>
      <trkpt lat="46.65359" lon="12.35454">
        <ele>1531.52</ele>
        <time>2019-02-28T08:45:24Z</time>
      </trkpt>
      <trkpt lat="46.65346" lon="12.35453">
        <ele>1532.48</ele>
        <time>2019-02-28T08:45:37Z</time>
      </trkpt>
      <trkpt lat="46.65333" lon="12.35452">
        <ele>1533.44</ele>
        <time>2019-02-28T08:45:51Z</time>
      </trkpt>
      <trkpt lat="46.65319" lon="12.35451">
        <ele>1534.4</ele>
        <time>2019-02-28T08:46:06Z</time>
      </trkpt>
      <trkpt lat="46.65316" lon="12.35451">
        <ele>1534.4</ele>
        <time>2019-02-28T08:46:10Z</time>
      </trkpt>
      <trkpt lat="46.65298" lon="12.35453">
        <ele>1535.36</ele>
        <time>2019-02-28T08:46:28Z</time>
      </trkpt>
      <trkpt lat="46.65281" lon="12.35452">
        <ele>1535.84</ele>
        <time>2019-02-28T08:46:44Z</time>
      </trkpt>
      <trkpt lat="46.65269" lon="12.35453">
        <ele>1536.8</ele>
        <time>2019-02-28T08:46:57Z</time>
      </trkpt>
      <trkpt lat="46.65256" lon="12.35456">
        <ele>1537.77</ele>
        <time>2019-02-28T08:47:11Z</time>
      </trkpt>
      <trkpt lat="46.65241" lon="12.35458">
        <ele>1539.21</ele>
        <time>2019-02-28T08:47:26Z</time>
      </trkpt>
      <trkpt lat="46.65227" lon="12.35456">
        <ele>1540.17</ele>
        <time>2019-02-28T08:47:41Z</time>
      </trkpt>
      <trkpt lat="46.65216" lon="12.35451">
        <ele>1540.65</ele>
        <time>2019-02-28T08:47:53Z</time>
      </trkpt>
      <trkpt lat="46.65215" lon="12.35451">
        <ele>1540.65</ele>
        <time>2019-02-28T08:47:55Z</time>
      </trkpt>
      <trkpt lat="46.65213" lon="12.3545">
        <ele>1540.65</ele>
        <time>2019-02-28T08:47:57Z</time>
      </trkpt>
      <trkpt lat="46.65197" lon="12.35438">
        <ele>1540.17</ele>
        <time>2019-02-28T08:48:11Z</time>
      </trkpt>
      <trkpt lat="46.65184" lon="12.35431">
        <ele>1540.65</ele>
        <time>2019-02-28T08:48:25Z</time>
      </trkpt>
      <trkpt lat="46.65172" lon="12.35424">
        <ele>1541.61</ele>
        <time>2019-02-28T08:48:38Z</time>
      </trkpt>
      <trkpt lat="46.6516" lon="12.3542">
        <ele>1541.61</ele>
        <time>2019-02-28T08:48:49Z</time>
      </trkpt>
      <trkpt lat="46.6515" lon="12.35424">
        <ele>1542.57</ele>
        <time>2019-02-28T08:49:00Z</time>
      </trkpt>
      <trkpt lat="46.65146" lon="12.35426">
        <ele>1544.5</ele>
        <time>2019-02-28T08:49:05Z</time>
      </trkpt>
      <trkpt lat="46.65136" lon="12.35427">
        <ele>1543.53</ele>
        <time>2019-02-28T08:49:19Z</time>
      </trkpt>
      <trkpt lat="46.65122" lon="12.35428">
        <ele>1544.01</ele>
        <time>2019-02-28T08:49:32Z</time>
      </trkpt>
      <trkpt lat="46.6511" lon="12.35427">
        <ele>1544.98</ele>
        <time>2019-02-28T08:49:46Z</time>
      </trkpt>
      <trkpt lat="46.65094" lon="12.35427">
        <ele>1544.98</ele>
        <time>2019-02-28T08:50:01Z</time>
      </trkpt>
      <trkpt lat="46.65081" lon="12.3543">
        <ele>1545.46</ele>
        <time>2019-02-28T08:50:16Z</time>
      </trkpt>
      <trkpt lat="46.65064" lon="12.35433">
        <ele>1546.42</ele>
        <time>2019-02-28T08:50:31Z</time>
      </trkpt>
      <trkpt lat="46.6505" lon="12.35435">
        <ele>1546.42</ele>
        <time>2019-02-28T08:50:45Z</time>
      </trkpt>
      <trkpt lat="46.65039" lon="12.35438">
        <ele>1547.38</ele>
        <time>2019-02-28T08:50:57Z</time>
      </trkpt>
      <trkpt lat="46.65027" lon="12.35441">
        <ele>1547.86</ele>
        <time>2019-02-28T08:51:10Z</time>
      </trkpt>
      <trkpt lat="46.65025" lon="12.35441">
        <ele>1548.34</ele>
        <time>2019-02-28T08:51:12Z</time>
      </trkpt>
      <trkpt lat="46.65022" lon="12.35442">
        <ele>1548.34</ele>
        <time>2019-02-28T08:51:15Z</time>
      </trkpt>
      <trkpt lat="46.65011" lon="12.35447">
        <ele>1549.3</ele>
        <time>2019-02-28T08:51:28Z</time>
      </trkpt>
      <trkpt lat="46.64997" lon="12.35449">
        <ele>1550.26</ele>
        <time>2019-02-28T08:51:43Z</time>
      </trkpt>
      <trkpt lat="46.64996" lon="12.35449">
        <ele>1550.26</ele>
        <time>2019-02-28T08:51:44Z</time>
      </trkpt>
      <trkpt lat="46.64984" lon="12.35454">
        <ele>1551.22</ele>
        <time>2019-02-28T08:51:58Z</time>
      </trkpt>
      <trkpt lat="46.64971" lon="12.35456">
        <ele>1552.67</ele>
        <time>2019-02-28T08:52:13Z</time>
      </trkpt>
      <trkpt lat="46.64958" lon="12.35458">
        <ele>1553.63</ele>
        <time>2019-02-28T08:52:25Z</time>
      </trkpt>
      <trkpt lat="46.64945" lon="12.35457">
        <ele>1554.59</ele>
        <time>2019-02-28T08:52:39Z</time>
      </trkpt>
      <trkpt lat="46.64937" lon="12.35458">
        <ele>1555.55</ele>
        <time>2019-02-28T08:52:54Z</time>
      </trkpt>
      <trkpt lat="46.64922" lon="12.35461">
        <ele>1555.55</ele>
        <time>2019-02-28T08:53:08Z</time>
      </trkpt>
      <trkpt lat="46.64908" lon="12.35462">
        <ele>1555.55</ele>
        <time>2019-02-28T08:53:22Z</time>
      </trkpt>
      <trkpt lat="46.64894" lon="12.35463">
        <ele>1556.51</ele>
        <time>2019-02-28T08:53:38Z</time>
      </trkpt>
      <trkpt lat="46.64881" lon="12.35464">
        <ele>1557.47</ele>
        <time>2019-02-28T08:53:52Z</time>
      </trkpt>
      <trkpt lat="46.64873" lon="12.35463">
        <ele>1558.92</ele>
        <time>2019-02-28T08:54:06Z</time>
      </trkpt>
      <trkpt lat="46.64868" lon="12.35465">
        <ele>1558.92</ele>
        <time>2019-02-28T08:54:22Z</time>
      </trkpt>
      <trkpt lat="46.6486" lon="12.35465">
        <ele>1559.4</ele>
        <time>2019-02-28T08:54:31Z</time>
      </trkpt>
      <trkpt lat="46.64846" lon="12.35463">
        <ele>1559.88</ele>
        <time>2019-02-28T08:54:46Z</time>
      </trkpt>
      <trkpt lat="46.64833" lon="12.35464">
        <ele>1560.36</ele>
        <time>2019-02-28T08:55:01Z</time>
      </trkpt>
      <trkpt lat="46.64818" lon="12.35463">
        <ele>1560.84</ele>
        <time>2019-02-28T08:55:16Z</time>
      </trkpt>
      <trkpt lat="46.64817" lon="12.35464">
        <ele>1560.84</ele>
        <time>2019-02-28T08:55:28Z</time>
      </trkpt>
      <trkpt lat="46.64795" lon="12.35465">
        <ele>1559.88</ele>
        <time>2019-02-28T08:55:44Z</time>
      </trkpt>
      <trkpt lat="46.64781" lon="12.35471">
        <ele>1561.32</ele>
        <time>2019-02-28T08:55:58Z</time>
      </trkpt>
      <trkpt lat="46.64771" lon="12.35483">
        <ele>1561.32</ele>
        <time>2019-02-28T08:56:11Z</time>
      </trkpt>
      <trkpt lat="46.64756" lon="12.35491">
        <ele>1562.28</ele>
        <time>2019-02-28T08:56:25Z</time>
      </trkpt>
      <trkpt lat="46.64749" lon="12.35499">
        <ele>1562.28</ele>
        <time>2019-02-28T08:56:35Z</time>
      </trkpt>
      <trkpt lat="46.64745" lon="12.35502">
        <ele>1562.28</ele>
        <time>2019-02-28T08:56:40Z</time>
      </trkpt>
      <trkpt lat="46.64732" lon="12.35512">
        <ele>1563.24</ele>
        <time>2019-02-28T08:56:56Z</time>
      </trkpt>
      <trkpt lat="46.64726" lon="12.35516">
        <ele>1565.16</ele>
        <time>2019-02-28T08:57:10Z</time>
      </trkpt>
      <trkpt lat="46.64727" lon="12.35516">
        <ele>1563.72</ele>
        <time>2019-02-28T08:57:26Z</time>
      </trkpt>
      <trkpt lat="46.64724" lon="12.35517">
        <ele>1563.72</ele>
        <time>2019-02-28T08:57:40Z</time>
      </trkpt>
      <trkpt lat="46.64721" lon="12.35519">
        <ele>1563.72</ele>
        <time>2019-02-28T08:57:54Z</time>
      </trkpt>
      <trkpt lat="46.64719" lon="12.35514">
        <ele>1563.72</ele>
        <time>2019-02-28T08:58:09Z</time>
      </trkpt>
      <trkpt lat="46.64712" lon="12.35514">
        <ele>1564.2</ele>
        <time>2019-02-28T08:58:25Z</time>
      </trkpt>
      <trkpt lat="46.64711" lon="12.35514">
        <ele>1564.68</ele>
        <time>2019-02-28T08:58:26Z</time>
      </trkpt>
      <trkpt lat="46.64703" lon="12.35515">
        <ele>1564.68</ele>
        <time>2019-02-28T08:58:34Z</time>
      </trkpt>
      <trkpt lat="46.64694" lon="12.35516">
        <ele>1565.16</ele>
        <time>2019-02-28T08:58:41Z</time>
      </trkpt>
      <trkpt lat="46.64682" lon="12.35513">
        <ele>1565.64</ele>
        <time>2019-02-28T08:58:53Z</time>
      </trkpt>
      <trkpt lat="46.64668" lon="12.3551">
        <ele>1567.09</ele>
        <time>2019-02-28T08:59:08Z</time>
      </trkpt>
      <trkpt lat="46.64657" lon="12.35511">
        <ele>1568.05</ele>
        <time>2019-02-28T08:59:19Z</time>
      </trkpt>
      <trkpt lat="46.64644" lon="12.35513">
        <ele>1569.01</ele>
        <time>2019-02-28T08:59:33Z</time>
      </trkpt>
      <trkpt lat="46.64641" lon="12.35514">
        <ele>1569.49</ele>
        <time>2019-02-28T08:59:36Z</time>
      </trkpt>
      <trkpt lat="46.64634" lon="12.35516">
        <ele>1569.49</ele>
        <time>2019-02-28T08:59:44Z</time>
      </trkpt>
      <trkpt lat="46.64623" lon="12.35517">
        <ele>1570.45</ele>
        <time>2019-02-28T08:59:58Z</time>
      </trkpt>
      <trkpt lat="46.64615" lon="12.3552">
        <ele>1571.41</ele>
        <time>2019-02-28T09:00:08Z</time>
      </trkpt>
      <trkpt lat="46.64601" lon="12.35523">
        <ele>1571.89</ele>
        <time>2019-02-28T09:00:22Z</time>
      </trkpt>
      <trkpt lat="46.64591" lon="12.35525">
        <ele>1572.37</ele>
        <time>2019-02-28T09:00:33Z</time>
      </trkpt>
      <trkpt lat="46.64585" lon="12.35532">
        <ele>1573.82</ele>
        <time>2019-02-28T09:00:50Z</time>
      </trkpt>
      <trkpt lat="46.64574" lon="12.35539">
        <ele>1573.82</ele>
        <time>2019-02-28T09:01:03Z</time>
      </trkpt>
      <trkpt lat="46.64567" lon="12.35554">
        <ele>1575.26</ele>
        <time>2019-02-28T09:01:19Z</time>
      </trkpt>
      <trkpt lat="46.64556" lon="12.35557">
        <ele>1576.7</ele>
        <time>2019-02-28T09:01:34Z</time>
      </trkpt>
      <trkpt lat="46.64554" lon="12.35571">
        <ele>1578.14</ele>
        <time>2019-02-28T09:01:48Z</time>
      </trkpt>
      <trkpt lat="46.64552" lon="12.35584">
        <ele>1579.58</ele>
        <time>2019-02-28T09:02:03Z</time>
      </trkpt>
      <trkpt lat="46.64543" lon="12.35589">
        <ele>1581.51</ele>
        <time>2019-02-28T09:02:20Z</time>
      </trkpt>
      <trkpt lat="46.64534" lon="12.35596">
        <ele>1583.43</ele>
        <time>2019-02-28T09:02:38Z</time>
      </trkpt>
      <trkpt lat="46.64528" lon="12.35609">
        <ele>1584.87</ele>
        <time>2019-02-28T09:02:54Z</time>
      </trkpt>
      <trkpt lat="46.64527" lon="12.35621">
        <ele>1586.31</ele>
        <time>2019-02-28T09:03:07Z</time>
      </trkpt>
      <trkpt lat="46.6452" lon="12.35626">
        <ele>1588.24</ele>
        <time>2019-02-28T09:03:24Z</time>
      </trkpt>
      <trkpt lat="46.6451" lon="12.35628">
        <ele>1590.16</ele>
        <time>2019-02-28T09:03:41Z</time>
      </trkpt>
      <trkpt lat="46.64506" lon="12.35635">
        <ele>1591.6</ele>
        <time>2019-02-28T09:03:54Z</time>
      </trkpt>
      <trkpt lat="46.64498" lon="12.35637">
        <ele>1593.04</ele>
        <time>2019-02-28T09:04:10Z</time>
      </trkpt>
      <trkpt lat="46.64493" lon="12.35638">
        <ele>1594.48</ele>
        <time>2019-02-28T09:04:25Z</time>
      </trkpt>
      <trkpt lat="46.64483" lon="12.35645">
        <ele>1595.93</ele>
        <time>2019-02-28T09:04:40Z</time>
      </trkpt>
      <trkpt lat="46.64476" lon="12.35651">
        <ele>1597.85</ele>
        <time>2019-02-28T09:04:57Z</time>
      </trkpt>
      <trkpt lat="46.64468" lon="12.35661">
        <ele>1601.21</ele>
        <time>2019-02-28T09:05:14Z</time>
      </trkpt>
      <trkpt lat="46.64465" lon="12.35671">
        <ele>1600.73</ele>
        <time>2019-02-28T09:05:27Z</time>
      </trkpt>
      <trkpt lat="46.64457" lon="12.35678">
        <ele>1602.17</ele>
        <time>2019-02-28T09:05:43Z</time>
      </trkpt>
      <trkpt lat="46.64449" lon="12.35682">
        <ele>1603.14</ele>
        <time>2019-02-28T09:05:57Z</time>
      </trkpt>
      <trkpt lat="46.64447" lon="12.35679">
        <ele>1603.14</ele>
        <time>2019-02-28T09:06:12Z</time>
      </trkpt>
      <trkpt lat="46.64449" lon="12.35679">
        <ele>1602.17</ele>
        <time>2019-02-28T09:06:27Z</time>
      </trkpt>
      <trkpt lat="46.64445" lon="12.35677">
        <ele>1601.69</ele>
        <time>2019-02-28T09:06:44Z</time>
      </trkpt>
      <trkpt lat="46.64447" lon="12.35679">
        <ele>1601.69</ele>
        <time>2019-02-28T09:07:00Z</time>
      </trkpt>
      <trkpt lat="46.64451" lon="12.3568">
        <ele>1601.69</ele>
        <time>2019-02-28T09:07:22Z</time>
      </trkpt>
      <trkpt lat="46.64452" lon="12.35677">
        <ele>1601.69</ele>
        <time>2019-02-28T09:07:46Z</time>
      </trkpt>
      <trkpt lat="46.64453" lon="12.35681">
        <ele>1601.69</ele>
        <time>2019-02-28T09:08:13Z</time>
      </trkpt>
      <trkpt lat="46.6445" lon="12.35678">
        <ele>1601.69</ele>
        <time>2019-02-28T09:08:42Z</time>
      </trkpt>
      <trkpt lat="46.64449" lon="12.35678">
        <ele>1602.17</ele>
        <time>2019-02-28T09:09:12Z</time>
      </trkpt>
      <trkpt lat="46.64447" lon="12.35675">
        <ele>1602.17</ele>
        <time>2019-02-28T09:09:38Z</time>
      </trkpt>
      <trkpt lat="46.64447" lon="12.35675">
        <ele>1602.66</ele>
        <time>2019-02-28T09:10:05Z</time>
      </trkpt>
      <trkpt lat="46.64446" lon="12.35674">
        <ele>1602.66</ele>
        <time>2019-02-28T09:10:34Z</time>
      </trkpt>
      <trkpt lat="46.64447" lon="12.3568">
        <ele>1602.66</ele>
        <time>2019-02-28T09:10:59Z</time>
      </trkpt>
      <trkpt lat="46.64446" lon="12.35688">
        <ele>1602.66</ele>
        <time>2019-02-28T09:11:33Z</time>
      </trkpt>
      <trkpt lat="46.64446" lon="12.35683">
        <ele>1602.66</ele>
        <time>2019-02-28T09:12:02Z</time>
      </trkpt>
      <trkpt lat="46.64444" lon="12.35672">
        <ele>1603.14</ele>
        <time>2019-02-28T09:12:30Z</time>
      </trkpt>
      <trkpt lat="46.64445" lon="12.35674">
        <ele>1603.62</ele>
        <time>2019-02-28T09:12:54Z</time>
      </trkpt>
      <trkpt lat="46.64446" lon="12.35675">
        <ele>1603.62</ele>
        <time>2019-02-28T09:13:30Z</time>
      </trkpt>
      <trkpt lat="46.64448" lon="12.35678">
        <ele>1604.1</ele>
        <time>2019-02-28T09:13:56Z</time>
      </trkpt>
      <trkpt lat="46.64447" lon="12.3568">
        <ele>1604.58</ele>
        <time>2019-02-28T09:14:29Z</time>
      </trkpt>
      <trkpt lat="46.64448" lon="12.35683">
        <ele>1605.06</ele>
        <time>2019-02-28T09:15:09Z</time>
      </trkpt>
      <trkpt lat="46.64449" lon="12.35681">
        <ele>1606.02</ele>
        <time>2019-02-28T09:15:25Z</time>
      </trkpt>
      <trkpt lat="46.64444" lon="12.35686">
        <ele>1606.5</ele>
        <time>2019-02-28T09:15:41Z</time>
      </trkpt>
      <trkpt lat="46.64442" lon="12.35691">
        <ele>1608.42</ele>
        <time>2019-02-28T09:15:53Z</time>
      </trkpt>
      <trkpt lat="46.64434" lon="12.3569">
        <ele>1610.83</ele>
        <time>2019-02-28T09:16:08Z</time>
      </trkpt>
      <trkpt lat="46.64429" lon="12.35693">
        <ele>1612.27</ele>
        <time>2019-02-28T09:16:22Z</time>
      </trkpt>
      <trkpt lat="46.64424" lon="12.3569">
        <ele>1613.71</ele>
        <time>2019-02-28T09:16:35Z</time>
      </trkpt>
      <trkpt lat="46.64425" lon="12.35698">
        <ele>1615.15</ele>
        <time>2019-02-28T09:16:50Z</time>
      </trkpt>
      <trkpt lat="46.64425" lon="12.35703">
        <ele>1616.59</ele>
        <time>2019-02-28T09:17:03Z</time>
      </trkpt>
      <trkpt lat="46.64419" lon="12.35702">
        <ele>1618.04</ele>
        <time>2019-02-28T09:17:15Z</time>
      </trkpt>
      <trkpt lat="46.64414" lon="12.35702">
        <ele>1619.48</ele>
        <time>2019-02-28T09:17:28Z</time>
      </trkpt>
      <trkpt lat="46.64409" lon="12.35704">
        <ele>1621.4</ele>
        <time>2019-02-28T09:17:42Z</time>
      </trkpt>
      <trkpt lat="46.64404" lon="12.35707">
        <ele>1622.36</ele>
        <time>2019-02-28T09:17:57Z</time>
      </trkpt>
      <trkpt lat="46.64403" lon="12.35712">
        <ele>1623.32</ele>
        <time>2019-02-28T09:18:11Z</time>
      </trkpt>
      <trkpt lat="46.64395" lon="12.35714">
        <ele>1625.25</ele>
        <time>2019-02-28T09:18:25Z</time>
      </trkpt>
      <trkpt lat="46.64389" lon="12.35718">
        <ele>1626.69</ele>
        <time>2019-02-28T09:18:39Z</time>
      </trkpt>
      <trkpt lat="46.64384" lon="12.3572">
        <ele>1627.65</ele>
        <time>2019-02-28T09:18:53Z</time>
      </trkpt>
      <trkpt lat="46.64379" lon="12.35721">
        <ele>1629.09</ele>
        <time>2019-02-28T09:19:09Z</time>
      </trkpt>
      <trkpt lat="46.64378" lon="12.35725">
        <ele>1632.46</ele>
        <time>2019-02-28T09:19:22Z</time>
      </trkpt>
      <trkpt lat="46.64373" lon="12.3573">
        <ele>1632.46</ele>
        <time>2019-02-28T09:19:39Z</time>
      </trkpt>
      <trkpt lat="46.64371" lon="12.35736">
        <ele>1634.38</ele>
        <time>2019-02-28T09:19:54Z</time>
      </trkpt>
      <trkpt lat="46.64367" lon="12.35741">
        <ele>1635.34</ele>
        <time>2019-02-28T09:20:07Z</time>
      </trkpt>
      <trkpt lat="46.64365" lon="12.35746">
        <ele>1637.26</ele>
        <time>2019-02-28T09:20:20Z</time>
      </trkpt>
      <trkpt lat="46.64359" lon="12.35748">
        <ele>1638.7</ele>
        <time>2019-02-28T09:20:33Z</time>
      </trkpt>
      <trkpt lat="46.64354" lon="12.3575">
        <ele>1640.15</ele>
        <time>2019-02-28T09:20:47Z</time>
      </trkpt>
      <trkpt lat="46.6435" lon="12.3575">
        <ele>1642.55</ele>
        <time>2019-02-28T09:21:02Z</time>
      </trkpt>
      <trkpt lat="46.64347" lon="12.35758">
        <ele>1643.99</ele>
        <time>2019-02-28T09:21:12Z</time>
      </trkpt>
      <trkpt lat="46.64342" lon="12.3576">
        <ele>1644.95</ele>
        <time>2019-02-28T09:21:25Z</time>
      </trkpt>
      <trkpt lat="46.64337" lon="12.35763">
        <ele>1645.91</ele>
        <time>2019-02-28T09:21:38Z</time>
      </trkpt>
      <trkpt lat="46.64336" lon="12.35755">
        <ele>1647.36</ele>
        <time>2019-02-28T09:21:52Z</time>
      </trkpt>
      <trkpt lat="46.64332" lon="12.35763">
        <ele>1648.8</ele>
        <time>2019-02-28T09:22:04Z</time>
      </trkpt>
      <trkpt lat="46.64326" lon="12.35773">
        <ele>1648.8</ele>
        <time>2019-02-28T09:22:17Z</time>
      </trkpt>
      <trkpt lat="46.64321" lon="12.35778">
        <ele>1649.76</ele>
        <time>2019-02-28T09:22:31Z</time>
      </trkpt>
      <trkpt lat="46.64315" lon="12.35777">
        <ele>1651.68</ele>
        <time>2019-02-28T09:22:45Z</time>
      </trkpt>
      <trkpt lat="46.64308" lon="12.35777">
        <ele>1652.64</ele>
        <time>2019-02-28T09:23:02Z</time>
      </trkpt>
      <trkpt lat="46.64301" lon="12.35778">
        <ele>1653.12</ele>
        <time>2019-02-28T09:23:15Z</time>
      </trkpt>
      <trkpt lat="46.64293" lon="12.35779">
        <ele>1654.57</ele>
        <time>2019-02-28T09:23:28Z</time>
      </trkpt>
      <trkpt lat="46.64287" lon="12.35779">
        <ele>1655.53</ele>
        <time>2019-02-28T09:23:41Z</time>
      </trkpt>
      <trkpt lat="46.64278" lon="12.35781">
        <ele>1656.49</ele>
        <time>2019-02-28T09:23:57Z</time>
      </trkpt>
      <trkpt lat="46.64272" lon="12.35781">
        <ele>1656.97</ele>
        <time>2019-02-28T09:24:11Z</time>
      </trkpt>
      <trkpt lat="46.64265" lon="12.35787">
        <ele>1657.93</ele>
        <time>2019-02-28T09:24:24Z</time>
      </trkpt>
      <trkpt lat="46.64259" lon="12.35789">
        <ele>1659.85</ele>
        <time>2019-02-28T09:24:39Z</time>
      </trkpt>
      <trkpt lat="46.64262" lon="12.35797">
        <ele>1660.33</ele>
        <time>2019-02-28T09:24:50Z</time>
      </trkpt>
      <trkpt lat="46.64255" lon="12.35801">
        <ele>1661.78</ele>
        <time>2019-02-28T09:25:06Z</time>
      </trkpt>
      <trkpt lat="46.64249" lon="12.35803">
        <ele>1663.7</ele>
        <time>2019-02-28T09:25:21Z</time>
      </trkpt>
      <trkpt lat="46.64245" lon="12.3581">
        <ele>1665.14</ele>
        <time>2019-02-28T09:25:36Z</time>
      </trkpt>
      <trkpt lat="46.64242" lon="12.35815">
        <ele>1666.58</ele>
        <time>2019-02-28T09:25:48Z</time>
      </trkpt>
      <trkpt lat="46.64237" lon="12.35819">
        <ele>1668.02</ele>
        <time>2019-02-28T09:26:03Z</time>
      </trkpt>
      <trkpt lat="46.64235" lon="12.35825">
        <ele>1669.47</ele>
        <time>2019-02-28T09:26:17Z</time>
      </trkpt>
      <trkpt lat="46.6423" lon="12.3583">
        <ele>1671.39</ele>
        <time>2019-02-28T09:26:33Z</time>
      </trkpt>
      <trkpt lat="46.64224" lon="12.35827">
        <ele>1672.83</ele>
        <time>2019-02-28T09:26:49Z</time>
      </trkpt>
      <trkpt lat="46.64216" lon="12.35831">
        <ele>1674.75</ele>
        <time>2019-02-28T09:27:07Z</time>
      </trkpt>
      <trkpt lat="46.6421" lon="12.35838">
        <ele>1676.2</ele>
        <time>2019-02-28T09:27:23Z</time>
      </trkpt>
      <trkpt lat="46.64205" lon="12.35842">
        <ele>1678.12</ele>
        <time>2019-02-28T09:27:39Z</time>
      </trkpt>
      <trkpt lat="46.6421" lon="12.35847">
        <ele>1679.56</ele>
        <time>2019-02-28T09:27:54Z</time>
      </trkpt>
      <trkpt lat="46.6421" lon="12.35849">
        <ele>1681</ele>
        <time>2019-02-28T09:28:07Z</time>
      </trkpt>
      <trkpt lat="46.64204" lon="12.35853">
        <ele>1682.44</ele>
        <time>2019-02-28T09:28:21Z</time>
      </trkpt>
      <trkpt lat="46.64198" lon="12.35856">
        <ele>1683.89</ele>
        <time>2019-02-28T09:28:37Z</time>
      </trkpt>
      <trkpt lat="46.64193" lon="12.35861">
        <ele>1685.81</ele>
        <time>2019-02-28T09:28:52Z</time>
      </trkpt>
      <trkpt lat="46.64188" lon="12.35864">
        <ele>1686.77</ele>
        <time>2019-02-28T09:29:06Z</time>
      </trkpt>
      <trkpt lat="46.64183" lon="12.35864">
        <ele>1687.73</ele>
        <time>2019-02-28T09:29:20Z</time>
      </trkpt>
      <trkpt lat="46.64177" lon="12.35869">
        <ele>1689.65</ele>
        <time>2019-02-28T09:29:33Z</time>
      </trkpt>
      <trkpt lat="46.64175" lon="12.35875">
        <ele>1690.62</ele>
        <time>2019-02-28T09:29:46Z</time>
      </trkpt>
      <trkpt lat="46.64177" lon="12.35884">
        <ele>1692.06</ele>
        <time>2019-02-28T09:30:00Z</time>
      </trkpt>
      <trkpt lat="46.64177" lon="12.35895">
        <ele>1693.5</ele>
        <time>2019-02-28T09:30:15Z</time>
      </trkpt>
      <trkpt lat="46.64175" lon="12.35902">
        <ele>1694.94</ele>
        <time>2019-02-28T09:30:30Z</time>
      </trkpt>
      <trkpt lat="46.6417" lon="12.35906">
        <ele>1696.86</ele>
        <time>2019-02-28T09:30:46Z</time>
      </trkpt>
      <trkpt lat="46.64167" lon="12.35914">
        <ele>1698.31</ele>
        <time>2019-02-28T09:31:03Z</time>
      </trkpt>
      <trkpt lat="46.64163" lon="12.35917">
        <ele>1699.75</ele>
        <time>2019-02-28T09:31:16Z</time>
      </trkpt>
      <trkpt lat="46.64159" lon="12.3592">
        <ele>1702.15</ele>
        <time>2019-02-28T09:31:29Z</time>
      </trkpt>
      <trkpt lat="46.64152" lon="12.35921">
        <ele>1702.15</ele>
        <time>2019-02-28T09:31:44Z</time>
      </trkpt>
      <trkpt lat="46.64147" lon="12.35927">
        <ele>1702.63</ele>
        <time>2019-02-28T09:31:53Z</time>
      </trkpt>
      <trkpt lat="46.64143" lon="12.35933">
        <ele>1702.63</ele>
        <time>2019-02-28T09:32:06Z</time>
      </trkpt>
      <trkpt lat="46.64142" lon="12.35937">
        <ele>1704.07</ele>
        <time>2019-02-28T09:32:11Z</time>
      </trkpt>
      <trkpt lat="46.64138" lon="12.35945">
        <ele>1705.04</ele>
        <time>2019-02-28T09:32:25Z</time>
      </trkpt>
      <trkpt lat="46.6413" lon="12.35948">
        <ele>1706.96</ele>
        <time>2019-02-28T09:32:41Z</time>
      </trkpt>
      <trkpt lat="46.64126" lon="12.35952">
        <ele>1708.88</ele>
        <time>2019-02-28T09:32:55Z</time>
      </trkpt>
      <trkpt lat="46.6412" lon="12.35953">
        <ele>1710.8</ele>
        <time>2019-02-28T09:33:09Z</time>
      </trkpt>
      <trkpt lat="46.64114" lon="12.35955">
        <ele>1712.73</ele>
        <time>2019-02-28T09:33:24Z</time>
      </trkpt>
      <trkpt lat="46.64109" lon="12.35956">
        <ele>1714.17</ele>
        <time>2019-02-28T09:33:38Z</time>
      </trkpt>
      <trkpt lat="46.64102" lon="12.35958">
        <ele>1715.61</ele>
        <time>2019-02-28T09:33:53Z</time>
      </trkpt>
      <trkpt lat="46.64095" lon="12.35959">
        <ele>1717.05</ele>
        <time>2019-02-28T09:34:11Z</time>
      </trkpt>
      <trkpt lat="46.64087" lon="12.35968">
        <ele>1718.97</ele>
        <time>2019-02-28T09:34:27Z</time>
      </trkpt>
      <trkpt lat="46.6408" lon="12.35972">
        <ele>1720.9</ele>
        <time>2019-02-28T09:34:44Z</time>
      </trkpt>
      <trkpt lat="46.64076" lon="12.35976">
        <ele>1722.34</ele>
        <time>2019-02-28T09:34:57Z</time>
      </trkpt>
      <trkpt lat="46.64072" lon="12.35976">
        <ele>1724.26</ele>
        <time>2019-02-28T09:35:11Z</time>
      </trkpt>
      <trkpt lat="46.64066" lon="12.35977">
        <ele>1726.67</ele>
        <time>2019-02-28T09:35:26Z</time>
      </trkpt>
      <trkpt lat="46.64061" lon="12.35976">
        <ele>1728.59</ele>
        <time>2019-02-28T09:35:43Z</time>
      </trkpt>
      <trkpt lat="46.64056" lon="12.35972">
        <ele>1730.51</ele>
        <time>2019-02-28T09:35:57Z</time>
      </trkpt>
      <trkpt lat="46.6405" lon="12.35975">
        <ele>1730.99</ele>
        <time>2019-02-28T09:36:10Z</time>
      </trkpt>
      <trkpt lat="46.64045" lon="12.35979">
        <ele>1731.95</ele>
        <time>2019-02-28T09:36:25Z</time>
      </trkpt>
      <trkpt lat="46.64037" lon="12.35983">
        <ele>1733.39</ele>
        <time>2019-02-28T09:36:39Z</time>
      </trkpt>
      <trkpt lat="46.64033" lon="12.35985">
        <ele>1734.84</ele>
        <time>2019-02-28T09:36:54Z</time>
      </trkpt>
      <trkpt lat="46.64027" lon="12.35986">
        <ele>1736.76</ele>
        <time>2019-02-28T09:37:06Z</time>
      </trkpt>
      <trkpt lat="46.6402" lon="12.35989">
        <ele>1738.68</ele>
        <time>2019-02-28T09:37:21Z</time>
      </trkpt>
      <trkpt lat="46.64016" lon="12.3599">
        <ele>1741.08</ele>
        <time>2019-02-28T09:37:33Z</time>
      </trkpt>
      <trkpt lat="46.64015" lon="12.3599">
        <ele>1739.64</ele>
        <time>2019-02-28T09:37:34Z</time>
      </trkpt>
      <trkpt lat="46.64007" lon="12.35993">
        <ele>1739.16</ele>
        <time>2019-02-28T09:37:47Z</time>
      </trkpt>
      <trkpt lat="46.63999" lon="12.35996">
        <ele>1740.12</ele>
        <time>2019-02-28T09:38:03Z</time>
      </trkpt>
      <trkpt lat="46.63991" lon="12.36001">
        <ele>1741.57</ele>
        <time>2019-02-28T09:38:19Z</time>
      </trkpt>
      <trkpt lat="46.63985" lon="12.36003">
        <ele>1742.05</ele>
        <time>2019-02-28T09:38:33Z</time>
      </trkpt>
      <trkpt lat="46.63978" lon="12.36007">
        <ele>1743.49</ele>
        <time>2019-02-28T09:38:48Z</time>
      </trkpt>
      <trkpt lat="46.63972" lon="12.36014">
        <ele>1744.45</ele>
        <time>2019-02-28T09:39:02Z</time>
      </trkpt>
      <trkpt lat="46.63966" lon="12.36023">
        <ele>1745.41</ele>
        <time>2019-02-28T09:39:16Z</time>
      </trkpt>
      <trkpt lat="46.6396" lon="12.3603">
        <ele>1746.37</ele>
        <time>2019-02-28T09:39:30Z</time>
      </trkpt>
      <trkpt lat="46.63958" lon="12.36031">
        <ele>1748.29</ele>
        <time>2019-02-28T09:39:34Z</time>
      </trkpt>
      <trkpt lat="46.63949" lon="12.36038">
        <ele>1747.81</ele>
        <time>2019-02-28T09:39:54Z</time>
      </trkpt>
      <trkpt lat="46.63943" lon="12.36044">
        <ele>1749.26</ele>
        <time>2019-02-28T09:40:08Z</time>
      </trkpt>
      <trkpt lat="46.63935" lon="12.3605">
        <ele>1750.22</ele>
        <time>2019-02-28T09:40:23Z</time>
      </trkpt>
      <trkpt lat="46.63934" lon="12.3605">
        <ele>1751.66</ele>
        <time>2019-02-28T09:40:25Z</time>
      </trkpt>
      <trkpt lat="46.63933" lon="12.36051">
        <ele>1750.22</ele>
        <time>2019-02-28T09:40:26Z</time>
      </trkpt>
      <trkpt lat="46.63925" lon="12.36054">
        <ele>1750.7</ele>
        <time>2019-02-28T09:40:39Z</time>
      </trkpt>
      <trkpt lat="46.63916" lon="12.36058">
        <ele>1751.66</ele>
        <time>2019-02-28T09:40:53Z</time>
      </trkpt>
      <trkpt lat="46.63913" lon="12.36063">
        <ele>1753.1</ele>
        <time>2019-02-28T09:41:07Z</time>
      </trkpt>
      <trkpt lat="46.63902" lon="12.36058">
        <ele>1754.54</ele>
        <time>2019-02-28T09:41:24Z</time>
      </trkpt>
      <trkpt lat="46.63894" lon="12.36061">
        <ele>1755.5</ele>
        <time>2019-02-28T09:41:39Z</time>
      </trkpt>
      <trkpt lat="46.63888" lon="12.36059">
        <ele>1756.95</ele>
        <time>2019-02-28T09:41:50Z</time>
      </trkpt>
      <trkpt lat="46.6388" lon="12.36057">
        <ele>1758.39</ele>
        <time>2019-02-28T09:42:06Z</time>
      </trkpt>
      <trkpt lat="46.63873" lon="12.36047">
        <ele>1759.83</ele>
        <time>2019-02-28T09:42:20Z</time>
      </trkpt>
      <trkpt lat="46.6387" lon="12.36044">
        <ele>1762.23</ele>
        <time>2019-02-28T09:42:26Z</time>
      </trkpt>
      <trkpt lat="46.63869" lon="12.36033">
        <ele>1762.23</ele>
        <time>2019-02-28T09:42:42Z</time>
      </trkpt>
      <trkpt lat="46.63862" lon="12.36025">
        <ele>1763.2</ele>
        <time>2019-02-28T09:42:58Z</time>
      </trkpt>
      <trkpt lat="46.63858" lon="12.36021">
        <ele>1765.12</ele>
        <time>2019-02-28T09:43:13Z</time>
      </trkpt>
      <trkpt lat="46.63852" lon="12.36024">
        <ele>1767.04</ele>
        <time>2019-02-28T09:43:28Z</time>
      </trkpt>
      <trkpt lat="46.63846" lon="12.36027">
        <ele>1768</ele>
        <time>2019-02-28T09:43:43Z</time>
      </trkpt>
      <trkpt lat="46.63837" lon="12.36026">
        <ele>1769.92</ele>
        <time>2019-02-28T09:43:59Z</time>
      </trkpt>
      <trkpt lat="46.63827" lon="12.36028">
        <ele>1771.37</ele>
        <time>2019-02-28T09:44:15Z</time>
      </trkpt>
      <trkpt lat="46.63822" lon="12.36033">
        <ele>1773.29</ele>
        <time>2019-02-28T09:44:27Z</time>
      </trkpt>
      <trkpt lat="46.63816" lon="12.36034">
        <ele>1773.77</ele>
        <time>2019-02-28T09:44:40Z</time>
      </trkpt>
      <trkpt lat="46.63813" lon="12.36039">
        <ele>1775.21</ele>
        <time>2019-02-28T09:44:54Z</time>
      </trkpt>
      <trkpt lat="46.63809" lon="12.36047">
        <ele>1776.17</ele>
        <time>2019-02-28T09:45:10Z</time>
      </trkpt>
      <trkpt lat="46.63805" lon="12.36055">
        <ele>1776.65</ele>
        <time>2019-02-28T09:45:23Z</time>
      </trkpt>
      <trkpt lat="46.63802" lon="12.36062">
        <ele>1778.58</ele>
        <time>2019-02-28T09:45:38Z</time>
      </trkpt>
      <trkpt lat="46.63799" lon="12.36066">
        <ele>1780.02</ele>
        <time>2019-02-28T09:45:48Z</time>
      </trkpt>
      <trkpt lat="46.63797" lon="12.36071">
        <ele>1781.94</ele>
        <time>2019-02-28T09:46:03Z</time>
      </trkpt>
      <trkpt lat="46.63804" lon="12.36088">
        <ele>1782.9</ele>
        <time>2019-02-28T09:46:16Z</time>
      </trkpt>
      <trkpt lat="46.638" lon="12.36093">
        <ele>1785.79</ele>
        <time>2019-02-28T09:46:28Z</time>
      </trkpt>
      <trkpt lat="46.63796" lon="12.36095">
        <ele>1785.79</ele>
        <time>2019-02-28T09:46:42Z</time>
      </trkpt>
      <trkpt lat="46.63788" lon="12.36095">
        <ele>1787.71</ele>
        <time>2019-02-28T09:46:59Z</time>
      </trkpt>
      <trkpt lat="46.63782" lon="12.36094">
        <ele>1789.15</ele>
        <time>2019-02-28T09:47:12Z</time>
      </trkpt>
      <trkpt lat="46.63779" lon="12.36095">
        <ele>1791.07</ele>
        <time>2019-02-28T09:47:26Z</time>
      </trkpt>
      <trkpt lat="46.63782" lon="12.36108">
        <ele>1792.03</ele>
        <time>2019-02-28T09:47:40Z</time>
      </trkpt>
      <trkpt lat="46.63779" lon="12.36106">
        <ele>1794.44</ele>
        <time>2019-02-28T09:47:53Z</time>
      </trkpt>
      <trkpt lat="46.63773" lon="12.36101">
        <ele>1795.88</ele>
        <time>2019-02-28T09:48:08Z</time>
      </trkpt>
      <trkpt lat="46.63766" lon="12.36101">
        <ele>1797.8</ele>
        <time>2019-02-28T09:48:24Z</time>
      </trkpt>
      <trkpt lat="46.63765" lon="12.36102">
        <ele>1799.24</ele>
        <time>2019-02-28T09:48:29Z</time>
      </trkpt>
      <trkpt lat="46.6376" lon="12.36104">
        <ele>1799.24</ele>
        <time>2019-02-28T09:48:44Z</time>
      </trkpt>
      <trkpt lat="46.63757" lon="12.36111">
        <ele>1801.17</ele>
        <time>2019-02-28T09:48:59Z</time>
      </trkpt>
      <trkpt lat="46.63754" lon="12.36118">
        <ele>1802.13</ele>
        <time>2019-02-28T09:49:13Z</time>
      </trkpt>
      <trkpt lat="46.63747" lon="12.36115">
        <ele>1803.57</ele>
        <time>2019-02-28T09:49:28Z</time>
      </trkpt>
      <trkpt lat="46.63741" lon="12.36115">
        <ele>1805.01</ele>
        <time>2019-02-28T09:49:41Z</time>
      </trkpt>
      <trkpt lat="46.63736" lon="12.36114">
        <ele>1806.45</ele>
        <time>2019-02-28T09:49:56Z</time>
      </trkpt>
      <trkpt lat="46.63732" lon="12.36121">
        <ele>1807.9</ele>
        <time>2019-02-28T09:50:08Z</time>
      </trkpt>
      <trkpt lat="46.6373" lon="12.36131">
        <ele>1809.34</ele>
        <time>2019-02-28T09:50:23Z</time>
      </trkpt>
      <trkpt lat="46.63729" lon="12.36134">
        <ele>1810.78</ele>
        <time>2019-02-28T09:50:29Z</time>
      </trkpt>
      <trkpt lat="46.63727" lon="12.36141">
        <ele>1811.26</ele>
        <time>2019-02-28T09:50:43Z</time>
      </trkpt>
      <trkpt lat="46.63723" lon="12.36147">
        <ele>1813.18</ele>
        <time>2019-02-28T09:50:58Z</time>
      </trkpt>
      <trkpt lat="46.63717" lon="12.36154">
        <ele>1814.63</ele>
        <time>2019-02-28T09:51:14Z</time>
      </trkpt>
      <trkpt lat="46.63715" lon="12.36161">
        <ele>1816.07</ele>
        <time>2019-02-28T09:51:31Z</time>
      </trkpt>
      <trkpt lat="46.6371" lon="12.36169">
        <ele>1818.47</ele>
        <time>2019-02-28T09:51:47Z</time>
      </trkpt>
      <trkpt lat="46.63709" lon="12.36175">
        <ele>1819.43</ele>
        <time>2019-02-28T09:52:02Z</time>
      </trkpt>
      <trkpt lat="46.63704" lon="12.36175">
        <ele>1821.35</ele>
        <time>2019-02-28T09:52:17Z</time>
      </trkpt>
      <trkpt lat="46.637" lon="12.36179">
        <ele>1823.28</ele>
        <time>2019-02-28T09:52:30Z</time>
      </trkpt>
      <trkpt lat="46.63694" lon="12.36178">
        <ele>1823.28</ele>
        <time>2019-02-28T09:52:45Z</time>
      </trkpt>
      <trkpt lat="46.63689" lon="12.36178">
        <ele>1824.24</ele>
        <time>2019-02-28T09:52:58Z</time>
      </trkpt>
      <trkpt lat="46.63684" lon="12.36176">
        <ele>1826.16</ele>
        <time>2019-02-28T09:53:14Z</time>
      </trkpt>
      <trkpt lat="46.6368" lon="12.36176">
        <ele>1828.56</ele>
        <time>2019-02-28T09:53:30Z</time>
      </trkpt>
      <trkpt lat="46.63676" lon="12.36178">
        <ele>1830.01</ele>
        <time>2019-02-28T09:53:43Z</time>
      </trkpt>
      <trkpt lat="46.63673" lon="12.36178">
        <ele>1831.45</ele>
        <time>2019-02-28T09:53:54Z</time>
      </trkpt>
      <trkpt lat="46.63669" lon="12.36182">
        <ele>1832.41</ele>
        <time>2019-02-28T09:54:07Z</time>
      </trkpt>
      <trkpt lat="46.63672" lon="12.3619">
        <ele>1834.33</ele>
        <time>2019-02-28T09:54:21Z</time>
      </trkpt>
      <trkpt lat="46.63669" lon="12.36189">
        <ele>1836.74</ele>
        <time>2019-02-28T09:54:31Z</time>
      </trkpt>
      <trkpt lat="46.63663" lon="12.36188">
        <ele>1837.22</ele>
        <time>2019-02-28T09:54:47Z</time>
      </trkpt>
      <trkpt lat="46.6366" lon="12.36187">
        <ele>1837.7</ele>
        <time>2019-02-28T09:55:02Z</time>
      </trkpt>
      <trkpt lat="46.63656" lon="12.36188">
        <ele>1838.66</ele>
        <time>2019-02-28T09:55:15Z</time>
      </trkpt>
      <trkpt lat="46.63649" lon="12.36194">
        <ele>1840.1</ele>
        <time>2019-02-28T09:55:29Z</time>
      </trkpt>
      <trkpt lat="46.63644" lon="12.36196">
        <ele>1841.06</ele>
        <time>2019-02-28T09:55:43Z</time>
      </trkpt>
      <trkpt lat="46.63638" lon="12.36202">
        <ele>1842.5</ele>
        <time>2019-02-28T09:55:59Z</time>
      </trkpt>
      <trkpt lat="46.63633" lon="12.36207">
        <ele>1843.95</ele>
        <time>2019-02-28T09:56:13Z</time>
      </trkpt>
      <trkpt lat="46.63629" lon="12.36214">
        <ele>1845.39</ele>
        <time>2019-02-28T09:56:28Z</time>
      </trkpt>
      <trkpt lat="46.63628" lon="12.36217">
        <ele>1847.31</ele>
        <time>2019-02-28T09:56:32Z</time>
      </trkpt>
      <trkpt lat="46.63628" lon="12.36217">
        <ele>1845.87</ele>
        <time>2019-02-28T09:56:33Z</time>
      </trkpt>
      <trkpt lat="46.63623" lon="12.36219">
        <ele>1847.79</ele>
        <time>2019-02-28T09:56:48Z</time>
      </trkpt>
      <trkpt lat="46.63618" lon="12.36225">
        <ele>1848.75</ele>
        <time>2019-02-28T09:57:02Z</time>
      </trkpt>
      <trkpt lat="46.63617" lon="12.36235">
        <ele>1850.19</ele>
        <time>2019-02-28T09:57:15Z</time>
      </trkpt>
      <trkpt lat="46.63618" lon="12.36241">
        <ele>1851.64</ele>
        <time>2019-02-28T09:57:29Z</time>
      </trkpt>
      <trkpt lat="46.63614" lon="12.3625">
        <ele>1853.08</ele>
        <time>2019-02-28T09:57:41Z</time>
      </trkpt>
      <trkpt lat="46.63606" lon="12.36252">
        <ele>1854.52</ele>
        <time>2019-02-28T09:57:57Z</time>
      </trkpt>
      <trkpt lat="46.636" lon="12.36256">
        <ele>1855</ele>
        <time>2019-02-28T09:58:09Z</time>
      </trkpt>
      <trkpt lat="46.63592" lon="12.36259">
        <ele>1855.96</ele>
        <time>2019-02-28T09:58:19Z</time>
      </trkpt>
      <trkpt lat="46.63584" lon="12.36261">
        <ele>1857.89</ele>
        <time>2019-02-28T09:58:33Z</time>
      </trkpt>
      <trkpt lat="46.63575" lon="12.36264">
        <ele>1857.89</ele>
        <time>2019-02-28T09:58:49Z</time>
      </trkpt>
      <trkpt lat="46.63568" lon="12.36266">
        <ele>1859.33</ele>
        <time>2019-02-28T09:59:07Z</time>
      </trkpt>
      <trkpt lat="46.63559" lon="12.36268">
        <ele>1861.73</ele>
        <time>2019-02-28T09:59:23Z</time>
      </trkpt>
      <trkpt lat="46.63548" lon="12.3627">
        <ele>1862.69</ele>
        <time>2019-02-28T09:59:38Z</time>
      </trkpt>
      <trkpt lat="46.63543" lon="12.36271">
        <ele>1864.61</ele>
        <time>2019-02-28T09:59:52Z</time>
      </trkpt>
      <trkpt lat="46.63538" lon="12.3627">
        <ele>1866.06</ele>
        <time>2019-02-28T10:00:05Z</time>
      </trkpt>
      <trkpt lat="46.63532" lon="12.36269">
        <ele>1867.98</ele>
        <time>2019-02-28T10:00:19Z</time>
      </trkpt>
      <trkpt lat="46.63526" lon="12.36269">
        <ele>1870.38</ele>
        <time>2019-02-28T10:00:34Z</time>
      </trkpt>
      <trkpt lat="46.63518" lon="12.36267">
        <ele>1870.86</ele>
        <time>2019-02-28T10:00:51Z</time>
      </trkpt>
      <trkpt lat="46.63525" lon="12.36266">
        <ele>1871.82</ele>
        <time>2019-02-28T10:01:05Z</time>
      </trkpt>
      <trkpt lat="46.63527" lon="12.36269">
        <ele>1873.27</ele>
        <time>2019-02-28T10:01:19Z</time>
      </trkpt>
      <trkpt lat="46.63521" lon="12.36264">
        <ele>1875.19</ele>
        <time>2019-02-28T10:01:35Z</time>
      </trkpt>
      <trkpt lat="46.63518" lon="12.36269">
        <ele>1876.63</ele>
        <time>2019-02-28T10:01:51Z</time>
      </trkpt>
      <trkpt lat="46.63518" lon="12.36276">
        <ele>1878.07</ele>
        <time>2019-02-28T10:02:03Z</time>
      </trkpt>
      <trkpt lat="46.63513" lon="12.36274">
        <ele>1879.51</ele>
        <time>2019-02-28T10:02:17Z</time>
      </trkpt>
      <trkpt lat="46.63508" lon="12.36276">
        <ele>1880.96</ele>
        <time>2019-02-28T10:02:31Z</time>
      </trkpt>
      <trkpt lat="46.63507" lon="12.36279">
        <ele>1881.92</ele>
        <time>2019-02-28T10:02:48Z</time>
      </trkpt>
      <trkpt lat="46.63504" lon="12.3628">
        <ele>1882.4</ele>
        <time>2019-02-28T10:03:06Z</time>
      </trkpt>
      <trkpt lat="46.63497" lon="12.36278">
        <ele>1882.4</ele>
        <time>2019-02-28T10:03:22Z</time>
      </trkpt>
      <trkpt lat="46.6349" lon="12.36278">
        <ele>1882.88</ele>
        <time>2019-02-28T10:03:40Z</time>
      </trkpt>
      <trkpt lat="46.63482" lon="12.36277">
        <ele>1883.36</ele>
        <time>2019-02-28T10:03:56Z</time>
      </trkpt>
      <trkpt lat="46.6348" lon="12.36277">
        <ele>1883.84</ele>
        <time>2019-02-28T10:04:13Z</time>
      </trkpt>
      <trkpt lat="46.6348" lon="12.36282">
        <ele>1882.88</ele>
        <time>2019-02-28T10:04:27Z</time>
      </trkpt>
      <trkpt lat="46.63481" lon="12.3628">
        <ele>1882.88</ele>
        <time>2019-02-28T10:04:47Z</time>
      </trkpt>
      <trkpt lat="46.63484" lon="12.36282">
        <ele>1883.36</ele>
        <time>2019-02-28T10:05:18Z</time>
      </trkpt>
      <trkpt lat="46.63483" lon="12.3628">
        <ele>1883.84</ele>
        <time>2019-02-28T10:05:59Z</time>
      </trkpt>
      <trkpt lat="46.63482" lon="12.36273">
        <ele>1884.32</ele>
        <time>2019-02-28T10:06:36Z</time>
      </trkpt>
      <trkpt lat="46.63485" lon="12.36272">
        <ele>1884.32</ele>
        <time>2019-02-28T10:07:24Z</time>
      </trkpt>
      <trkpt lat="46.63485" lon="12.36276">
        <ele>1884.32</ele>
        <time>2019-02-28T10:08:00Z</time>
      </trkpt>
      <trkpt lat="46.63483" lon="12.36276">
        <ele>1885.76</ele>
        <time>2019-02-28T10:08:35Z</time>
      </trkpt>
      <trkpt lat="46.63483" lon="12.36276">
        <ele>1884.32</ele>
        <time>2019-02-28T10:08:38Z</time>
      </trkpt>
      <trkpt lat="46.63482" lon="12.36273">
        <ele>1884.32</ele>
        <time>2019-02-28T10:09:16Z</time>
      </trkpt>
      <trkpt lat="46.6348" lon="12.3627">
        <ele>1884.32</ele>
        <time>2019-02-28T10:09:54Z</time>
      </trkpt>
      <trkpt lat="46.63482" lon="12.36274">
        <ele>1884.32</ele>
        <time>2019-02-28T10:10:37Z</time>
      </trkpt>
      <trkpt lat="46.63484" lon="12.36277">
        <ele>1884.8</ele>
        <time>2019-02-28T10:11:17Z</time>
      </trkpt>
      <trkpt lat="46.63482" lon="12.36273">
        <ele>1885.28</ele>
        <time>2019-02-28T10:11:40Z</time>
      </trkpt>
      <trkpt lat="46.63474" lon="12.36269">
        <ele>1884.32</ele>
        <time>2019-02-28T10:11:54Z</time>
      </trkpt>
      <trkpt lat="46.63465" lon="12.36269">
        <ele>1885.28</ele>
        <time>2019-02-28T10:12:11Z</time>
      </trkpt>
      <trkpt lat="46.63453" lon="12.36271">
        <ele>1886.24</ele>
        <time>2019-02-28T10:12:28Z</time>
      </trkpt>
      <trkpt lat="46.63441" lon="12.36265">
        <ele>1887.21</ele>
        <time>2019-02-28T10:12:45Z</time>
      </trkpt>
      <trkpt lat="46.63429" lon="12.36266">
        <ele>1889.13</ele>
        <time>2019-02-28T10:13:05Z</time>
      </trkpt>
      <trkpt lat="46.63422" lon="12.36263">
        <ele>1891.05</ele>
        <time>2019-02-28T10:13:24Z</time>
      </trkpt>
      <trkpt lat="46.63418" lon="12.36262">
        <ele>1892.49</ele>
        <time>2019-02-28T10:13:43Z</time>
      </trkpt>
      <trkpt lat="46.63409" lon="12.36265">
        <ele>1893.93</ele>
        <time>2019-02-28T10:13:59Z</time>
      </trkpt>
      <trkpt lat="46.63402" lon="12.36273">
        <ele>1895.38</ele>
        <time>2019-02-28T10:14:16Z</time>
      </trkpt>
      <trkpt lat="46.63397" lon="12.36279">
        <ele>1895.86</ele>
        <time>2019-02-28T10:14:26Z</time>
      </trkpt>
      <trkpt lat="46.63388" lon="12.36282">
        <ele>1897.3</ele>
        <time>2019-02-28T10:14:40Z</time>
      </trkpt>
      <trkpt lat="46.6338" lon="12.36288">
        <ele>1898.74</ele>
        <time>2019-02-28T10:14:58Z</time>
      </trkpt>
      <trkpt lat="46.63373" lon="12.36292">
        <ele>1900.18</ele>
        <time>2019-02-28T10:15:13Z</time>
      </trkpt>
      <trkpt lat="46.63362" lon="12.36294">
        <ele>1902.11</ele>
        <time>2019-02-28T10:15:30Z</time>
      </trkpt>
      <trkpt lat="46.63358" lon="12.36307">
        <ele>1902.59</ele>
        <time>2019-02-28T10:15:43Z</time>
      </trkpt>
      <trkpt lat="46.63354" lon="12.36309">
        <ele>1903.55</ele>
        <time>2019-02-28T10:15:59Z</time>
      </trkpt>
      <trkpt lat="46.63353" lon="12.36315">
        <ele>1904.03</ele>
        <time>2019-02-28T10:16:13Z</time>
      </trkpt>
      <trkpt lat="46.63347" lon="12.36319">
        <ele>1905.95</ele>
        <time>2019-02-28T10:16:32Z</time>
      </trkpt>
      <trkpt lat="46.63338" lon="12.36322">
        <ele>1905.95</ele>
        <time>2019-02-28T10:16:45Z</time>
      </trkpt>
      <trkpt lat="46.63327" lon="12.36322">
        <ele>1907.39</ele>
        <time>2019-02-28T10:17:02Z</time>
      </trkpt>
      <trkpt lat="46.63319" lon="12.36325">
        <ele>1908.83</ele>
        <time>2019-02-28T10:17:16Z</time>
      </trkpt>
      <trkpt lat="46.63315" lon="12.36325">
        <ele>1909.32</ele>
        <time>2019-02-28T10:17:33Z</time>
      </trkpt>
      <trkpt lat="46.63306" lon="12.36321">
        <ele>1910.76</ele>
        <time>2019-02-28T10:17:46Z</time>
      </trkpt>
      <trkpt lat="46.63295" lon="12.36313">
        <ele>1910.76</ele>
        <time>2019-02-28T10:18:03Z</time>
      </trkpt>
      <trkpt lat="46.63286" lon="12.36312">
        <ele>1913.16</ele>
        <time>2019-02-28T10:18:22Z</time>
      </trkpt>
      <trkpt lat="46.63275" lon="12.36309">
        <ele>1913.64</ele>
        <time>2019-02-28T10:18:39Z</time>
      </trkpt>
      <trkpt lat="46.63266" lon="12.36308">
        <ele>1915.56</ele>
        <time>2019-02-28T10:18:52Z</time>
      </trkpt>
      <trkpt lat="46.63263" lon="12.36306">
        <ele>1917.49</ele>
        <time>2019-02-28T10:18:59Z</time>
      </trkpt>
      <trkpt lat="46.63256" lon="12.36304">
        <ele>1917.49</ele>
        <time>2019-02-28T10:19:17Z</time>
      </trkpt>
      <trkpt lat="46.63246" lon="12.36304">
        <ele>1918.45</ele>
        <time>2019-02-28T10:19:31Z</time>
      </trkpt>
      <trkpt lat="46.63238" lon="12.36301">
        <ele>1919.41</ele>
        <time>2019-02-28T10:19:44Z</time>
      </trkpt>
      <trkpt lat="46.63233" lon="12.363">
        <ele>1918.93</ele>
        <time>2019-02-28T10:19:51Z</time>
      </trkpt>
      <trkpt lat="46.63223" lon="12.363">
        <ele>1919.89</ele>
        <time>2019-02-28T10:20:06Z</time>
      </trkpt>
      <trkpt lat="46.63213" lon="12.36303">
        <ele>1920.37</ele>
        <time>2019-02-28T10:20:21Z</time>
      </trkpt>
      <trkpt lat="46.63204" lon="12.36303">
        <ele>1921.33</ele>
        <time>2019-02-28T10:20:36Z</time>
      </trkpt>
      <trkpt lat="46.63198" lon="12.36295">
        <ele>1922.77</ele>
        <time>2019-02-28T10:20:53Z</time>
      </trkpt>
      <trkpt lat="46.63194" lon="12.36287">
        <ele>1925.18</ele>
        <time>2019-02-28T10:21:09Z</time>
      </trkpt>
      <trkpt lat="46.63186" lon="12.36279">
        <ele>1926.62</ele>
        <time>2019-02-28T10:21:24Z</time>
      </trkpt>
      <trkpt lat="46.63179" lon="12.36277">
        <ele>1928.06</ele>
        <time>2019-02-28T10:21:39Z</time>
      </trkpt>
      <trkpt lat="46.63169" lon="12.36279">
        <ele>1929.02</ele>
        <time>2019-02-28T10:21:55Z</time>
      </trkpt>
      <trkpt lat="46.63162" lon="12.36276">
        <ele>1930.95</ele>
        <time>2019-02-28T10:22:10Z</time>
      </trkpt>
      <trkpt lat="46.63155" lon="12.36271">
        <ele>1931.91</ele>
        <time>2019-02-28T10:22:24Z</time>
      </trkpt>
      <trkpt lat="46.63151" lon="12.36263">
        <ele>1933.35</ele>
        <time>2019-02-28T10:22:39Z</time>
      </trkpt>
      <trkpt lat="46.63146" lon="12.36255">
        <ele>1935.27</ele>
        <time>2019-02-28T10:22:57Z</time>
      </trkpt>
      <trkpt lat="46.6314" lon="12.36246">
        <ele>1937.19</ele>
        <time>2019-02-28T10:23:14Z</time>
      </trkpt>
      <trkpt lat="46.63133" lon="12.36237">
        <ele>1938.64</ele>
        <time>2019-02-28T10:23:32Z</time>
      </trkpt>
      <trkpt lat="46.63127" lon="12.36231">
        <ele>1940.08</ele>
        <time>2019-02-28T10:23:50Z</time>
      </trkpt>
      <trkpt lat="46.63121" lon="12.36221">
        <ele>1941.04</ele>
        <time>2019-02-28T10:24:05Z</time>
      </trkpt>
      <trkpt lat="46.63117" lon="12.36212">
        <ele>1942.96</ele>
        <time>2019-02-28T10:24:22Z</time>
      </trkpt>
      <trkpt lat="46.63112" lon="12.36206">
        <ele>1945.36</ele>
        <time>2019-02-28T10:24:37Z</time>
      </trkpt>
      <trkpt lat="46.63108" lon="12.36197">
        <ele>1945.85</ele>
        <time>2019-02-28T10:24:53Z</time>
      </trkpt>
      <trkpt lat="46.63102" lon="12.3619">
        <ele>1947.77</ele>
        <time>2019-02-28T10:25:10Z</time>
      </trkpt>
      <trkpt lat="46.63095" lon="12.36184">
        <ele>1949.69</ele>
        <time>2019-02-28T10:25:28Z</time>
      </trkpt>
      <trkpt lat="46.6309" lon="12.36177">
        <ele>1951.61</ele>
        <time>2019-02-28T10:25:45Z</time>
      </trkpt>
      <trkpt lat="46.63086" lon="12.36172">
        <ele>1953.06</ele>
        <time>2019-02-28T10:26:00Z</time>
      </trkpt>
      <trkpt lat="46.63081" lon="12.36163">
        <ele>1954.5</ele>
        <time>2019-02-28T10:26:16Z</time>
      </trkpt>
      <trkpt lat="46.63076" lon="12.36157">
        <ele>1955.94</ele>
        <time>2019-02-28T10:26:31Z</time>
      </trkpt>
      <trkpt lat="46.63072" lon="12.36149">
        <ele>1957.86</ele>
        <time>2019-02-28T10:26:48Z</time>
      </trkpt>
      <trkpt lat="46.63071" lon="12.36146">
        <ele>1959.3</ele>
        <time>2019-02-28T10:27:08Z</time>
      </trkpt>
      <trkpt lat="46.63068" lon="12.36155">
        <ele>1960.75</ele>
        <time>2019-02-28T10:27:23Z</time>
      </trkpt>
      <trkpt lat="46.63063" lon="12.36166">
        <ele>1961.71</ele>
        <time>2019-02-28T10:27:40Z</time>
      </trkpt>
      <trkpt lat="46.63061" lon="12.36176">
        <ele>1963.15</ele>
        <time>2019-02-28T10:27:54Z</time>
      </trkpt>
      <trkpt lat="46.63055" lon="12.36182">
        <ele>1964.59</ele>
        <time>2019-02-28T10:28:07Z</time>
      </trkpt>
      <trkpt lat="46.63049" lon="12.36192">
        <ele>1965.55</ele>
        <time>2019-02-28T10:28:20Z</time>
      </trkpt>
      <trkpt lat="46.63045" lon="12.36193">
        <ele>1966.99</ele>
        <time>2019-02-28T10:28:34Z</time>
      </trkpt>
      <trkpt lat="46.6303" lon="12.36189">
        <ele>1968.44</ele>
        <time>2019-02-28T10:28:51Z</time>
      </trkpt>
      <trkpt lat="46.63023" lon="12.36187">
        <ele>1969.88</ele>
        <time>2019-02-28T10:29:07Z</time>
      </trkpt>
      <trkpt lat="46.63021" lon="12.36185">
        <ele>1972.76</ele>
        <time>2019-02-28T10:29:22Z</time>
      </trkpt>
      <trkpt lat="46.63013" lon="12.36187">
        <ele>1974.2</ele>
        <time>2019-02-28T10:29:39Z</time>
      </trkpt>
      <trkpt lat="46.63006" lon="12.36178">
        <ele>1976.13</ele>
        <time>2019-02-28T10:29:56Z</time>
      </trkpt>
      <trkpt lat="46.63001" lon="12.36179">
        <ele>1977.57</ele>
        <time>2019-02-28T10:30:11Z</time>
      </trkpt>
      <trkpt lat="46.62998" lon="12.36179">
        <ele>1978.53</ele>
        <time>2019-02-28T10:30:26Z</time>
      </trkpt>
      <trkpt lat="46.62989" lon="12.36188">
        <ele>1979.49</ele>
        <time>2019-02-28T10:30:44Z</time>
      </trkpt>
      <trkpt lat="46.62991" lon="12.36185">
        <ele>1981.41</ele>
        <time>2019-02-28T10:30:59Z</time>
      </trkpt>
      <trkpt lat="46.62988" lon="12.36182">
        <ele>1983.34</ele>
        <time>2019-02-28T10:31:17Z</time>
      </trkpt>
      <trkpt lat="46.62992" lon="12.36176">
        <ele>1984.78</ele>
        <time>2019-02-28T10:31:33Z</time>
      </trkpt>
      <trkpt lat="46.62988" lon="12.36173">
        <ele>1985.26</ele>
        <time>2019-02-28T10:31:49Z</time>
      </trkpt>
      <trkpt lat="46.62983" lon="12.36169">
        <ele>1987.18</ele>
        <time>2019-02-28T10:32:03Z</time>
      </trkpt>
      <trkpt lat="46.6298" lon="12.36163">
        <ele>1988.62</ele>
        <time>2019-02-28T10:32:17Z</time>
      </trkpt>
      <trkpt lat="46.62975" lon="12.3616">
        <ele>1990.55</ele>
        <time>2019-02-28T10:32:31Z</time>
      </trkpt>
      <trkpt lat="46.62975" lon="12.36156">
        <ele>1991.99</ele>
        <time>2019-02-28T10:32:46Z</time>
      </trkpt>
      <trkpt lat="46.62972" lon="12.36163">
        <ele>1992.95</ele>
        <time>2019-02-28T10:33:00Z</time>
      </trkpt>
      <trkpt lat="46.62965" lon="12.3616">
        <ele>1994.87</ele>
        <time>2019-02-28T10:33:15Z</time>
      </trkpt>
      <trkpt lat="46.62954" lon="12.3616">
        <ele>1996.32</ele>
        <time>2019-02-28T10:33:35Z</time>
      </trkpt>
      <trkpt lat="46.62945" lon="12.36158">
        <ele>1997.28</ele>
        <time>2019-02-28T10:33:54Z</time>
      </trkpt>
      <trkpt lat="46.62938" lon="12.36159">
        <ele>1998.72</ele>
        <time>2019-02-28T10:34:09Z</time>
      </trkpt>
      <trkpt lat="46.62935" lon="12.36145">
        <ele>2000.64</ele>
        <time>2019-02-28T10:34:26Z</time>
      </trkpt>
      <trkpt lat="46.62932" lon="12.36142">
        <ele>2003.52</ele>
        <time>2019-02-28T10:34:41Z</time>
      </trkpt>
      <trkpt lat="46.62931" lon="12.36145">
        <ele>2003.52</ele>
        <time>2019-02-28T10:34:56Z</time>
      </trkpt>
      <trkpt lat="46.62928" lon="12.36145">
        <ele>2005.45</ele>
        <time>2019-02-28T10:35:11Z</time>
      </trkpt>
      <trkpt lat="46.62919" lon="12.36152">
        <ele>2006.41</ele>
        <time>2019-02-28T10:35:29Z</time>
      </trkpt>
      <trkpt lat="46.62916" lon="12.36152">
        <ele>2008.33</ele>
        <time>2019-02-28T10:35:47Z</time>
      </trkpt>
      <trkpt lat="46.62914" lon="12.36142">
        <ele>2010.25</ele>
        <time>2019-02-28T10:36:02Z</time>
      </trkpt>
      <trkpt lat="46.62911" lon="12.36148">
        <ele>2011.7</ele>
        <time>2019-02-28T10:36:17Z</time>
      </trkpt>
      <trkpt lat="46.62907" lon="12.36141">
        <ele>2013.62</ele>
        <time>2019-02-28T10:36:33Z</time>
      </trkpt>
      <trkpt lat="46.62905" lon="12.36137">
        <ele>2015.54</ele>
        <time>2019-02-28T10:36:52Z</time>
      </trkpt>
      <trkpt lat="46.62904" lon="12.36148">
        <ele>2016.98</ele>
        <time>2019-02-28T10:37:05Z</time>
      </trkpt>
      <trkpt lat="46.62899" lon="12.36155">
        <ele>2018.43</ele>
        <time>2019-02-28T10:37:22Z</time>
      </trkpt>
      <trkpt lat="46.62905" lon="12.36149">
        <ele>2019.87</ele>
        <time>2019-02-28T10:37:40Z</time>
      </trkpt>
      <trkpt lat="46.62906" lon="12.3615">
        <ele>2020.35</ele>
        <time>2019-02-28T10:37:42Z</time>
      </trkpt>
      <trkpt lat="46.62907" lon="12.36149">
        <ele>2020.35</ele>
        <time>2019-02-28T10:37:44Z</time>
      </trkpt>
      <trkpt lat="46.62908" lon="12.36144">
        <ele>2021.79</ele>
        <time>2019-02-28T10:37:59Z</time>
      </trkpt>
      <trkpt lat="46.62908" lon="12.36138">
        <ele>2022.75</ele>
        <time>2019-02-28T10:38:15Z</time>
      </trkpt>
      <trkpt lat="46.62911" lon="12.36134">
        <ele>2024.67</ele>
        <time>2019-02-28T10:38:30Z</time>
      </trkpt>
      <trkpt lat="46.62906" lon="12.36133">
        <ele>2027.56</ele>
        <time>2019-02-28T10:38:43Z</time>
      </trkpt>
      <trkpt lat="46.62897" lon="12.36132">
        <ele>2026.12</ele>
        <time>2019-02-28T10:39:02Z</time>
      </trkpt>
      <trkpt lat="46.62892" lon="12.36136">
        <ele>2027.08</ele>
        <time>2019-02-28T10:39:15Z</time>
      </trkpt>
      <trkpt lat="46.62887" lon="12.36141">
        <ele>2028.52</ele>
        <time>2019-02-28T10:39:29Z</time>
      </trkpt>
      <trkpt lat="46.62883" lon="12.36144">
        <ele>2029.96</ele>
        <time>2019-02-28T10:39:41Z</time>
      </trkpt>
      <trkpt lat="46.62879" lon="12.36149">
        <ele>2031.88</ele>
        <time>2019-02-28T10:39:54Z</time>
      </trkpt>
      <trkpt lat="46.62881" lon="12.36143">
        <ele>2033.81</ele>
        <time>2019-02-28T10:40:10Z</time>
      </trkpt>
      <trkpt lat="46.62879" lon="12.36136">
        <ele>2034.77</ele>
        <time>2019-02-28T10:40:26Z</time>
      </trkpt>
      <trkpt lat="46.62877" lon="12.36131">
        <ele>2035.73</ele>
        <time>2019-02-28T10:40:39Z</time>
      </trkpt>
      <trkpt lat="46.62878" lon="12.3613">
        <ele>2037.65</ele>
        <time>2019-02-28T10:40:44Z</time>
      </trkpt>
      <trkpt lat="46.62868" lon="12.36126">
        <ele>2037.17</ele>
        <time>2019-02-28T10:41:00Z</time>
      </trkpt>
      <trkpt lat="46.62862" lon="12.3613">
        <ele>2038.13</ele>
        <time>2019-02-28T10:41:14Z</time>
      </trkpt>
      <trkpt lat="46.62864" lon="12.36137">
        <ele>2039.57</ele>
        <time>2019-02-28T10:41:26Z</time>
      </trkpt>
      <trkpt lat="46.62867" lon="12.36145">
        <ele>2041.02</ele>
        <time>2019-02-28T10:41:38Z</time>
      </trkpt>
      <trkpt lat="46.62869" lon="12.36135">
        <ele>2043.42</ele>
        <time>2019-02-28T10:41:53Z</time>
      </trkpt>
      <trkpt lat="46.62869" lon="12.36129">
        <ele>2043.9</ele>
        <time>2019-02-28T10:42:10Z</time>
      </trkpt>
      <trkpt lat="46.62867" lon="12.36127">
        <ele>2044.86</ele>
        <time>2019-02-28T10:42:24Z</time>
      </trkpt>
      <trkpt lat="46.62868" lon="12.36125">
        <ele>2045.82</ele>
        <time>2019-02-28T10:42:40Z</time>
      </trkpt>
      <trkpt lat="46.62869" lon="12.36122">
        <ele>2047.26</ele>
        <time>2019-02-28T10:42:45Z</time>
      </trkpt>
      <trkpt lat="46.62867" lon="12.36114">
        <ele>2047.26</ele>
        <time>2019-02-28T10:43:00Z</time>
      </trkpt>
      <trkpt lat="46.62869" lon="12.36106">
        <ele>2048.71</ele>
        <time>2019-02-28T10:43:14Z</time>
      </trkpt>
      <trkpt lat="46.62871" lon="12.36101">
        <ele>2049.67</ele>
        <time>2019-02-28T10:43:28Z</time>
      </trkpt>
      <trkpt lat="46.6287" lon="12.36095">
        <ele>2052.07</ele>
        <time>2019-02-28T10:43:41Z</time>
      </trkpt>
      <trkpt lat="46.62865" lon="12.36088">
        <ele>2053.03</ele>
        <time>2019-02-28T10:43:57Z</time>
      </trkpt>
      <trkpt lat="46.62861" lon="12.36078">
        <ele>2054.47</ele>
        <time>2019-02-28T10:44:14Z</time>
      </trkpt>
      <trkpt lat="46.62857" lon="12.36069">
        <ele>2056.4</ele>
        <time>2019-02-28T10:44:34Z</time>
      </trkpt>
      <trkpt lat="46.62851" lon="12.36062">
        <ele>2057.36</ele>
        <time>2019-02-28T10:44:52Z</time>
      </trkpt>
      <trkpt lat="46.62846" lon="12.36057">
        <ele>2059.76</ele>
        <time>2019-02-28T10:45:11Z</time>
      </trkpt>
      <trkpt lat="46.62842" lon="12.36056">
        <ele>2061.2</ele>
        <time>2019-02-28T10:45:28Z</time>
      </trkpt>
      <trkpt lat="46.62837" lon="12.3606">
        <ele>2063.61</ele>
        <time>2019-02-28T10:45:51Z</time>
      </trkpt>
      <trkpt lat="46.62839" lon="12.36056">
        <ele>2065.05</ele>
        <time>2019-02-28T10:46:08Z</time>
      </trkpt>
      <trkpt lat="46.62833" lon="12.36049">
        <ele>2066.49</ele>
        <time>2019-02-28T10:46:24Z</time>
      </trkpt>
      <trkpt lat="46.62824" lon="12.36045">
        <ele>2068.89</ele>
        <time>2019-02-28T10:46:42Z</time>
      </trkpt>
      <trkpt lat="46.62822" lon="12.3604">
        <ele>2070.34</ele>
        <time>2019-02-28T10:46:58Z</time>
      </trkpt>
      <trkpt lat="46.62825" lon="12.36036">
        <ele>2072.74</ele>
        <time>2019-02-28T10:47:19Z</time>
      </trkpt>
      <trkpt lat="46.62822" lon="12.36034">
        <ele>2074.18</ele>
        <time>2019-02-28T10:47:36Z</time>
      </trkpt>
      <trkpt lat="46.62815" lon="12.36028">
        <ele>2075.62</ele>
        <time>2019-02-28T10:47:53Z</time>
      </trkpt>
      <trkpt lat="46.62817" lon="12.36025">
        <ele>2077.07</ele>
        <time>2019-02-28T10:48:08Z</time>
      </trkpt>
      <trkpt lat="46.62817" lon="12.3602">
        <ele>2079.47</ele>
        <time>2019-02-28T10:48:29Z</time>
      </trkpt>
      <trkpt lat="46.62811" lon="12.36014">
        <ele>2082.83</ele>
        <time>2019-02-28T10:48:47Z</time>
      </trkpt>
      <trkpt lat="46.62811" lon="12.36015">
        <ele>2082.83</ele>
        <time>2019-02-28T10:48:48Z</time>
      </trkpt>
      <trkpt lat="46.6281" lon="12.36017">
        <ele>2083.31</ele>
        <time>2019-02-28T10:49:04Z</time>
      </trkpt>
      <trkpt lat="46.62804" lon="12.36012">
        <ele>2084.28</ele>
        <time>2019-02-28T10:49:18Z</time>
      </trkpt>
      <trkpt lat="46.62796" lon="12.36013">
        <ele>2086.68</ele>
        <time>2019-02-28T10:49:36Z</time>
      </trkpt>
      <trkpt lat="46.6279" lon="12.36015">
        <ele>2088.6</ele>
        <time>2019-02-28T10:49:48Z</time>
      </trkpt>
      <trkpt lat="46.62785" lon="12.36009">
        <ele>2090.04</ele>
        <time>2019-02-28T10:50:08Z</time>
      </trkpt>
      <trkpt lat="46.62761" lon="12.36013">
        <ele>2091.97</ele>
        <time>2019-02-28T10:50:25Z</time>
      </trkpt>
      <trkpt lat="46.62756" lon="12.36015">
        <ele>2093.41</ele>
        <time>2019-02-28T10:50:40Z</time>
      </trkpt>
      <trkpt lat="46.62753" lon="12.36014">
        <ele>2096.29</ele>
        <time>2019-02-28T10:50:49Z</time>
      </trkpt>
      <trkpt lat="46.62745" lon="12.36013">
        <ele>2096.77</ele>
        <time>2019-02-28T10:51:05Z</time>
      </trkpt>
      <trkpt lat="46.62736" lon="12.36011">
        <ele>2098.21</ele>
        <time>2019-02-28T10:51:19Z</time>
      </trkpt>
      <trkpt lat="46.6273" lon="12.36006">
        <ele>2099.66</ele>
        <time>2019-02-28T10:51:35Z</time>
      </trkpt>
      <trkpt lat="46.62727" lon="12.35997">
        <ele>2100.62</ele>
        <time>2019-02-28T10:51:50Z</time>
      </trkpt>
      <trkpt lat="46.6272" lon="12.35997">
        <ele>2102.54</ele>
        <time>2019-02-28T10:52:07Z</time>
      </trkpt>
      <trkpt lat="46.62711" lon="12.3599">
        <ele>2104.46</ele>
        <time>2019-02-28T10:52:24Z</time>
      </trkpt>
      <trkpt lat="46.627" lon="12.35991">
        <ele>2106.87</ele>
        <time>2019-02-28T10:52:40Z</time>
      </trkpt>
      <trkpt lat="46.62693" lon="12.35991">
        <ele>2109.27</ele>
        <time>2019-02-28T10:52:50Z</time>
      </trkpt>
      <trkpt lat="46.62686" lon="12.35991">
        <ele>2109.27</ele>
        <time>2019-02-28T10:53:05Z</time>
      </trkpt>
      <trkpt lat="46.62683" lon="12.35997">
        <ele>2110.23</ele>
        <time>2019-02-28T10:53:22Z</time>
      </trkpt>
      <trkpt lat="46.62678" lon="12.36002">
        <ele>2111.67</ele>
        <time>2019-02-28T10:53:35Z</time>
      </trkpt>
      <trkpt lat="46.6267" lon="12.35999">
        <ele>2113.6</ele>
        <time>2019-02-28T10:53:51Z</time>
      </trkpt>
      <trkpt lat="46.62652" lon="12.3599">
        <ele>2114.56</ele>
        <time>2019-02-28T10:54:08Z</time>
      </trkpt>
      <trkpt lat="46.62649" lon="12.35987">
        <ele>2116.48</ele>
        <time>2019-02-28T10:54:23Z</time>
      </trkpt>
      <trkpt lat="46.62643" lon="12.35979">
        <ele>2118.4</ele>
        <time>2019-02-28T10:54:41Z</time>
      </trkpt>
      <trkpt lat="46.62639" lon="12.35978">
        <ele>2118.4</ele>
        <time>2019-02-28T10:55:00Z</time>
      </trkpt>
      <trkpt lat="46.62644" lon="12.35981">
        <ele>2117.44</ele>
        <time>2019-02-28T10:55:19Z</time>
      </trkpt>
      <trkpt lat="46.62662" lon="12.35987">
        <ele>2117.44</ele>
        <time>2019-02-28T10:55:48Z</time>
      </trkpt>
      <trkpt lat="46.6266" lon="12.35985">
        <ele>2116.96</ele>
        <time>2019-02-28T10:56:15Z</time>
      </trkpt>
      <trkpt lat="46.62686" lon="12.35994">
        <ele>2116.96</ele>
        <time>2019-02-28T10:56:45Z</time>
      </trkpt>
      <trkpt lat="46.62695" lon="12.35998">
        <ele>2116.96</ele>
        <time>2019-02-28T10:57:13Z</time>
      </trkpt>
      <trkpt lat="46.62675" lon="12.35992">
        <ele>2117.44</ele>
        <time>2019-02-28T10:57:41Z</time>
      </trkpt>
      <trkpt lat="46.62681" lon="12.35989">
        <ele>2116.48</ele>
        <time>2019-02-28T10:58:20Z</time>
      </trkpt>
      <trkpt lat="46.62711" lon="12.3599">
        <ele>2116.48</ele>
        <time>2019-02-28T10:58:52Z</time>
      </trkpt>
      <trkpt lat="46.62714" lon="12.35991">
        <ele>2118.4</ele>
        <time>2019-02-28T10:58:54Z</time>
      </trkpt>
      <trkpt lat="46.62716" lon="12.35991">
        <ele>2116.96</ele>
        <time>2019-02-28T10:58:55Z</time>
      </trkpt>
      <trkpt lat="46.62711" lon="12.35988">
        <ele>2117.44</ele>
        <time>2019-02-28T10:59:30Z</time>
      </trkpt>
      <trkpt lat="46.62708" lon="12.35988">
        <ele>2119.84</ele>
        <time>2019-02-28T10:59:56Z</time>
      </trkpt>
      <trkpt lat="46.627" lon="12.35989">
        <ele>2119.84</ele>
        <time>2019-02-28T11:00:13Z</time>
      </trkpt>
      <trkpt lat="46.62693" lon="12.35982">
        <ele>2120.32</ele>
        <time>2019-02-28T11:00:31Z</time>
      </trkpt>
      <trkpt lat="46.62695" lon="12.3599">
        <ele>2121.77</ele>
        <time>2019-02-28T11:00:55Z</time>
      </trkpt>
      <trkpt lat="46.62695" lon="12.3599">
        <ele>2120.81</ele>
        <time>2019-02-28T11:00:56Z</time>
      </trkpt>
      <trkpt lat="46.62694" lon="12.35979">
        <ele>2121.77</ele>
        <time>2019-02-28T11:01:14Z</time>
      </trkpt>
      <trkpt lat="46.62688" lon="12.35983">
        <ele>2122.25</ele>
        <time>2019-02-28T11:01:34Z</time>
      </trkpt>
      <trkpt lat="46.62683" lon="12.35983">
        <ele>2123.69</ele>
        <time>2019-02-28T11:01:46Z</time>
      </trkpt>
      <trkpt lat="46.62674" lon="12.35976">
        <ele>2125.61</ele>
        <time>2019-02-28T11:02:04Z</time>
      </trkpt>
      <trkpt lat="46.62666" lon="12.35966">
        <ele>2127.53</ele>
        <time>2019-02-28T11:02:25Z</time>
      </trkpt>
      <trkpt lat="46.62664" lon="12.35963">
        <ele>2128.98</ele>
        <time>2019-02-28T11:02:43Z</time>
      </trkpt>
      <trkpt lat="46.62657" lon="12.35961">
        <ele>2130.9</ele>
        <time>2019-02-28T11:03:01Z</time>
      </trkpt>
      <trkpt lat="46.62651" lon="12.35962">
        <ele>2132.34</ele>
        <time>2019-02-28T11:03:19Z</time>
      </trkpt>
      <trkpt lat="46.62651" lon="12.35968">
        <ele>2134.26</ele>
        <time>2019-02-28T11:03:34Z</time>
      </trkpt>
      <trkpt lat="46.6264" lon="12.35963">
        <ele>2135.71</ele>
        <time>2019-02-28T11:03:50Z</time>
      </trkpt>
      <trkpt lat="46.62632" lon="12.35957">
        <ele>2137.15</ele>
        <time>2019-02-28T11:04:06Z</time>
      </trkpt>
      <trkpt lat="46.62629" lon="12.35954">
        <ele>2138.59</ele>
        <time>2019-02-28T11:04:23Z</time>
      </trkpt>
      <trkpt lat="46.62618" lon="12.35954">
        <ele>2139.55</ele>
        <time>2019-02-28T11:04:42Z</time>
      </trkpt>
      <trkpt lat="46.62617" lon="12.3594">
        <ele>2141.47</ele>
        <time>2019-02-28T11:05:01Z</time>
      </trkpt>
      <trkpt lat="46.62613" lon="12.35933">
        <ele>2142.92</ele>
        <time>2019-02-28T11:05:18Z</time>
      </trkpt>
      <trkpt lat="46.62611" lon="12.35926">
        <ele>2143.4</ele>
        <time>2019-02-28T11:05:33Z</time>
      </trkpt>
      <trkpt lat="46.62606" lon="12.35919">
        <ele>2145.8</ele>
        <time>2019-02-28T11:05:50Z</time>
      </trkpt>
      <trkpt lat="46.62604" lon="12.35912">
        <ele>2147.24</ele>
        <time>2019-02-28T11:06:04Z</time>
      </trkpt>
      <trkpt lat="46.62599" lon="12.35908">
        <ele>2149.16</ele>
        <time>2019-02-28T11:06:22Z</time>
      </trkpt>
      <trkpt lat="46.62598" lon="12.35903">
        <ele>2151.09</ele>
        <time>2019-02-28T11:06:39Z</time>
      </trkpt>
      <trkpt lat="46.62594" lon="12.359">
        <ele>2152.53</ele>
        <time>2019-02-28T11:06:54Z</time>
      </trkpt>
      <trkpt lat="46.62592" lon="12.359">
        <ele>2153.49</ele>
        <time>2019-02-28T11:07:07Z</time>
      </trkpt>
      <trkpt lat="46.62589" lon="12.359">
        <ele>2154.45</ele>
        <time>2019-02-28T11:07:23Z</time>
      </trkpt>
      <trkpt lat="46.62588" lon="12.35899">
        <ele>2155.41</ele>
        <time>2019-02-28T11:07:43Z</time>
      </trkpt>
      <trkpt lat="46.62593" lon="12.35894">
        <ele>2157.34</ele>
        <time>2019-02-28T11:07:56Z</time>
      </trkpt>
      <trkpt lat="46.62594" lon="12.35892">
        <ele>2158.78</ele>
        <time>2019-02-28T11:08:10Z</time>
      </trkpt>
      <trkpt lat="46.6259" lon="12.3589">
        <ele>2159.74</ele>
        <time>2019-02-28T11:08:32Z</time>
      </trkpt>
      <trkpt lat="46.62585" lon="12.35888">
        <ele>2161.18</ele>
        <time>2019-02-28T11:08:47Z</time>
      </trkpt>
      <trkpt lat="46.62583" lon="12.35888">
        <ele>2162.62</ele>
        <time>2019-02-28T11:09:00Z</time>
      </trkpt>
      <trkpt lat="46.6258" lon="12.35889">
        <ele>2163.58</ele>
        <time>2019-02-28T11:09:13Z</time>
      </trkpt>
      <trkpt lat="46.62583" lon="12.35883">
        <ele>2163.58</ele>
        <time>2019-02-28T11:09:33Z</time>
      </trkpt>
      <trkpt lat="46.62584" lon="12.35888">
        <ele>2163.58</ele>
        <time>2019-02-28T11:09:50Z</time>
      </trkpt>
      <trkpt lat="46.62585" lon="12.35889">
        <ele>2164.06</ele>
        <time>2019-02-28T11:10:17Z</time>
      </trkpt>
      <trkpt lat="46.62583" lon="12.35885">
        <ele>2165.03</ele>
        <time>2019-02-28T11:10:40Z</time>
      </trkpt>
      <trkpt lat="46.62589" lon="12.35884">
        <ele>2165.51</ele>
        <time>2019-02-28T11:11:04Z</time>
      </trkpt>
      <trkpt lat="46.62588" lon="12.35885">
        <ele>2165.51</ele>
        <time>2019-02-28T11:11:25Z</time>
      </trkpt>
      <trkpt lat="46.62582" lon="12.35882">
        <ele>2167.43</ele>
        <time>2019-02-28T11:11:38Z</time>
      </trkpt>
      <trkpt lat="46.62573" lon="12.35883">
        <ele>2169.83</ele>
        <time>2019-02-28T11:11:58Z</time>
      </trkpt>
      <trkpt lat="46.62567" lon="12.35871">
        <ele>2170.31</ele>
        <time>2019-02-28T11:12:19Z</time>
      </trkpt>
      <trkpt lat="46.62578" lon="12.35873">
        <ele>2172.24</ele>
        <time>2019-02-28T11:12:36Z</time>
      </trkpt>
      <trkpt lat="46.6258" lon="12.3587">
        <ele>2174.16</ele>
        <time>2019-02-28T11:12:51Z</time>
      </trkpt>
      <trkpt lat="46.62579" lon="12.35868">
        <ele>2174.64</ele>
        <time>2019-02-28T11:13:05Z</time>
      </trkpt>
      <trkpt lat="46.62573" lon="12.35866">
        <ele>2177.52</ele>
        <time>2019-02-28T11:13:22Z</time>
      </trkpt>
      <trkpt lat="46.62562" lon="12.35865">
        <ele>2178</ele>
        <time>2019-02-28T11:13:39Z</time>
      </trkpt>
      <trkpt lat="46.62556" lon="12.35865">
        <ele>2179.45</ele>
        <time>2019-02-28T11:13:53Z</time>
      </trkpt>
      <trkpt lat="46.62554" lon="12.35861">
        <ele>2180.89</ele>
        <time>2019-02-28T11:14:08Z</time>
      </trkpt>
      <trkpt lat="46.62548" lon="12.35859">
        <ele>2183.29</ele>
        <time>2019-02-28T11:14:26Z</time>
      </trkpt>
      <trkpt lat="46.62543" lon="12.35856">
        <ele>2184.25</ele>
        <time>2019-02-28T11:14:42Z</time>
      </trkpt>
      <trkpt lat="46.62538" lon="12.35853">
        <ele>2186.66</ele>
        <time>2019-02-28T11:15:01Z</time>
      </trkpt>
      <trkpt lat="46.62538" lon="12.35853">
        <ele>2188.1</ele>
        <time>2019-02-28T11:15:03Z</time>
      </trkpt>
      <trkpt lat="46.62537" lon="12.35847">
        <ele>2188.58</ele>
        <time>2019-02-28T11:15:24Z</time>
      </trkpt>
      <trkpt lat="46.6254" lon="12.35838">
        <ele>2190.5</ele>
        <time>2019-02-28T11:15:40Z</time>
      </trkpt>
      <trkpt lat="46.62546" lon="12.35824">
        <ele>2192.42</ele>
        <time>2019-02-28T11:15:55Z</time>
      </trkpt>
      <trkpt lat="46.6255" lon="12.35824">
        <ele>2193.87</ele>
        <time>2019-02-28T11:16:09Z</time>
      </trkpt>
      <trkpt lat="46.62554" lon="12.35822">
        <ele>2195.31</ele>
        <time>2019-02-28T11:16:23Z</time>
      </trkpt>
      <trkpt lat="46.62559" lon="12.35821">
        <ele>2197.23</ele>
        <time>2019-02-28T11:16:38Z</time>
      </trkpt>
      <trkpt lat="46.62563" lon="12.35818">
        <ele>2197.71</ele>
        <time>2019-02-28T11:16:52Z</time>
      </trkpt>
      <trkpt lat="46.62561" lon="12.3582">
        <ele>2197.23</ele>
        <time>2019-02-28T11:17:15Z</time>
      </trkpt>
      <trkpt lat="46.62565" lon="12.35815">
        <ele>2198.19</ele>
        <time>2019-02-28T11:17:36Z</time>
      </trkpt>
      <trkpt lat="46.62569" lon="12.3581">
        <ele>2199.63</ele>
        <time>2019-02-28T11:17:51Z</time>
      </trkpt>
      <trkpt lat="46.62575" lon="12.35798">
        <ele>2201.56</ele>
        <time>2019-02-28T11:18:08Z</time>
      </trkpt>
      <trkpt lat="46.6258" lon="12.35793">
        <ele>2203</ele>
        <time>2019-02-28T11:18:23Z</time>
      </trkpt>
      <trkpt lat="46.62586" lon="12.35786">
        <ele>2204.92</ele>
        <time>2019-02-28T11:18:39Z</time>
      </trkpt>
      <trkpt lat="46.62592" lon="12.35783">
        <ele>2206.36</ele>
        <time>2019-02-28T11:18:53Z</time>
      </trkpt>
      <trkpt lat="46.62597" lon="12.35776">
        <ele>2207.81</ele>
        <time>2019-02-28T11:19:09Z</time>
      </trkpt>
      <trkpt lat="46.62603" lon="12.35769">
        <ele>2208.77</ele>
        <time>2019-02-28T11:19:24Z</time>
      </trkpt>
      <trkpt lat="46.62608" lon="12.35761">
        <ele>2210.21</ele>
        <time>2019-02-28T11:19:38Z</time>
      </trkpt>
      <trkpt lat="46.62611" lon="12.35755">
        <ele>2211.17</ele>
        <time>2019-02-28T11:19:50Z</time>
      </trkpt>
      <trkpt lat="46.62614" lon="12.3575">
        <ele>2212.13</ele>
        <time>2019-02-28T11:20:02Z</time>
      </trkpt>
      <trkpt lat="46.62615" lon="12.35746">
        <ele>2213.57</ele>
        <time>2019-02-28T11:20:17Z</time>
      </trkpt>
      <trkpt lat="46.62616" lon="12.3574">
        <ele>2215.01</ele>
        <time>2019-02-28T11:20:29Z</time>
      </trkpt>
      <trkpt lat="46.62618" lon="12.35734">
        <ele>2215.5</ele>
        <time>2019-02-28T11:20:41Z</time>
      </trkpt>
      <trkpt lat="46.6262" lon="12.35729">
        <ele>2217.42</ele>
        <time>2019-02-28T11:20:53Z</time>
      </trkpt>
      <trkpt lat="46.62625" lon="12.35723">
        <ele>2219.34</ele>
        <time>2019-02-28T11:21:07Z</time>
      </trkpt>
      <trkpt lat="46.62626" lon="12.35722">
        <ele>2218.38</ele>
        <time>2019-02-28T11:21:12Z</time>
      </trkpt>
      <trkpt lat="46.62629" lon="12.35716">
        <ele>2219.82</ele>
        <time>2019-02-28T11:21:26Z</time>
      </trkpt>
      <trkpt lat="46.62632" lon="12.3571">
        <ele>2222.71</ele>
        <time>2019-02-28T11:21:37Z</time>
      </trkpt>
      <trkpt lat="46.62632" lon="12.3571">
        <ele>2222.71</ele>
        <time>2019-02-28T11:21:38Z</time>
      </trkpt>
      <trkpt lat="46.62637" lon="12.35708">
        <ele>2223.67</ele>
        <time>2019-02-28T11:21:51Z</time>
      </trkpt>
      <trkpt lat="46.62643" lon="12.35709">
        <ele>2224.15</ele>
        <time>2019-02-28T11:22:06Z</time>
      </trkpt>
      <trkpt lat="46.6265" lon="12.35709">
        <ele>2225.59</ele>
        <time>2019-02-28T11:22:21Z</time>
      </trkpt>
      <trkpt lat="46.62656" lon="12.35711">
        <ele>2226.07</ele>
        <time>2019-02-28T11:22:37Z</time>
      </trkpt>
      <trkpt lat="46.62661" lon="12.35711">
        <ele>2227.51</ele>
        <time>2019-02-28T11:22:51Z</time>
      </trkpt>
      <trkpt lat="46.62664" lon="12.35711">
        <ele>2228.47</ele>
        <time>2019-02-28T11:23:00Z</time>
      </trkpt>
      <trkpt lat="46.62664" lon="12.35713">
        <ele>2227.51</ele>
        <time>2019-02-28T11:23:34Z</time>
      </trkpt>
      <trkpt lat="46.62665" lon="12.35713">
        <ele>2227.51</ele>
        <time>2019-02-28T11:23:49Z</time>
      </trkpt>
      <trkpt lat="46.62666" lon="12.35713">
        <ele>2227.51</ele>
        <time>2019-02-28T11:24:08Z</time>
      </trkpt>
      <trkpt lat="46.62672" lon="12.35718">
        <ele>2227.51</ele>
        <time>2019-02-28T11:24:22Z</time>
      </trkpt>
      <trkpt lat="46.62681" lon="12.35716">
        <ele>2228.47</ele>
        <time>2019-02-28T11:24:36Z</time>
      </trkpt>
      <trkpt lat="46.62688" lon="12.35717">
        <ele>2227.99</ele>
        <time>2019-02-28T11:24:52Z</time>
      </trkpt>
      <trkpt lat="46.62698" lon="12.35718">
        <ele>2229.92</ele>
        <time>2019-02-28T11:25:05Z</time>
      </trkpt>
      <trkpt lat="46.62706" lon="12.35717">
        <ele>2230.4</ele>
        <time>2019-02-28T11:25:18Z</time>
      </trkpt>
      <trkpt lat="46.62712" lon="12.35718">
        <ele>2231.84</ele>
        <time>2019-02-28T11:25:34Z</time>
      </trkpt>
      <trkpt lat="46.62719" lon="12.35715">
        <ele>2233.28</ele>
        <time>2019-02-28T11:25:48Z</time>
      </trkpt>
      <trkpt lat="46.62723" lon="12.35708">
        <ele>2234.72</ele>
        <time>2019-02-28T11:26:02Z</time>
      </trkpt>
      <trkpt lat="46.62724" lon="12.35702">
        <ele>2235.68</ele>
        <time>2019-02-28T11:26:15Z</time>
      </trkpt>
      <trkpt lat="46.62728" lon="12.35702">
        <ele>2237.61</ele>
        <time>2019-02-28T11:26:28Z</time>
      </trkpt>
      <trkpt lat="46.62732" lon="12.35703">
        <ele>2239.05</ele>
        <time>2019-02-28T11:26:41Z</time>
      </trkpt>
      <trkpt lat="46.62733" lon="12.35704">
        <ele>2239.53</ele>
        <time>2019-02-28T11:26:45Z</time>
      </trkpt>
      <trkpt lat="46.62737" lon="12.35704">
        <ele>2240.49</ele>
        <time>2019-02-28T11:26:59Z</time>
      </trkpt>
      <trkpt lat="46.62744" lon="12.35703">
        <ele>2241.45</ele>
        <time>2019-02-28T11:27:14Z</time>
      </trkpt>
      <trkpt lat="46.6275" lon="12.35701">
        <ele>2242.41</ele>
        <time>2019-02-28T11:27:28Z</time>
      </trkpt>
      <trkpt lat="46.62755" lon="12.357">
        <ele>2243.37</ele>
        <time>2019-02-28T11:27:43Z</time>
      </trkpt>
      <trkpt lat="46.62761" lon="12.35697">
        <ele>2243.85</ele>
        <time>2019-02-28T11:27:56Z</time>
      </trkpt>
      <trkpt lat="46.62767" lon="12.35693">
        <ele>2245.3</ele>
        <time>2019-02-28T11:28:11Z</time>
      </trkpt>
      <trkpt lat="46.62772" lon="12.35689">
        <ele>2246.74</ele>
        <time>2019-02-28T11:28:28Z</time>
      </trkpt>
      <trkpt lat="46.62775" lon="12.35685">
        <ele>2248.18</ele>
        <time>2019-02-28T11:28:42Z</time>
      </trkpt>
      <trkpt lat="46.6278" lon="12.35681">
        <ele>2250.1</ele>
        <time>2019-02-28T11:28:57Z</time>
      </trkpt>
      <trkpt lat="46.62781" lon="12.35677">
        <ele>2251.54</ele>
        <time>2019-02-28T11:29:08Z</time>
      </trkpt>
      <trkpt lat="46.62782" lon="12.35674">
        <ele>2254.91</ele>
        <time>2019-02-28T11:29:18Z</time>
      </trkpt>
      <trkpt lat="46.62782" lon="12.35668">
        <ele>2253.95</ele>
        <time>2019-02-28T11:29:32Z</time>
      </trkpt>
      <trkpt lat="46.6278" lon="12.35662">
        <ele>2255.39</ele>
        <time>2019-02-28T11:29:45Z</time>
      </trkpt>
      <trkpt lat="46.6278" lon="12.35655">
        <ele>2256.83</ele>
        <time>2019-02-28T11:29:58Z</time>
      </trkpt>
      <trkpt lat="46.6278" lon="12.35647">
        <ele>2257.79</ele>
        <time>2019-02-28T11:30:13Z</time>
      </trkpt>
      <trkpt lat="46.62778" lon="12.35644">
        <ele>2261.16</ele>
        <time>2019-02-28T11:30:23Z</time>
      </trkpt>
      <trkpt lat="46.6278" lon="12.35641">
        <ele>2261.16</ele>
        <time>2019-02-28T11:30:36Z</time>
      </trkpt>
      <trkpt lat="46.62783" lon="12.35636">
        <ele>2265</ele>
        <time>2019-02-28T11:30:48Z</time>
      </trkpt>
      <trkpt lat="46.62783" lon="12.35636">
        <ele>2264.52</ele>
        <time>2019-02-28T11:30:49Z</time>
      </trkpt>
      <trkpt lat="46.62785" lon="12.35632">
        <ele>2264.04</ele>
        <time>2019-02-28T11:31:03Z</time>
      </trkpt>
      <trkpt lat="46.6279" lon="12.35629">
        <ele>2264.04</ele>
        <time>2019-02-28T11:31:15Z</time>
      </trkpt>
      <trkpt lat="46.62795" lon="12.35625">
        <ele>2266.93</ele>
        <time>2019-02-28T11:31:31Z</time>
      </trkpt>
      <trkpt lat="46.628" lon="12.35622">
        <ele>2267.41</ele>
        <time>2019-02-28T11:31:44Z</time>
      </trkpt>
      <trkpt lat="46.62805" lon="12.35619">
        <ele>2268.37</ele>
        <time>2019-02-28T11:31:59Z</time>
      </trkpt>
      <trkpt lat="46.62809" lon="12.35616">
        <ele>2269.81</ele>
        <time>2019-02-28T11:32:12Z</time>
      </trkpt>
      <trkpt lat="46.62813" lon="12.35614">
        <ele>2270.77</ele>
        <time>2019-02-28T11:32:28Z</time>
      </trkpt>
      <trkpt lat="46.62816" lon="12.35609">
        <ele>2272.21</ele>
        <time>2019-02-28T11:32:44Z</time>
      </trkpt>
      <trkpt lat="46.62818" lon="12.35603">
        <ele>2274.62</ele>
        <time>2019-02-28T11:32:58Z</time>
      </trkpt>
      <trkpt lat="46.62819" lon="12.35596">
        <ele>2275.1</ele>
        <time>2019-02-28T11:33:12Z</time>
      </trkpt>
      <trkpt lat="46.62821" lon="12.3559">
        <ele>2276.06</ele>
        <time>2019-02-28T11:33:25Z</time>
      </trkpt>
      <trkpt lat="46.62823" lon="12.35585">
        <ele>2277.02</ele>
        <time>2019-02-28T11:33:37Z</time>
      </trkpt>
      <trkpt lat="46.62826" lon="12.35579">
        <ele>2277.98</ele>
        <time>2019-02-28T11:33:51Z</time>
      </trkpt>
      <trkpt lat="46.6283" lon="12.35575">
        <ele>2279.42</ele>
        <time>2019-02-28T11:34:05Z</time>
      </trkpt>
      <trkpt lat="46.62835" lon="12.35572">
        <ele>2280.87</ele>
        <time>2019-02-28T11:34:18Z</time>
      </trkpt>
      <trkpt lat="46.62841" lon="12.35568">
        <ele>2282.31</ele>
        <time>2019-02-28T11:34:32Z</time>
      </trkpt>
      <trkpt lat="46.62848" lon="12.35562">
        <ele>2283.27</ele>
        <time>2019-02-28T11:34:48Z</time>
      </trkpt>
      <trkpt lat="46.62852" lon="12.35558">
        <ele>2284.71</ele>
        <time>2019-02-28T11:35:01Z</time>
      </trkpt>
      <trkpt lat="46.62856" lon="12.35552">
        <ele>2286.15</ele>
        <time>2019-02-28T11:35:16Z</time>
      </trkpt>
      <trkpt lat="46.6286" lon="12.35542">
        <ele>2287.59</ele>
        <time>2019-02-28T11:35:32Z</time>
      </trkpt>
      <trkpt lat="46.62862" lon="12.35533">
        <ele>2289.04</ele>
        <time>2019-02-28T11:35:48Z</time>
      </trkpt>
      <trkpt lat="46.62868" lon="12.35524">
        <ele>2290</ele>
        <time>2019-02-28T11:36:03Z</time>
      </trkpt>
      <trkpt lat="46.6287" lon="12.35519">
        <ele>2290.48</ele>
        <time>2019-02-28T11:36:17Z</time>
      </trkpt>
      <trkpt lat="46.62875" lon="12.35515">
        <ele>2292.88</ele>
        <time>2019-02-28T11:36:32Z</time>
      </trkpt>
      <trkpt lat="46.62881" lon="12.35512">
        <ele>2294.32</ele>
        <time>2019-02-28T11:36:46Z</time>
      </trkpt>
      <trkpt lat="46.62889" lon="12.3551">
        <ele>2295.77</ele>
        <time>2019-02-28T11:37:02Z</time>
      </trkpt>
      <trkpt lat="46.62893" lon="12.35506">
        <ele>2296.25</ele>
        <time>2019-02-28T11:37:16Z</time>
      </trkpt>
      <trkpt lat="46.62896" lon="12.35502">
        <ele>2296.73</ele>
        <time>2019-02-28T11:37:30Z</time>
      </trkpt>
      <trkpt lat="46.62894" lon="12.35503">
        <ele>2295.77</ele>
        <time>2019-02-28T11:37:46Z</time>
      </trkpt>
      <trkpt lat="46.62895" lon="12.35503">
        <ele>2295.28</ele>
        <time>2019-02-28T11:38:17Z</time>
      </trkpt>
      <trkpt lat="46.62894" lon="12.35504">
        <ele>2295.77</ele>
        <time>2019-02-28T11:38:48Z</time>
      </trkpt>
      <trkpt lat="46.62893" lon="12.35504">
        <ele>2295.77</ele>
        <time>2019-02-28T11:39:16Z</time>
      </trkpt>
      <trkpt lat="46.62893" lon="12.35505">
        <ele>2295.77</ele>
        <time>2019-02-28T11:39:51Z</time>
      </trkpt>
      <trkpt lat="46.62895" lon="12.35503">
        <ele>2297.21</ele>
        <time>2019-02-28T11:40:25Z</time>
      </trkpt>
      <trkpt lat="46.62895" lon="12.35503">
        <ele>2296.25</ele>
        <time>2019-02-28T11:40:52Z</time>
      </trkpt>
      <trkpt lat="46.62895" lon="12.35502">
        <ele>2298.17</ele>
        <time>2019-02-28T11:41:23Z</time>
      </trkpt>
      <trkpt lat="46.62895" lon="12.35503">
        <ele>2297.21</ele>
        <time>2019-02-28T11:41:58Z</time>
      </trkpt>
      <trkpt lat="46.62895" lon="12.35503">
        <ele>2297.21</ele>
        <time>2019-02-28T11:42:31Z</time>
      </trkpt>
      <trkpt lat="46.62894" lon="12.35504">
        <ele>2297.21</ele>
        <time>2019-02-28T11:42:53Z</time>
      </trkpt>
      <trkpt lat="46.62894" lon="12.35504">
        <ele>2297.69</ele>
        <time>2019-02-28T11:43:22Z</time>
      </trkpt>
      <trkpt lat="46.62894" lon="12.35504">
        <ele>2297.21</ele>
        <time>2019-02-28T11:43:53Z</time>
      </trkpt>
      <trkpt lat="46.62894" lon="12.35506">
        <ele>2297.69</ele>
        <time>2019-02-28T11:44:20Z</time>
      </trkpt>
      <trkpt lat="46.62894" lon="12.35505">
        <ele>2297.69</ele>
        <time>2019-02-28T11:44:53Z</time>
      </trkpt>
      <trkpt lat="46.62894" lon="12.35505">
        <ele>2298.65</ele>
        <time>2019-02-28T11:45:03Z</time>
      </trkpt>
      <trkpt lat="46.62896" lon="12.35503">
        <ele>2297.69</ele>
        <time>2019-02-28T11:45:20Z</time>
      </trkpt>
      <trkpt lat="46.62897" lon="12.35504">
        <ele>2298.65</ele>
        <time>2019-02-28T11:45:42Z</time>
      </trkpt>
      <trkpt lat="46.62899" lon="12.35502">
        <ele>2298.17</ele>
        <time>2019-02-28T11:46:04Z</time>
      </trkpt>
      <trkpt lat="46.62904" lon="12.35498">
        <ele>2299.61</ele>
        <time>2019-02-28T11:46:18Z</time>
      </trkpt>
      <trkpt lat="46.62907" lon="12.35497">
        <ele>2298.65</ele>
        <time>2019-02-28T11:46:22Z</time>
      </trkpt>
      <trkpt lat="46.62913" lon="12.35493">
        <ele>2295.77</ele>
        <time>2019-02-28T11:46:28Z</time>
      </trkpt>
      <trkpt lat="46.62914" lon="12.35492">
        <ele>2295.77</ele>
        <time>2019-02-28T11:46:29Z</time>
      </trkpt>
      <trkpt lat="46.6292" lon="12.35485">
        <ele>2293.36</ele>
        <time>2019-02-28T11:46:38Z</time>
      </trkpt>
      <trkpt lat="46.62921" lon="12.35482">
        <ele>2294.8</ele>
        <time>2019-02-28T11:46:42Z</time>
      </trkpt>
      <trkpt lat="46.62927" lon="12.35472">
        <ele>2296.25</ele>
        <time>2019-02-28T11:46:55Z</time>
      </trkpt>
      <trkpt lat="46.62931" lon="12.35466">
        <ele>2296.25</ele>
        <time>2019-02-28T11:47:03Z</time>
      </trkpt>
      <trkpt lat="46.62942" lon="12.35461">
        <ele>2295.28</ele>
        <time>2019-02-28T11:47:17Z</time>
      </trkpt>
      <trkpt lat="46.6295" lon="12.35456">
        <ele>2296.73</ele>
        <time>2019-02-28T11:47:33Z</time>
      </trkpt>
      <trkpt lat="46.62959" lon="12.3545">
        <ele>2297.21</ele>
        <time>2019-02-28T11:47:46Z</time>
      </trkpt>
      <trkpt lat="46.62965" lon="12.35443">
        <ele>2297.21</ele>
        <time>2019-02-28T11:48:01Z</time>
      </trkpt>
      <trkpt lat="46.6297" lon="12.35439">
        <ele>2298.17</ele>
        <time>2019-02-28T11:48:13Z</time>
      </trkpt>
      <trkpt lat="46.62976" lon="12.35434">
        <ele>2299.61</ele>
        <time>2019-02-28T11:48:27Z</time>
      </trkpt>
      <trkpt lat="46.62981" lon="12.35432">
        <ele>2300.57</ele>
        <time>2019-02-28T11:48:41Z</time>
      </trkpt>
      <trkpt lat="46.62987" lon="12.35428">
        <ele>2302.01</ele>
        <time>2019-02-28T11:48:55Z</time>
      </trkpt>
      <trkpt lat="46.62991" lon="12.35425">
        <ele>2302.98</ele>
        <time>2019-02-28T11:49:08Z</time>
      </trkpt>
      <trkpt lat="46.62997" lon="12.35425">
        <ele>2304.42</ele>
        <time>2019-02-28T11:49:21Z</time>
      </trkpt>
      <trkpt lat="46.63003" lon="12.35426">
        <ele>2305.86</ele>
        <time>2019-02-28T11:49:36Z</time>
      </trkpt>
      <trkpt lat="46.63007" lon="12.35424">
        <ele>2308.26</ele>
        <time>2019-02-28T11:49:50Z</time>
      </trkpt>
      <trkpt lat="46.63009" lon="12.35416">
        <ele>2309.22</ele>
        <time>2019-02-28T11:50:04Z</time>
      </trkpt>
      <trkpt lat="46.63007" lon="12.3541">
        <ele>2309.7</ele>
        <time>2019-02-28T11:50:14Z</time>
      </trkpt>
      <trkpt lat="46.6301" lon="12.35406">
        <ele>2310.67</ele>
        <time>2019-02-28T11:50:27Z</time>
      </trkpt>
      <trkpt lat="46.63013" lon="12.35399">
        <ele>2310.67</ele>
        <time>2019-02-28T11:50:43Z</time>
      </trkpt>
      <trkpt lat="46.63021" lon="12.35389">
        <ele>2311.63</ele>
        <time>2019-02-28T11:51:02Z</time>
      </trkpt>
      <trkpt lat="46.63027" lon="12.35382">
        <ele>2311.63</ele>
        <time>2019-02-28T11:51:17Z</time>
      </trkpt>
      <trkpt lat="46.63032" lon="12.35378">
        <ele>2312.59</ele>
        <time>2019-02-28T11:51:31Z</time>
      </trkpt>
      <trkpt lat="46.63039" lon="12.35375">
        <ele>2314.03</ele>
        <time>2019-02-28T11:51:46Z</time>
      </trkpt>
      <trkpt lat="46.63044" lon="12.35371">
        <ele>2316.43</ele>
        <time>2019-02-28T11:51:59Z</time>
      </trkpt>
      <trkpt lat="46.63049" lon="12.35365">
        <ele>2317.4</ele>
        <time>2019-02-28T11:52:14Z</time>
      </trkpt>
      <trkpt lat="46.63054" lon="12.3536">
        <ele>2317.4</ele>
        <time>2019-02-28T11:52:29Z</time>
      </trkpt>
      <trkpt lat="46.6306" lon="12.35351">
        <ele>2318.36</ele>
        <time>2019-02-28T11:52:46Z</time>
      </trkpt>
      <trkpt lat="46.63066" lon="12.35346">
        <ele>2320.28</ele>
        <time>2019-02-28T11:53:02Z</time>
      </trkpt>
      <trkpt lat="46.63071" lon="12.35344">
        <ele>2321.72</ele>
        <time>2019-02-28T11:53:17Z</time>
      </trkpt>
      <trkpt lat="46.63076" lon="12.35346">
        <ele>2323.16</ele>
        <time>2019-02-28T11:53:32Z</time>
      </trkpt>
      <trkpt lat="46.6308" lon="12.35344">
        <ele>2325.09</ele>
        <time>2019-02-28T11:53:45Z</time>
      </trkpt>
      <trkpt lat="46.63086" lon="12.35339">
        <ele>2327.01</ele>
        <time>2019-02-28T11:54:01Z</time>
      </trkpt>
      <trkpt lat="46.63091" lon="12.35336">
        <ele>2327.97</ele>
        <time>2019-02-28T11:54:16Z</time>
      </trkpt>
      <trkpt lat="46.63097" lon="12.35331">
        <ele>2330.37</ele>
        <time>2019-02-28T11:54:33Z</time>
      </trkpt>
      <trkpt lat="46.63104" lon="12.35322">
        <ele>2331.33</ele>
        <time>2019-02-28T11:54:52Z</time>
      </trkpt>
      <trkpt lat="46.63109" lon="12.35317">
        <ele>2332.78</ele>
        <time>2019-02-28T11:55:08Z</time>
      </trkpt>
      <trkpt lat="46.63114" lon="12.3531">
        <ele>2333.26</ele>
        <time>2019-02-28T11:55:22Z</time>
      </trkpt>
      <trkpt lat="46.63118" lon="12.35308">
        <ele>2334.22</ele>
        <time>2019-02-28T11:55:36Z</time>
      </trkpt>
      <trkpt lat="46.63124" lon="12.35308">
        <ele>2335.66</ele>
        <time>2019-02-28T11:55:51Z</time>
      </trkpt>
      <trkpt lat="46.63129" lon="12.35309">
        <ele>2337.1</ele>
        <time>2019-02-28T11:56:07Z</time>
      </trkpt>
      <trkpt lat="46.63135" lon="12.35308">
        <ele>2338.54</ele>
        <time>2019-02-28T11:56:22Z</time>
      </trkpt>
      <trkpt lat="46.63138" lon="12.35308">
        <ele>2339.51</ele>
        <time>2019-02-28T11:56:37Z</time>
      </trkpt>
      <trkpt lat="46.63142" lon="12.35308">
        <ele>2340.47</ele>
        <time>2019-02-28T11:56:53Z</time>
      </trkpt>
      <trkpt lat="46.63147" lon="12.35309">
        <ele>2342.39</ele>
        <time>2019-02-28T11:57:08Z</time>
      </trkpt>
      <trkpt lat="46.63153" lon="12.35309">
        <ele>2343.35</ele>
        <time>2019-02-28T11:57:25Z</time>
      </trkpt>
      <trkpt lat="46.63157" lon="12.35308">
        <ele>2344.31</ele>
        <time>2019-02-28T11:57:41Z</time>
      </trkpt>
      <trkpt lat="46.63161" lon="12.35308">
        <ele>2345.75</ele>
        <time>2019-02-28T11:57:56Z</time>
      </trkpt>
      <trkpt lat="46.63165" lon="12.35308">
        <ele>2346.72</ele>
        <time>2019-02-28T11:58:11Z</time>
      </trkpt>
      <trkpt lat="46.63171" lon="12.35307">
        <ele>2348.16</ele>
        <time>2019-02-28T11:58:26Z</time>
      </trkpt>
      <trkpt lat="46.63176" lon="12.35307">
        <ele>2350.08</ele>
        <time>2019-02-28T11:58:42Z</time>
      </trkpt>
      <trkpt lat="46.63183" lon="12.35307">
        <ele>2351.52</ele>
        <time>2019-02-28T11:59:00Z</time>
      </trkpt>
      <trkpt lat="46.63188" lon="12.35308">
        <ele>2352</ele>
        <time>2019-02-28T11:59:15Z</time>
      </trkpt>
      <trkpt lat="46.63193" lon="12.35308">
        <ele>2352.96</ele>
        <time>2019-02-28T11:59:30Z</time>
      </trkpt>
      <trkpt lat="46.63194" lon="12.35308">
        <ele>2354.89</ele>
        <time>2019-02-28T11:59:33Z</time>
      </trkpt>
      <trkpt lat="46.63199" lon="12.35313">
        <ele>2354.41</ele>
        <time>2019-02-28T11:59:49Z</time>
      </trkpt>
      <trkpt lat="46.63204" lon="12.35314">
        <ele>2355.37</ele>
        <time>2019-02-28T12:00:05Z</time>
      </trkpt>
      <trkpt lat="46.63205" lon="12.3532">
        <ele>2356.33</ele>
        <time>2019-02-28T12:00:20Z</time>
      </trkpt>
      <trkpt lat="46.63209" lon="12.35314">
        <ele>2357.29</ele>
        <time>2019-02-28T12:00:32Z</time>
      </trkpt>
      <trkpt lat="46.63212" lon="12.35309">
        <ele>2357.77</ele>
        <time>2019-02-28T12:00:47Z</time>
      </trkpt>
      <trkpt lat="46.63206" lon="12.353">
        <ele>2358.25</ele>
        <time>2019-02-28T12:01:05Z</time>
      </trkpt>
      <trkpt lat="46.63204" lon="12.35291">
        <ele>2359.69</ele>
        <time>2019-02-28T12:01:22Z</time>
      </trkpt>
      <trkpt lat="46.63205" lon="12.35285">
        <ele>2360.65</ele>
        <time>2019-02-28T12:01:36Z</time>
      </trkpt>
      <trkpt lat="46.63204" lon="12.35277">
        <ele>2362.1</ele>
        <time>2019-02-28T12:01:52Z</time>
      </trkpt>
      <trkpt lat="46.63203" lon="12.3527">
        <ele>2363.06</ele>
        <time>2019-02-28T12:02:04Z</time>
      </trkpt>
      <trkpt lat="46.63204" lon="12.35265">
        <ele>2364.02</ele>
        <time>2019-02-28T12:02:19Z</time>
      </trkpt>
      <trkpt lat="46.63205" lon="12.35261">
        <ele>2365.46</ele>
        <time>2019-02-28T12:02:32Z</time>
      </trkpt>
      <trkpt lat="46.63205" lon="12.35255">
        <ele>2366.9</ele>
        <time>2019-02-28T12:02:45Z</time>
      </trkpt>
      <trkpt lat="46.63206" lon="12.3525">
        <ele>2368.35</ele>
        <time>2019-02-28T12:02:59Z</time>
      </trkpt>
      <trkpt lat="46.63206" lon="12.35245">
        <ele>2369.31</ele>
        <time>2019-02-28T12:03:11Z</time>
      </trkpt>
      <trkpt lat="46.63206" lon="12.3524">
        <ele>2370.75</ele>
        <time>2019-02-28T12:03:25Z</time>
      </trkpt>
      <trkpt lat="46.63206" lon="12.35234">
        <ele>2371.23</ele>
        <time>2019-02-28T12:03:44Z</time>
      </trkpt>
      <trkpt lat="46.63206" lon="12.35235">
        <ele>2371.71</ele>
        <time>2019-02-28T12:03:59Z</time>
      </trkpt>
      <trkpt lat="46.63206" lon="12.35228">
        <ele>2373.63</ele>
        <time>2019-02-28T12:04:14Z</time>
      </trkpt>
      <trkpt lat="46.63207" lon="12.35221">
        <ele>2375.55</ele>
        <time>2019-02-28T12:04:28Z</time>
      </trkpt>
      <trkpt lat="46.63208" lon="12.35214">
        <ele>2376.52</ele>
        <time>2019-02-28T12:04:43Z</time>
      </trkpt>
      <trkpt lat="46.63209" lon="12.35208">
        <ele>2378.92</ele>
        <time>2019-02-28T12:04:57Z</time>
      </trkpt>
      <trkpt lat="46.63211" lon="12.35201">
        <ele>2379.4</ele>
        <time>2019-02-28T12:05:12Z</time>
      </trkpt>
      <trkpt lat="46.6321" lon="12.35193">
        <ele>2380.84</ele>
        <time>2019-02-28T12:05:27Z</time>
      </trkpt>
      <trkpt lat="46.6321" lon="12.35185">
        <ele>2381.8</ele>
        <time>2019-02-28T12:05:41Z</time>
      </trkpt>
      <trkpt lat="46.6321" lon="12.35182">
        <ele>2384.21</ele>
        <time>2019-02-28T12:05:50Z</time>
      </trkpt>
      <trkpt lat="46.63216" lon="12.35184">
        <ele>2385.17</ele>
        <time>2019-02-28T12:06:06Z</time>
      </trkpt>
      <trkpt lat="46.6322" lon="12.35187">
        <ele>2386.13</ele>
        <time>2019-02-28T12:06:20Z</time>
      </trkpt>
      <trkpt lat="46.63225" lon="12.35187">
        <ele>2388.05</ele>
        <time>2019-02-28T12:06:33Z</time>
      </trkpt>
      <trkpt lat="46.63229" lon="12.35187">
        <ele>2389.01</ele>
        <time>2019-02-28T12:06:49Z</time>
      </trkpt>
      <trkpt lat="46.63232" lon="12.35185">
        <ele>2390.46</ele>
        <time>2019-02-28T12:07:02Z</time>
      </trkpt>
      <trkpt lat="46.63237" lon="12.35186">
        <ele>2390.46</ele>
        <time>2019-02-28T12:07:18Z</time>
      </trkpt>
      <trkpt lat="46.63241" lon="12.35188">
        <ele>2391.9</ele>
        <time>2019-02-28T12:07:32Z</time>
      </trkpt>
      <trkpt lat="46.63244" lon="12.35189">
        <ele>2393.34</ele>
        <time>2019-02-28T12:07:46Z</time>
      </trkpt>
      <trkpt lat="46.63249" lon="12.3519">
        <ele>2394.78</ele>
        <time>2019-02-28T12:08:01Z</time>
      </trkpt>
      <trkpt lat="46.63253" lon="12.35191">
        <ele>2396.22</ele>
        <time>2019-02-28T12:08:16Z</time>
      </trkpt>
      <trkpt lat="46.63257" lon="12.35188">
        <ele>2397.67</ele>
        <time>2019-02-28T12:08:30Z</time>
      </trkpt>
      <trkpt lat="46.6326" lon="12.35186">
        <ele>2399.11</ele>
        <time>2019-02-28T12:08:43Z</time>
      </trkpt>
      <trkpt lat="46.63264" lon="12.35187">
        <ele>2400.55</ele>
        <time>2019-02-28T12:08:56Z</time>
      </trkpt>
      <trkpt lat="46.63269" lon="12.35185">
        <ele>2401.51</ele>
        <time>2019-02-28T12:09:11Z</time>
      </trkpt>
      <trkpt lat="46.63274" lon="12.35182">
        <ele>2402.95</ele>
        <time>2019-02-28T12:09:26Z</time>
      </trkpt>
      <trkpt lat="46.63271" lon="12.35172">
        <ele>2403.91</ele>
        <time>2019-02-28T12:09:40Z</time>
      </trkpt>
      <trkpt lat="46.6327" lon="12.35166">
        <ele>2404.88</ele>
        <time>2019-02-28T12:09:54Z</time>
      </trkpt>
      <trkpt lat="46.63271" lon="12.35159">
        <ele>2406.32</ele>
        <time>2019-02-28T12:10:09Z</time>
      </trkpt>
      <trkpt lat="46.63277" lon="12.35159">
        <ele>2407.76</ele>
        <time>2019-02-28T12:10:23Z</time>
      </trkpt>
      <trkpt lat="46.63282" lon="12.3516">
        <ele>2409.2</ele>
        <time>2019-02-28T12:10:37Z</time>
      </trkpt>
      <trkpt lat="46.63286" lon="12.35161">
        <ele>2410.64</ele>
        <time>2019-02-28T12:10:52Z</time>
      </trkpt>
      <trkpt lat="46.63288" lon="12.35161">
        <ele>2414.01</ele>
        <time>2019-02-28T12:11:01Z</time>
      </trkpt>
      <trkpt lat="46.63289" lon="12.35161">
        <ele>2413.53</ele>
        <time>2019-02-28T12:11:02Z</time>
      </trkpt>
      <trkpt lat="46.63293" lon="12.35161">
        <ele>2413.53</ele>
        <time>2019-02-28T12:11:16Z</time>
      </trkpt>
      <trkpt lat="46.63299" lon="12.35161">
        <ele>2414.49</ele>
        <time>2019-02-28T12:11:33Z</time>
      </trkpt>
      <trkpt lat="46.63303" lon="12.35157">
        <ele>2415.45</ele>
        <time>2019-02-28T12:11:47Z</time>
      </trkpt>
      <trkpt lat="46.63301" lon="12.35149">
        <ele>2415.93</ele>
        <time>2019-02-28T12:12:02Z</time>
      </trkpt>
      <trkpt lat="46.633" lon="12.35146">
        <ele>2415.93</ele>
        <time>2019-02-28T12:12:09Z</time>
      </trkpt>
      <trkpt lat="46.63298" lon="12.35143">
        <ele>2416.89</ele>
        <time>2019-02-28T12:12:28Z</time>
      </trkpt>
      <trkpt lat="46.633" lon="12.35145">
        <ele>2418.33</ele>
        <time>2019-02-28T12:12:35Z</time>
      </trkpt>
      <trkpt lat="46.63299" lon="12.35145">
        <ele>2416.41</ele>
        <time>2019-02-28T12:12:39Z</time>
      </trkpt>
      <trkpt lat="46.63299" lon="12.35136">
        <ele>2417.85</ele>
        <time>2019-02-28T12:12:56Z</time>
      </trkpt>
      <trkpt lat="46.63298" lon="12.35132">
        <ele>2421.22</ele>
        <time>2019-02-28T12:13:04Z</time>
      </trkpt>
      <trkpt lat="46.63301" lon="12.35126">
        <ele>2422.66</ele>
        <time>2019-02-28T12:13:14Z</time>
      </trkpt>
      <trkpt lat="46.63303" lon="12.35117">
        <ele>2423.14</ele>
        <time>2019-02-28T12:13:30Z</time>
      </trkpt>
      <trkpt lat="46.63309" lon="12.35107">
        <ele>2425.06</ele>
        <time>2019-02-28T12:13:47Z</time>
      </trkpt>
      <trkpt lat="46.63314" lon="12.35096">
        <ele>2422.66</ele>
        <time>2019-02-28T12:14:02Z</time>
      </trkpt>
      <trkpt lat="46.63318" lon="12.35092">
        <ele>2418.81</ele>
        <time>2019-02-28T12:14:13Z</time>
      </trkpt>
      <trkpt lat="46.63318" lon="12.35091">
        <ele>2418.81</ele>
        <time>2019-02-28T12:14:14Z</time>
      </trkpt>
      <trkpt lat="46.63319" lon="12.35091">
        <ele>2423.62</ele>
        <time>2019-02-28T12:14:15Z</time>
      </trkpt>
      <trkpt lat="46.63319" lon="12.35091">
        <ele>2426.5</ele>
        <time>2019-02-28T12:14:16Z</time>
      </trkpt>
      <trkpt lat="46.6332" lon="12.3509">
        <ele>2425.54</ele>
        <time>2019-02-28T12:14:17Z</time>
      </trkpt>
      <trkpt lat="46.63321" lon="12.35085">
        <ele>2422.18</ele>
        <time>2019-02-28T12:14:24Z</time>
      </trkpt>
      <trkpt lat="46.63322" lon="12.35078">
        <ele>2418.81</ele>
        <time>2019-02-28T12:14:34Z</time>
      </trkpt>
      <trkpt lat="46.63324" lon="12.35075">
        <ele>2422.18</ele>
        <time>2019-02-28T12:14:37Z</time>
      </trkpt>
      <trkpt lat="46.63324" lon="12.35074">
        <ele>2418.81</ele>
        <time>2019-02-28T12:14:39Z</time>
      </trkpt>
      <trkpt lat="46.63325" lon="12.35073">
        <ele>2422.18</ele>
        <time>2019-02-28T12:14:42Z</time>
      </trkpt>
      <trkpt lat="46.63325" lon="12.35072">
        <ele>2422.18</ele>
        <time>2019-02-28T12:14:43Z</time>
      </trkpt>
      <trkpt lat="46.63328" lon="12.35067">
        <ele>2422.18</ele>
        <time>2019-02-28T12:14:50Z</time>
      </trkpt>
      <trkpt lat="46.63328" lon="12.35065">
        <ele>2425.06</ele>
        <time>2019-02-28T12:14:51Z</time>
      </trkpt>
      <trkpt lat="46.63329" lon="12.35064">
        <ele>2423.14</ele>
        <time>2019-02-28T12:14:52Z</time>
      </trkpt>
      <trkpt lat="46.63333" lon="12.3505">
        <ele>2422.66</ele>
        <time>2019-02-28T12:15:08Z</time>
      </trkpt>
      <trkpt lat="46.63335" lon="12.35044">
        <ele>2418.81</ele>
        <time>2019-02-28T12:15:15Z</time>
      </trkpt>
      <trkpt lat="46.63337" lon="12.35041">
        <ele>2422.18</ele>
        <time>2019-02-28T12:15:19Z</time>
      </trkpt>
      <trkpt lat="46.63341" lon="12.35025">
        <ele>2422.18</ele>
        <time>2019-02-28T12:15:36Z</time>
      </trkpt>
      <trkpt lat="46.63345" lon="12.35014">
        <ele>2424.1</ele>
        <time>2019-02-28T12:15:53Z</time>
      </trkpt>
      <trkpt lat="46.63347" lon="12.35002">
        <ele>2425.54</ele>
        <time>2019-02-28T12:16:10Z</time>
      </trkpt>
      <trkpt lat="46.63346" lon="12.34991">
        <ele>2427.95</ele>
        <time>2019-02-28T12:16:26Z</time>
      </trkpt>
      <trkpt lat="46.63348" lon="12.34985">
        <ele>2428.91</ele>
        <time>2019-02-28T12:16:38Z</time>
      </trkpt>
      <trkpt lat="46.63352" lon="12.34975">
        <ele>2430.83</ele>
        <time>2019-02-28T12:16:55Z</time>
      </trkpt>
      <trkpt lat="46.63354" lon="12.34968">
        <ele>2431.79</ele>
        <time>2019-02-28T12:17:12Z</time>
      </trkpt>
      <trkpt lat="46.63357" lon="12.34957">
        <ele>2434.2</ele>
        <time>2019-02-28T12:17:29Z</time>
      </trkpt>
      <trkpt lat="46.63359" lon="12.34948">
        <ele>2435.16</ele>
        <time>2019-02-28T12:17:43Z</time>
      </trkpt>
      <trkpt lat="46.63365" lon="12.34932">
        <ele>2434.2</ele>
        <time>2019-02-28T12:18:03Z</time>
      </trkpt>
      <trkpt lat="46.63368" lon="12.34917">
        <ele>2434.2</ele>
        <time>2019-02-28T12:18:20Z</time>
      </trkpt>
      <trkpt lat="46.63374" lon="12.34906">
        <ele>2434.2</ele>
        <time>2019-02-28T12:18:34Z</time>
      </trkpt>
      <trkpt lat="46.63378" lon="12.34896">
        <ele>2434.68</ele>
        <time>2019-02-28T12:18:48Z</time>
      </trkpt>
      <trkpt lat="46.63384" lon="12.34882">
        <ele>2435.64</ele>
        <time>2019-02-28T12:19:04Z</time>
      </trkpt>
      <trkpt lat="46.63387" lon="12.34874">
        <ele>2436.6</ele>
        <time>2019-02-28T12:19:16Z</time>
      </trkpt>
      <trkpt lat="46.63394" lon="12.34863">
        <ele>2436.6</ele>
        <time>2019-02-28T12:19:31Z</time>
      </trkpt>
      <trkpt lat="46.63398" lon="12.34854">
        <ele>2439.96</ele>
        <time>2019-02-28T12:19:44Z</time>
      </trkpt>
      <trkpt lat="46.63401" lon="12.34842">
        <ele>2438.52</ele>
        <time>2019-02-28T12:20:00Z</time>
      </trkpt>
      <trkpt lat="46.63401" lon="12.34841">
        <ele>2438.52</ele>
        <time>2019-02-28T12:20:01Z</time>
      </trkpt>
      <trkpt lat="46.63405" lon="12.34829">
        <ele>2438.04</ele>
        <time>2019-02-28T12:20:16Z</time>
      </trkpt>
      <trkpt lat="46.63408" lon="12.34819">
        <ele>2437.56</ele>
        <time>2019-02-28T12:20:30Z</time>
      </trkpt>
      <trkpt lat="46.63409" lon="12.3481">
        <ele>2437.08</ele>
        <time>2019-02-28T12:20:44Z</time>
      </trkpt>
      <trkpt lat="46.63411" lon="12.34801">
        <ele>2437.08</ele>
        <time>2019-02-28T12:20:57Z</time>
      </trkpt>
      <trkpt lat="46.63411" lon="12.3479">
        <ele>2437.56</ele>
        <time>2019-02-28T12:21:12Z</time>
      </trkpt>
      <trkpt lat="46.63412" lon="12.34777">
        <ele>2437.08</ele>
        <time>2019-02-28T12:21:26Z</time>
      </trkpt>
      <trkpt lat="46.63413" lon="12.34767">
        <ele>2437.56</ele>
        <time>2019-02-28T12:21:42Z</time>
      </trkpt>
      <trkpt lat="46.63414" lon="12.34762">
        <ele>2439.48</ele>
        <time>2019-02-28T12:21:55Z</time>
      </trkpt>
      <trkpt lat="46.63417" lon="12.34755">
        <ele>2441.41</ele>
        <time>2019-02-28T12:22:11Z</time>
      </trkpt>
      <trkpt lat="46.63419" lon="12.34746">
        <ele>2442.85</ele>
        <time>2019-02-28T12:22:25Z</time>
      </trkpt>
      <trkpt lat="46.63422" lon="12.34735">
        <ele>2443.81</ele>
        <time>2019-02-28T12:22:39Z</time>
      </trkpt>
      <trkpt lat="46.63424" lon="12.34728">
        <ele>2444.77</ele>
        <time>2019-02-28T12:22:55Z</time>
      </trkpt>
      <trkpt lat="46.63423" lon="12.34718">
        <ele>2444.29</ele>
        <time>2019-02-28T12:23:09Z</time>
      </trkpt>
      <trkpt lat="46.63423" lon="12.3471">
        <ele>2445.25</ele>
        <time>2019-02-28T12:23:24Z</time>
      </trkpt>
      <trkpt lat="46.63425" lon="12.34701">
        <ele>2446.69</ele>
        <time>2019-02-28T12:23:39Z</time>
      </trkpt>
      <trkpt lat="46.63423" lon="12.34692">
        <ele>2448.13</ele>
        <time>2019-02-28T12:23:52Z</time>
      </trkpt>
      <trkpt lat="46.63424" lon="12.34683">
        <ele>2449.58</ele>
        <time>2019-02-28T12:24:09Z</time>
      </trkpt>
      <trkpt lat="46.63426" lon="12.34674">
        <ele>2452.94</ele>
        <time>2019-02-28T12:24:23Z</time>
      </trkpt>
      <trkpt lat="46.63427" lon="12.34671">
        <ele>2451.02</ele>
        <time>2019-02-28T12:24:30Z</time>
      </trkpt>
      <trkpt lat="46.63428" lon="12.3466">
        <ele>2451.5</ele>
        <time>2019-02-28T12:24:45Z</time>
      </trkpt>
      <trkpt lat="46.6343" lon="12.34652">
        <ele>2453.42</ele>
        <time>2019-02-28T12:25:00Z</time>
      </trkpt>
      <trkpt lat="46.63431" lon="12.34648">
        <ele>2453.9</ele>
        <time>2019-02-28T12:25:18Z</time>
      </trkpt>
      <trkpt lat="46.6343" lon="12.34643">
        <ele>2455.34</ele>
        <time>2019-02-28T12:25:37Z</time>
      </trkpt>
      <trkpt lat="46.6343" lon="12.3464">
        <ele>2455.82</ele>
        <time>2019-02-28T12:25:55Z</time>
      </trkpt>
      <trkpt lat="46.63433" lon="12.34632">
        <ele>2458.23</ele>
        <time>2019-02-28T12:26:07Z</time>
      </trkpt>
      <trkpt lat="46.63434" lon="12.34624">
        <ele>2458.71</ele>
        <time>2019-02-28T12:26:19Z</time>
      </trkpt>
      <trkpt lat="46.63437" lon="12.34616">
        <ele>2460.63</ele>
        <time>2019-02-28T12:26:37Z</time>
      </trkpt>
      <trkpt lat="46.6344" lon="12.34607">
        <ele>2461.11</ele>
        <time>2019-02-28T12:26:51Z</time>
      </trkpt>
      <trkpt lat="46.63444" lon="12.34599">
        <ele>2462.55</ele>
        <time>2019-02-28T12:27:05Z</time>
      </trkpt>
      <trkpt lat="46.63448" lon="12.34593">
        <ele>2463.52</ele>
        <time>2019-02-28T12:27:17Z</time>
      </trkpt>
      <trkpt lat="46.63451" lon="12.34585">
        <ele>2463.52</ele>
        <time>2019-02-28T12:27:31Z</time>
      </trkpt>
      <trkpt lat="46.63454" lon="12.34577">
        <ele>2463.52</ele>
        <time>2019-02-28T12:27:46Z</time>
      </trkpt>
      <trkpt lat="46.63457" lon="12.34573">
        <ele>2464</ele>
        <time>2019-02-28T12:28:00Z</time>
      </trkpt>
      <trkpt lat="46.6346" lon="12.34565">
        <ele>2464</ele>
        <time>2019-02-28T12:28:16Z</time>
      </trkpt>
      <trkpt lat="46.63463" lon="12.34557">
        <ele>2465.44</ele>
        <time>2019-02-28T12:28:32Z</time>
      </trkpt>
      <trkpt lat="46.63466" lon="12.34549">
        <ele>2465.92</ele>
        <time>2019-02-28T12:28:50Z</time>
      </trkpt>
      <trkpt lat="46.63467" lon="12.34543">
        <ele>2466.88</ele>
        <time>2019-02-28T12:29:05Z</time>
      </trkpt>
      <trkpt lat="46.63471" lon="12.34538">
        <ele>2469.28</ele>
        <time>2019-02-28T12:29:20Z</time>
      </trkpt>
      <trkpt lat="46.63471" lon="12.34532">
        <ele>2471.21</ele>
        <time>2019-02-28T12:29:34Z</time>
      </trkpt>
      <trkpt lat="46.63472" lon="12.34527">
        <ele>2471.69</ele>
        <time>2019-02-28T12:29:49Z</time>
      </trkpt>
      <trkpt lat="46.63473" lon="12.34517">
        <ele>2472.65</ele>
        <time>2019-02-28T12:30:04Z</time>
      </trkpt>
      <trkpt lat="46.63474" lon="12.34511">
        <ele>2475.05</ele>
        <time>2019-02-28T12:30:20Z</time>
      </trkpt>
      <trkpt lat="46.63475" lon="12.34507">
        <ele>2476.97</ele>
        <time>2019-02-28T12:30:36Z</time>
      </trkpt>
      <trkpt lat="46.63482" lon="12.34507">
        <ele>2478.42</ele>
        <time>2019-02-28T12:30:54Z</time>
      </trkpt>
      <trkpt lat="46.63486" lon="12.34508">
        <ele>2479.86</ele>
        <time>2019-02-28T12:31:07Z</time>
      </trkpt>
      <trkpt lat="46.6349" lon="12.34503">
        <ele>2481.78</ele>
        <time>2019-02-28T12:31:21Z</time>
      </trkpt>
      <trkpt lat="46.63489" lon="12.34494">
        <ele>2482.74</ele>
        <time>2019-02-28T12:31:37Z</time>
      </trkpt>
      <trkpt lat="46.63494" lon="12.34496">
        <ele>2483.7</ele>
        <time>2019-02-28T12:31:50Z</time>
      </trkpt>
      <trkpt lat="46.63497" lon="12.34501">
        <ele>2485.15</ele>
        <time>2019-02-28T12:32:05Z</time>
      </trkpt>
      <trkpt lat="46.63501" lon="12.34503">
        <ele>2486.11</ele>
        <time>2019-02-28T12:32:19Z</time>
      </trkpt>
      <trkpt lat="46.63503" lon="12.34507">
        <ele>2486.59</ele>
        <time>2019-02-28T12:32:32Z</time>
      </trkpt>
      <trkpt lat="46.63506" lon="12.34511">
        <ele>2487.55</ele>
        <time>2019-02-28T12:32:48Z</time>
      </trkpt>
      <trkpt lat="46.6351" lon="12.34516">
        <ele>2488.99</ele>
        <time>2019-02-28T12:33:01Z</time>
      </trkpt>
      <trkpt lat="46.6351" lon="12.34513">
        <ele>2490.43</ele>
        <time>2019-02-28T12:33:16Z</time>
      </trkpt>
      <trkpt lat="46.6351" lon="12.34507">
        <ele>2490.91</ele>
        <time>2019-02-28T12:33:31Z</time>
      </trkpt>
      <trkpt lat="46.63512" lon="12.34503">
        <ele>2491.87</ele>
        <time>2019-02-28T12:33:44Z</time>
      </trkpt>
      <trkpt lat="46.63513" lon="12.34498">
        <ele>2493.32</ele>
        <time>2019-02-28T12:33:58Z</time>
      </trkpt>
      <trkpt lat="46.63512" lon="12.34492">
        <ele>2495.24</ele>
        <time>2019-02-28T12:34:14Z</time>
      </trkpt>
      <trkpt lat="46.63513" lon="12.34487">
        <ele>2496.68</ele>
        <time>2019-02-28T12:34:28Z</time>
      </trkpt>
      <trkpt lat="46.63516" lon="12.34484">
        <ele>2498.12</ele>
        <time>2019-02-28T12:34:44Z</time>
      </trkpt>
      <trkpt lat="46.63518" lon="12.3448">
        <ele>2499.57</ele>
        <time>2019-02-28T12:34:59Z</time>
      </trkpt>
      <trkpt lat="46.63518" lon="12.3448">
        <ele>2500.53</ele>
        <time>2019-02-28T12:35:13Z</time>
      </trkpt>
      <trkpt lat="46.6352" lon="12.34475">
        <ele>2501.01</ele>
        <time>2019-02-28T12:35:32Z</time>
      </trkpt>
      <trkpt lat="46.63521" lon="12.34478">
        <ele>2501.01</ele>
        <time>2019-02-28T12:35:49Z</time>
      </trkpt>
      <trkpt lat="46.63519" lon="12.34476">
        <ele>2503.41</ele>
        <time>2019-02-28T12:35:54Z</time>
      </trkpt>
      <trkpt lat="46.63519" lon="12.34477">
        <ele>2501.01</ele>
        <time>2019-02-28T12:36:01Z</time>
      </trkpt>
      <trkpt lat="46.6352" lon="12.34478">
        <ele>2500.53</ele>
        <time>2019-02-28T12:36:28Z</time>
      </trkpt>
      <trkpt lat="46.63519" lon="12.34477">
        <ele>2501.01</ele>
        <time>2019-02-28T12:36:54Z</time>
      </trkpt>
      <trkpt lat="46.63521" lon="12.34475">
        <ele>2501.49</ele>
        <time>2019-02-28T12:37:23Z</time>
      </trkpt>
      <trkpt lat="46.6352" lon="12.34479">
        <ele>2502.45</ele>
        <time>2019-02-28T12:37:54Z</time>
      </trkpt>
      <trkpt lat="46.63519" lon="12.34477">
        <ele>2501.49</ele>
        <time>2019-02-28T12:38:09Z</time>
      </trkpt>
      <trkpt lat="46.63521" lon="12.34476">
        <ele>2501.01</ele>
        <time>2019-02-28T12:38:43Z</time>
      </trkpt>
      <trkpt lat="46.63523" lon="12.34475">
        <ele>2500.05</ele>
        <time>2019-02-28T12:39:19Z</time>
      </trkpt>
      <trkpt lat="46.63522" lon="12.34476">
        <ele>2500.05</ele>
        <time>2019-02-28T12:39:51Z</time>
      </trkpt>
      <trkpt lat="46.63524" lon="12.34477">
        <ele>2500.05</ele>
        <time>2019-02-28T12:40:22Z</time>
      </trkpt>
      <trkpt lat="46.63521" lon="12.34479">
        <ele>2501.01</ele>
        <time>2019-02-28T12:40:41Z</time>
      </trkpt>
      <trkpt lat="46.63524" lon="12.34479">
        <ele>2500.53</ele>
        <time>2019-02-28T12:41:03Z</time>
      </trkpt>
      <trkpt lat="46.63526" lon="12.34473">
        <ele>2502.45</ele>
        <time>2019-02-28T12:41:18Z</time>
      </trkpt>
      <trkpt lat="46.63525" lon="12.34472">
        <ele>2503.41</ele>
        <time>2019-02-28T12:41:34Z</time>
      </trkpt>
      <trkpt lat="46.63527" lon="12.34477">
        <ele>2502.93</ele>
        <time>2019-02-28T12:41:53Z</time>
      </trkpt>
      <trkpt lat="46.6353" lon="12.34486">
        <ele>2503.89</ele>
        <time>2019-02-28T12:42:14Z</time>
      </trkpt>
      <trkpt lat="46.63534" lon="12.34487">
        <ele>2506.29</ele>
        <time>2019-02-28T12:42:31Z</time>
      </trkpt>
      <trkpt lat="46.63539" lon="12.34492">
        <ele>2508.22</ele>
        <time>2019-02-28T12:42:48Z</time>
      </trkpt>
      <trkpt lat="46.63538" lon="12.34498">
        <ele>2508.22</ele>
        <time>2019-02-28T12:43:03Z</time>
      </trkpt>
      <trkpt lat="46.63541" lon="12.34499">
        <ele>2509.66</ele>
        <time>2019-02-28T12:43:18Z</time>
      </trkpt>
      <trkpt lat="46.63543" lon="12.34493">
        <ele>2511.1</ele>
        <time>2019-02-28T12:43:32Z</time>
      </trkpt>
      <trkpt lat="46.63545" lon="12.34487">
        <ele>2512.54</ele>
        <time>2019-02-28T12:43:47Z</time>
      </trkpt>
      <trkpt lat="46.63547" lon="12.34478">
        <ele>2513.5</ele>
        <time>2019-02-28T12:44:03Z</time>
      </trkpt>
      <trkpt lat="46.63549" lon="12.34474">
        <ele>2514.47</ele>
        <time>2019-02-28T12:44:16Z</time>
      </trkpt>
      <trkpt lat="46.6355" lon="12.34469">
        <ele>2515.91</ele>
        <time>2019-02-28T12:44:29Z</time>
      </trkpt>
      <trkpt lat="46.63552" lon="12.34464">
        <ele>2516.87</ele>
        <time>2019-02-28T12:44:42Z</time>
      </trkpt>
      <trkpt lat="46.63552" lon="12.3446">
        <ele>2518.31</ele>
        <time>2019-02-28T12:44:55Z</time>
      </trkpt>
      <trkpt lat="46.63553" lon="12.34455">
        <ele>2519.27</ele>
        <time>2019-02-28T12:45:07Z</time>
      </trkpt>
      <trkpt lat="46.63554" lon="12.3445">
        <ele>2520.23</ele>
        <time>2019-02-28T12:45:19Z</time>
      </trkpt>
      <trkpt lat="46.63556" lon="12.34445">
        <ele>2521.19</ele>
        <time>2019-02-28T12:45:34Z</time>
      </trkpt>
      <trkpt lat="46.63557" lon="12.34439">
        <ele>2522.64</ele>
        <time>2019-02-28T12:45:49Z</time>
      </trkpt>
      <trkpt lat="46.63559" lon="12.34433">
        <ele>2524.08</ele>
        <time>2019-02-28T12:46:03Z</time>
      </trkpt>
      <trkpt lat="46.6356" lon="12.3443">
        <ele>2525.04</ele>
        <time>2019-02-28T12:46:16Z</time>
      </trkpt>
      <trkpt lat="46.63563" lon="12.34425">
        <ele>2526.96</ele>
        <time>2019-02-28T12:46:29Z</time>
      </trkpt>
      <trkpt lat="46.63568" lon="12.34424">
        <ele>2527.44</ele>
        <time>2019-02-28T12:46:43Z</time>
      </trkpt>
      <trkpt lat="46.63571" lon="12.34426">
        <ele>2528.4</ele>
        <time>2019-02-28T12:46:57Z</time>
      </trkpt>
      <trkpt lat="46.63574" lon="12.34428">
        <ele>2529.85</ele>
        <time>2019-02-28T12:47:11Z</time>
      </trkpt>
      <trkpt lat="46.63577" lon="12.34433">
        <ele>2530.33</ele>
        <time>2019-02-28T12:47:26Z</time>
      </trkpt>
      <trkpt lat="46.63578" lon="12.34438">
        <ele>2531.77</ele>
        <time>2019-02-28T12:47:41Z</time>
      </trkpt>
      <trkpt lat="46.63582" lon="12.34442">
        <ele>2533.69</ele>
        <time>2019-02-28T12:47:58Z</time>
      </trkpt>
      <trkpt lat="46.63585" lon="12.34445">
        <ele>2535.61</ele>
        <time>2019-02-28T12:48:13Z</time>
      </trkpt>
      <trkpt lat="46.63586" lon="12.34452">
        <ele>2536.58</ele>
        <time>2019-02-28T12:48:28Z</time>
      </trkpt>
      <trkpt lat="46.63589" lon="12.34454">
        <ele>2537.54</ele>
        <time>2019-02-28T12:48:44Z</time>
      </trkpt>
      <trkpt lat="46.63592" lon="12.34454">
        <ele>2540.42</ele>
        <time>2019-02-28T12:48:59Z</time>
      </trkpt>
      <trkpt lat="46.63593" lon="12.34451">
        <ele>2540.42</ele>
        <time>2019-02-28T12:49:18Z</time>
      </trkpt>
      <trkpt lat="46.63594" lon="12.34444">
        <ele>2541.38</ele>
        <time>2019-02-28T12:49:32Z</time>
      </trkpt>
      <trkpt lat="46.63596" lon="12.34439">
        <ele>2542.82</ele>
        <time>2019-02-28T12:49:45Z</time>
      </trkpt>
      <trkpt lat="46.63597" lon="12.34434">
        <ele>2543.79</ele>
        <time>2019-02-28T12:49:59Z</time>
      </trkpt>
      <trkpt lat="46.636" lon="12.34429">
        <ele>2545.23</ele>
        <time>2019-02-28T12:50:16Z</time>
      </trkpt>
      <trkpt lat="46.63601" lon="12.34424">
        <ele>2546.67</ele>
        <time>2019-02-28T12:50:32Z</time>
      </trkpt>
      <trkpt lat="46.63602" lon="12.3442">
        <ele>2547.63</ele>
        <time>2019-02-28T12:50:45Z</time>
      </trkpt>
      <trkpt lat="46.63603" lon="12.34416">
        <ele>2549.55</ele>
        <time>2019-02-28T12:50:58Z</time>
      </trkpt>
      <trkpt lat="46.63602" lon="12.34412">
        <ele>2551.48</ele>
        <time>2019-02-28T12:51:11Z</time>
      </trkpt>
      <trkpt lat="46.63604" lon="12.3441">
        <ele>2552.44</ele>
        <time>2019-02-28T12:51:24Z</time>
      </trkpt>
      <trkpt lat="46.63605" lon="12.34404">
        <ele>2553.88</ele>
        <time>2019-02-28T12:51:36Z</time>
      </trkpt>
      <trkpt lat="46.63605" lon="12.34399">
        <ele>2553.88</ele>
        <time>2019-02-28T12:51:50Z</time>
      </trkpt>
      <trkpt lat="46.63606" lon="12.34393">
        <ele>2555.32</ele>
        <time>2019-02-28T12:52:04Z</time>
      </trkpt>
      <trkpt lat="46.63606" lon="12.34389">
        <ele>2557.24</ele>
        <time>2019-02-28T12:52:15Z</time>
      </trkpt>
      <trkpt lat="46.63605" lon="12.34382">
        <ele>2558.21</ele>
        <time>2019-02-28T12:52:28Z</time>
      </trkpt>
      <trkpt lat="46.63603" lon="12.34376">
        <ele>2558.21</ele>
        <time>2019-02-28T12:52:43Z</time>
      </trkpt>
      <trkpt lat="46.63601" lon="12.34372">
        <ele>2558.21</ele>
        <time>2019-02-28T12:52:54Z</time>
      </trkpt>
      <trkpt lat="46.63599" lon="12.34365">
        <ele>2559.17</ele>
        <time>2019-02-28T12:53:07Z</time>
      </trkpt>
      <trkpt lat="46.63601" lon="12.34359">
        <ele>2559.65</ele>
        <time>2019-02-28T12:53:21Z</time>
      </trkpt>
      <trkpt lat="46.63602" lon="12.34355">
        <ele>2560.61</ele>
        <time>2019-02-28T12:53:36Z</time>
      </trkpt>
      <trkpt lat="46.63603" lon="12.3435">
        <ele>2561.57</ele>
        <time>2019-02-28T12:53:48Z</time>
      </trkpt>
      <trkpt lat="46.63605" lon="12.34346">
        <ele>2563.01</ele>
        <time>2019-02-28T12:54:01Z</time>
      </trkpt>
      <trkpt lat="46.63605" lon="12.34338">
        <ele>2564.45</ele>
        <time>2019-02-28T12:54:16Z</time>
      </trkpt>
      <trkpt lat="46.63605" lon="12.34333">
        <ele>2566.86</ele>
        <time>2019-02-28T12:54:28Z</time>
      </trkpt>
      <trkpt lat="46.63605" lon="12.34329">
        <ele>2567.82</ele>
        <time>2019-02-28T12:54:40Z</time>
      </trkpt>
      <trkpt lat="46.63606" lon="12.34322">
        <ele>2568.3</ele>
        <time>2019-02-28T12:54:55Z</time>
      </trkpt>
      <trkpt lat="46.63607" lon="12.3432">
        <ele>2569.26</ele>
        <time>2019-02-28T12:55:09Z</time>
      </trkpt>
      <trkpt lat="46.6361" lon="12.34322">
        <ele>2570.22</ele>
        <time>2019-02-28T12:55:24Z</time>
      </trkpt>
      <trkpt lat="46.63609" lon="12.34323">
        <ele>2570.7</ele>
        <time>2019-02-28T12:55:42Z</time>
      </trkpt>
      <trkpt lat="46.63614" lon="12.34325">
        <ele>2573.11</ele>
        <time>2019-02-28T12:55:58Z</time>
      </trkpt>
      <trkpt lat="46.63619" lon="12.34327">
        <ele>2574.55</ele>
        <time>2019-02-28T12:56:13Z</time>
      </trkpt>
      <trkpt lat="46.63622" lon="12.34328">
        <ele>2575.99</ele>
        <time>2019-02-28T12:56:26Z</time>
      </trkpt>
      <trkpt lat="46.63625" lon="12.34331">
        <ele>2576.47</ele>
        <time>2019-02-28T12:56:45Z</time>
      </trkpt>
      <trkpt lat="46.63628" lon="12.34333">
        <ele>2577.43</ele>
        <time>2019-02-28T12:57:00Z</time>
      </trkpt>
      <trkpt lat="46.63633" lon="12.34336">
        <ele>2578.39</ele>
        <time>2019-02-28T12:57:15Z</time>
      </trkpt>
      <trkpt lat="46.63636" lon="12.34336">
        <ele>2579.35</ele>
        <time>2019-02-28T12:57:29Z</time>
      </trkpt>
      <trkpt lat="46.63638" lon="12.3434">
        <ele>2580.8</ele>
        <time>2019-02-28T12:57:43Z</time>
      </trkpt>
      <trkpt lat="46.6364" lon="12.34343">
        <ele>2582.24</ele>
        <time>2019-02-28T12:57:57Z</time>
      </trkpt>
      <trkpt lat="46.63639" lon="12.34338">
        <ele>2581.28</ele>
        <time>2019-02-28T12:58:15Z</time>
      </trkpt>
      <trkpt lat="46.6364" lon="12.3433">
        <ele>2583.2</ele>
        <time>2019-02-28T12:58:28Z</time>
      </trkpt>
      <trkpt lat="46.63637" lon="12.34322">
        <ele>2585.12</ele>
        <time>2019-02-28T12:58:42Z</time>
      </trkpt>
      <trkpt lat="46.63636" lon="12.34317">
        <ele>2586.56</ele>
        <time>2019-02-28T12:58:54Z</time>
      </trkpt>
      <trkpt lat="46.63636" lon="12.34312">
        <ele>2588.49</ele>
        <time>2019-02-28T12:59:06Z</time>
      </trkpt>
      <trkpt lat="46.63635" lon="12.34308">
        <ele>2590.41</ele>
        <time>2019-02-28T12:59:18Z</time>
      </trkpt>
      <trkpt lat="46.63636" lon="12.34303">
        <ele>2591.37</ele>
        <time>2019-02-28T12:59:31Z</time>
      </trkpt>
      <trkpt lat="46.63637" lon="12.34309">
        <ele>2591.85</ele>
        <time>2019-02-28T12:59:45Z</time>
      </trkpt>
      <trkpt lat="46.63633" lon="12.34309">
        <ele>2591.37</ele>
        <time>2019-02-28T13:00:05Z</time>
      </trkpt>
      <trkpt lat="46.63639" lon="12.34314">
        <ele>2593.29</ele>
        <time>2019-02-28T13:00:20Z</time>
      </trkpt>
      <trkpt lat="46.63644" lon="12.34318">
        <ele>2593.77</ele>
        <time>2019-02-28T13:00:34Z</time>
      </trkpt>
      <trkpt lat="46.63649" lon="12.34322">
        <ele>2594.25</ele>
        <time>2019-02-28T13:00:51Z</time>
      </trkpt>
      <trkpt lat="46.63652" lon="12.34325">
        <ele>2596.66</ele>
        <time>2019-02-28T13:01:05Z</time>
      </trkpt>
      <trkpt lat="46.63655" lon="12.34328">
        <ele>2597.62</ele>
        <time>2019-02-28T13:01:20Z</time>
      </trkpt>
      <trkpt lat="46.63658" lon="12.34334">
        <ele>2598.1</ele>
        <time>2019-02-28T13:01:37Z</time>
      </trkpt>
      <trkpt lat="46.6366" lon="12.34339">
        <ele>2599.06</ele>
        <time>2019-02-28T13:01:54Z</time>
      </trkpt>
      <trkpt lat="46.63663" lon="12.34343">
        <ele>2600.02</ele>
        <time>2019-02-28T13:02:08Z</time>
      </trkpt>
      <trkpt lat="46.63666" lon="12.34347">
        <ele>2600.98</ele>
        <time>2019-02-28T13:02:25Z</time>
      </trkpt>
      <trkpt lat="46.6367" lon="12.34348">
        <ele>2602.43</ele>
        <time>2019-02-28T13:02:39Z</time>
      </trkpt>
      <trkpt lat="46.6367" lon="12.3434">
        <ele>2602.91</ele>
        <time>2019-02-28T13:02:52Z</time>
      </trkpt>
      <trkpt lat="46.63671" lon="12.34335">
        <ele>2604.83</ele>
        <time>2019-02-28T13:03:03Z</time>
      </trkpt>
      <trkpt lat="46.63672" lon="12.3433">
        <ele>2605.31</ele>
        <time>2019-02-28T13:03:15Z</time>
      </trkpt>
      <trkpt lat="46.63674" lon="12.34326">
        <ele>2606.27</ele>
        <time>2019-02-28T13:03:28Z</time>
      </trkpt>
      <trkpt lat="46.63674" lon="12.3432">
        <ele>2607.71</ele>
        <time>2019-02-28T13:03:42Z</time>
      </trkpt>
      <trkpt lat="46.63675" lon="12.34316">
        <ele>2608.67</ele>
        <time>2019-02-28T13:03:56Z</time>
      </trkpt>
      <trkpt lat="46.63677" lon="12.3431">
        <ele>2609.64</ele>
        <time>2019-02-28T13:04:08Z</time>
      </trkpt>
      <trkpt lat="46.63677" lon="12.34302">
        <ele>2611.08</ele>
        <time>2019-02-28T13:04:20Z</time>
      </trkpt>
      <trkpt lat="46.63677" lon="12.34299">
        <ele>2612.52</ele>
        <time>2019-02-28T13:04:32Z</time>
      </trkpt>
      <trkpt lat="46.63678" lon="12.34292">
        <ele>2613.96</ele>
        <time>2019-02-28T13:04:46Z</time>
      </trkpt>
      <trkpt lat="46.63677" lon="12.34288">
        <ele>2615.4</ele>
        <time>2019-02-28T13:04:58Z</time>
      </trkpt>
      <trkpt lat="46.63675" lon="12.34283">
        <ele>2616.37</ele>
        <time>2019-02-28T13:05:12Z</time>
      </trkpt>
      <trkpt lat="46.63673" lon="12.34274">
        <ele>2616.85</ele>
        <time>2019-02-28T13:05:26Z</time>
      </trkpt>
      <trkpt lat="46.63673" lon="12.34275">
        <ele>2617.33</ele>
        <time>2019-02-28T13:05:42Z</time>
      </trkpt>
      <trkpt lat="46.63673" lon="12.34273">
        <ele>2616.85</ele>
        <time>2019-02-28T13:06:02Z</time>
      </trkpt>
      <trkpt lat="46.63674" lon="12.34271">
        <ele>2617.81</ele>
        <time>2019-02-28T13:06:25Z</time>
      </trkpt>
      <trkpt lat="46.63673" lon="12.34265">
        <ele>2617.33</ele>
        <time>2019-02-28T13:06:37Z</time>
      </trkpt>
      <trkpt lat="46.63668" lon="12.34266">
        <ele>2617.81</ele>
        <time>2019-02-28T13:06:56Z</time>
      </trkpt>
      <trkpt lat="46.63669" lon="12.34266">
        <ele>2613.96</ele>
        <time>2019-02-28T13:06:59Z</time>
      </trkpt>
      <trkpt lat="46.63669" lon="12.34266">
        <ele>2613.96</ele>
        <time>2019-02-28T13:07:00Z</time>
      </trkpt>
      <trkpt lat="46.6367" lon="12.34266">
        <ele>2617.81</ele>
        <time>2019-02-28T13:07:04Z</time>
      </trkpt>
      <trkpt lat="46.63671" lon="12.34266">
        <ele>2617.81</ele>
        <time>2019-02-28T13:07:05Z</time>
      </trkpt>
      <trkpt lat="46.63671" lon="12.34266">
        <ele>2618.29</ele>
        <time>2019-02-28T13:07:17Z</time>
      </trkpt>
      <trkpt lat="46.63673" lon="12.34272">
        <ele>2617.81</ele>
        <time>2019-02-28T13:07:33Z</time>
      </trkpt>
      <trkpt lat="46.63677" lon="12.34287">
        <ele>2617.33</ele>
        <time>2019-02-28T13:07:50Z</time>
      </trkpt>
      <trkpt lat="46.6368" lon="12.34298">
        <ele>2616.37</ele>
        <time>2019-02-28T13:08:05Z</time>
      </trkpt>
      <trkpt lat="46.63683" lon="12.34305">
        <ele>2616.85</ele>
        <time>2019-02-28T13:08:21Z</time>
      </trkpt>
      <trkpt lat="46.63686" lon="12.34313">
        <ele>2618.77</ele>
        <time>2019-02-28T13:08:38Z</time>
      </trkpt>
      <trkpt lat="46.63688" lon="12.34324">
        <ele>2619.25</ele>
        <time>2019-02-28T13:08:54Z</time>
      </trkpt>
      <trkpt lat="46.63693" lon="12.34331">
        <ele>2620.21</ele>
        <time>2019-02-28T13:09:07Z</time>
      </trkpt>
      <trkpt lat="46.63693" lon="12.34334">
        <ele>2619.25</ele>
        <time>2019-02-28T13:09:24Z</time>
      </trkpt>
      <trkpt lat="46.63694" lon="12.34338">
        <ele>2620.69</ele>
        <time>2019-02-28T13:09:39Z</time>
      </trkpt>
      <trkpt lat="46.63695" lon="12.34342">
        <ele>2623.09</ele>
        <time>2019-02-28T13:09:53Z</time>
      </trkpt>
      <trkpt lat="46.63694" lon="12.3434">
        <ele>2622.13</ele>
        <time>2019-02-28T13:10:16Z</time>
      </trkpt>
      <trkpt lat="46.63694" lon="12.34341">
        <ele>2621.65</ele>
        <time>2019-02-28T13:10:33Z</time>
      </trkpt>
      <trkpt lat="46.63692" lon="12.34342">
        <ele>2620.69</ele>
        <time>2019-02-28T13:11:01Z</time>
      </trkpt>
      <trkpt lat="46.63694" lon="12.3434">
        <ele>2620.21</ele>
        <time>2019-02-28T13:11:25Z</time>
      </trkpt>
      <trkpt lat="46.63695" lon="12.3434">
        <ele>2619.25</ele>
        <time>2019-02-28T13:12:06Z</time>
      </trkpt>
      <trkpt lat="46.63696" lon="12.34339">
        <ele>2620.69</ele>
        <time>2019-02-28T13:12:31Z</time>
      </trkpt>
      <trkpt lat="46.63694" lon="12.34343">
        <ele>2620.21</ele>
        <time>2019-02-28T13:12:54Z</time>
      </trkpt>
      <trkpt lat="46.63696" lon="12.34345">
        <ele>2622.13</ele>
        <time>2019-02-28T13:13:09Z</time>
      </trkpt>
      <trkpt lat="46.63698" lon="12.34346">
        <ele>2623.58</ele>
        <time>2019-02-28T13:13:21Z</time>
      </trkpt>
      <trkpt lat="46.63698" lon="12.34349">
        <ele>2625.02</ele>
        <time>2019-02-28T13:13:34Z</time>
      </trkpt>
      <trkpt lat="46.637" lon="12.3435">
        <ele>2625.5</ele>
        <time>2019-02-28T13:13:48Z</time>
      </trkpt>
      <trkpt lat="46.63701" lon="12.34353">
        <ele>2626.94</ele>
        <time>2019-02-28T13:14:05Z</time>
      </trkpt>
      <trkpt lat="46.63702" lon="12.34353">
        <ele>2627.9</ele>
        <time>2019-02-28T13:14:25Z</time>
      </trkpt>
      <trkpt lat="46.63703" lon="12.34355">
        <ele>2627.9</ele>
        <time>2019-02-28T13:14:40Z</time>
      </trkpt>
      <trkpt lat="46.63704" lon="12.34358">
        <ele>2628.38</ele>
        <time>2019-02-28T13:14:52Z</time>
      </trkpt>
      <trkpt lat="46.63705" lon="12.3436">
        <ele>2629.34</ele>
        <time>2019-02-28T13:15:06Z</time>
      </trkpt>
      <trkpt lat="46.63704" lon="12.34365">
        <ele>2629.82</ele>
        <time>2019-02-28T13:15:23Z</time>
      </trkpt>
      <trkpt lat="46.63706" lon="12.3437">
        <ele>2630.79</ele>
        <time>2019-02-28T13:15:39Z</time>
      </trkpt>
      <trkpt lat="46.63704" lon="12.34373">
        <ele>2630.79</ele>
        <time>2019-02-28T13:15:56Z</time>
      </trkpt>
      <trkpt lat="46.63703" lon="12.34373">
        <ele>2629.34</ele>
        <time>2019-02-28T13:16:17Z</time>
      </trkpt>
      <trkpt lat="46.63702" lon="12.34373">
        <ele>2629.82</ele>
        <time>2019-02-28T13:16:47Z</time>
      </trkpt>
      <trkpt lat="46.63703" lon="12.34374">
        <ele>2629.82</ele>
        <time>2019-02-28T13:17:06Z</time>
      </trkpt>
      <trkpt lat="46.63704" lon="12.34374">
        <ele>2630.79</ele>
        <time>2019-02-28T13:17:22Z</time>
      </trkpt>
      <trkpt lat="46.63703" lon="12.34375">
        <ele>2630.79</ele>
        <time>2019-02-28T13:17:39Z</time>
      </trkpt>
      <trkpt lat="46.63703" lon="12.34373">
        <ele>2631.27</ele>
        <time>2019-02-28T13:17:57Z</time>
      </trkpt>
      <trkpt lat="46.63703" lon="12.34372">
        <ele>2630.79</ele>
        <time>2019-02-28T13:18:14Z</time>
      </trkpt>
      <trkpt lat="46.63705" lon="12.34375">
        <ele>2631.27</ele>
        <time>2019-02-28T13:18:39Z</time>
      </trkpt>
      <trkpt lat="46.63709" lon="12.34385">
        <ele>2632.71</ele>
        <time>2019-02-28T13:18:54Z</time>
      </trkpt>
      <trkpt lat="46.63711" lon="12.34394">
        <ele>2632.23</ele>
        <time>2019-02-28T13:19:07Z</time>
      </trkpt>
      <trkpt lat="46.63713" lon="12.34399">
        <ele>2634.63</ele>
        <time>2019-02-28T13:19:15Z</time>
      </trkpt>
      <trkpt lat="46.63715" lon="12.34405">
        <ele>2636.07</ele>
        <time>2019-02-28T13:19:26Z</time>
      </trkpt>
      <trkpt lat="46.63719" lon="12.34416">
        <ele>2635.11</ele>
        <time>2019-02-28T13:19:43Z</time>
      </trkpt>
      <trkpt lat="46.63721" lon="12.34424">
        <ele>2636.07</ele>
        <time>2019-02-28T13:19:58Z</time>
      </trkpt>
      <trkpt lat="46.63723" lon="12.34434">
        <ele>2635.59</ele>
        <time>2019-02-28T13:20:13Z</time>
      </trkpt>
      <trkpt lat="46.63726" lon="12.3444">
        <ele>2637.03</ele>
        <time>2019-02-28T13:20:27Z</time>
      </trkpt>
      <trkpt lat="46.63725" lon="12.3444">
        <ele>2637.03</ele>
        <time>2019-02-28T13:20:45Z</time>
      </trkpt>
      <trkpt lat="46.63725" lon="12.34444">
        <ele>2636.55</ele>
        <time>2019-02-28T13:21:01Z</time>
      </trkpt>
      <trkpt lat="46.6373" lon="12.34453">
        <ele>2636.55</ele>
        <time>2019-02-28T13:21:16Z</time>
      </trkpt>
      <trkpt lat="46.63731" lon="12.34462">
        <ele>2637.51</ele>
        <time>2019-02-28T13:21:34Z</time>
      </trkpt>
      <trkpt lat="46.63732" lon="12.34465">
        <ele>2637.99</ele>
        <time>2019-02-28T13:21:42Z</time>
      </trkpt>
      <trkpt lat="46.63735" lon="12.34476">
        <ele>2638.48</ele>
        <time>2019-02-28T13:21:56Z</time>
      </trkpt>
      <trkpt lat="46.63737" lon="12.34487">
        <ele>2638.96</ele>
        <time>2019-02-28T13:22:10Z</time>
      </trkpt>
      <trkpt lat="46.63737" lon="12.34496">
        <ele>2639.44</ele>
        <time>2019-02-28T13:22:25Z</time>
      </trkpt>
      <trkpt lat="46.63739" lon="12.34503">
        <ele>2639.92</ele>
        <time>2019-02-28T13:22:38Z</time>
      </trkpt>
      <trkpt lat="46.6374" lon="12.3451">
        <ele>2639.92</ele>
        <time>2019-02-28T13:22:59Z</time>
      </trkpt>
      <trkpt lat="46.63743" lon="12.34514">
        <ele>2642.8</ele>
        <time>2019-02-28T13:23:13Z</time>
      </trkpt>
      <trkpt lat="46.63743" lon="12.3452">
        <ele>2644.24</ele>
        <time>2019-02-28T13:23:28Z</time>
      </trkpt>
      <trkpt lat="46.63744" lon="12.34525">
        <ele>2645.69</ele>
        <time>2019-02-28T13:23:42Z</time>
      </trkpt>
      <trkpt lat="46.63746" lon="12.3453">
        <ele>2646.65</ele>
        <time>2019-02-28T13:23:59Z</time>
      </trkpt>
      <trkpt lat="46.63745" lon="12.34535">
        <ele>2647.13</ele>
        <time>2019-02-28T13:24:10Z</time>
      </trkpt>
      <trkpt lat="46.63748" lon="12.34533">
        <ele>2649.05</ele>
        <time>2019-02-28T13:24:23Z</time>
      </trkpt>
      <trkpt lat="46.63751" lon="12.3453">
        <ele>2650.01</ele>
        <time>2019-02-28T13:24:41Z</time>
      </trkpt>
      <trkpt lat="46.63753" lon="12.34527">
        <ele>2650.97</ele>
        <time>2019-02-28T13:24:54Z</time>
      </trkpt>
      <trkpt lat="46.63756" lon="12.34522">
        <ele>2651.45</ele>
        <time>2019-02-28T13:25:08Z</time>
      </trkpt>
      <trkpt lat="46.63759" lon="12.34519">
        <ele>2654.34</ele>
        <time>2019-02-28T13:25:21Z</time>
      </trkpt>
      <trkpt lat="46.63759" lon="12.34516">
        <ele>2655.78</ele>
        <time>2019-02-28T13:25:35Z</time>
      </trkpt>
      <trkpt lat="46.63763" lon="12.34512">
        <ele>2657.22</ele>
        <time>2019-02-28T13:25:49Z</time>
      </trkpt>
      <trkpt lat="46.63763" lon="12.34511">
        <ele>2657.7</ele>
        <time>2019-02-28T13:25:50Z</time>
      </trkpt>
      <trkpt lat="46.63765" lon="12.34509">
        <ele>2659.14</ele>
        <time>2019-02-28T13:26:04Z</time>
      </trkpt>
      <trkpt lat="46.63766" lon="12.3451">
        <ele>2660.11</ele>
        <time>2019-02-28T13:26:15Z</time>
      </trkpt>
      <trkpt lat="46.63768" lon="12.34514">
        <ele>2660.59</ele>
        <time>2019-02-28T13:26:29Z</time>
      </trkpt>
      <trkpt lat="46.63771" lon="12.34518">
        <ele>2659.62</ele>
        <time>2019-02-28T13:26:43Z</time>
      </trkpt>
      <trkpt lat="46.63773" lon="12.34522">
        <ele>2659.62</ele>
        <time>2019-02-28T13:27:00Z</time>
      </trkpt>
      <trkpt lat="46.63775" lon="12.3452">
        <ele>2661.07</ele>
        <time>2019-02-28T13:27:04Z</time>
      </trkpt>
      <trkpt lat="46.63776" lon="12.34516">
        <ele>2662.03</ele>
        <time>2019-02-28T13:27:17Z</time>
      </trkpt>
      <trkpt lat="46.63777" lon="12.34518">
        <ele>2663.47</ele>
        <time>2019-02-28T13:27:29Z</time>
      </trkpt>
      <trkpt lat="46.63779" lon="12.34521">
        <ele>2665.39</ele>
        <time>2019-02-28T13:27:42Z</time>
      </trkpt>
      <trkpt lat="46.63782" lon="12.34525">
        <ele>2667.8</ele>
        <time>2019-02-28T13:27:56Z</time>
      </trkpt>
      <trkpt lat="46.63784" lon="12.34529">
        <ele>2667.31</ele>
        <time>2019-02-28T13:28:09Z</time>
      </trkpt>
      <trkpt lat="46.63787" lon="12.34523">
        <ele>2668.76</ele>
        <time>2019-02-28T13:28:22Z</time>
      </trkpt>
      <trkpt lat="46.63789" lon="12.34518">
        <ele>2668.76</ele>
        <time>2019-02-28T13:28:34Z</time>
      </trkpt>
      <trkpt lat="46.63791" lon="12.34513">
        <ele>2671.64</ele>
        <time>2019-02-28T13:28:47Z</time>
      </trkpt>
      <trkpt lat="46.63792" lon="12.34508">
        <ele>2674.04</ele>
        <time>2019-02-28T13:29:05Z</time>
      </trkpt>
      <trkpt lat="46.63795" lon="12.34503">
        <ele>2675.01</ele>
        <time>2019-02-28T13:29:20Z</time>
      </trkpt>
      <trkpt lat="46.63797" lon="12.34505">
        <ele>2676.93</ele>
        <time>2019-02-28T13:29:35Z</time>
      </trkpt>
      <trkpt lat="46.63799" lon="12.34513">
        <ele>2676.45</ele>
        <time>2019-02-28T13:29:50Z</time>
      </trkpt>
      <trkpt lat="46.638" lon="12.34517">
        <ele>2676.93</ele>
        <time>2019-02-28T13:30:02Z</time>
      </trkpt>
      <trkpt lat="46.638" lon="12.34518">
        <ele>2677.89</ele>
        <time>2019-02-28T13:30:06Z</time>
      </trkpt>
      <trkpt lat="46.63803" lon="12.34524">
        <ele>2678.37</ele>
        <time>2019-02-28T13:30:22Z</time>
      </trkpt>
      <trkpt lat="46.63805" lon="12.3453">
        <ele>2679.33</ele>
        <time>2019-02-28T13:30:39Z</time>
      </trkpt>
      <trkpt lat="46.63804" lon="12.34529">
        <ele>2678.37</ele>
        <time>2019-02-28T13:30:51Z</time>
      </trkpt>
      <trkpt lat="46.63807" lon="12.3453">
        <ele>2678.37</ele>
        <time>2019-02-28T13:31:18Z</time>
      </trkpt>
      <trkpt lat="46.6381" lon="12.34536">
        <ele>2681.73</ele>
        <time>2019-02-28T13:31:31Z</time>
      </trkpt>
      <trkpt lat="46.63812" lon="12.34534">
        <ele>2684.14</ele>
        <time>2019-02-28T13:31:41Z</time>
      </trkpt>
      <trkpt lat="46.63815" lon="12.3453">
        <ele>2682.7</ele>
        <time>2019-02-28T13:31:55Z</time>
      </trkpt>
      <trkpt lat="46.63814" lon="12.34536">
        <ele>2683.66</ele>
        <time>2019-02-28T13:32:22Z</time>
      </trkpt>
      <trkpt lat="46.63819" lon="12.3454">
        <ele>2685.58</ele>
        <time>2019-02-28T13:32:35Z</time>
      </trkpt>
      <trkpt lat="46.6382" lon="12.34538">
        <ele>2686.06</ele>
        <time>2019-02-28T13:32:56Z</time>
      </trkpt>
      <trkpt lat="46.63819" lon="12.34538">
        <ele>2687.5</ele>
        <time>2019-02-28T13:33:02Z</time>
      </trkpt>
      <trkpt lat="46.63819" lon="12.34539">
        <ele>2688.46</ele>
        <time>2019-02-28T13:33:09Z</time>
      </trkpt>
      <trkpt lat="46.63819" lon="12.34541">
        <ele>2685.1</ele>
        <time>2019-02-28T13:33:24Z</time>
      </trkpt>
      <trkpt lat="46.63821" lon="12.34542">
        <ele>2685.58</ele>
        <time>2019-02-28T13:33:36Z</time>
      </trkpt>
      <trkpt lat="46.63822" lon="12.3454">
        <ele>2685.58</ele>
        <time>2019-02-28T13:33:56Z</time>
      </trkpt>
      <trkpt lat="46.63823" lon="12.34539">
        <ele>2685.1</ele>
        <time>2019-02-28T13:34:19Z</time>
      </trkpt>
      <trkpt lat="46.63822" lon="12.34542">
        <ele>2685.1</ele>
        <time>2019-02-28T13:34:35Z</time>
      </trkpt>
      <trkpt lat="46.6382" lon="12.34543">
        <ele>2685.1</ele>
        <time>2019-02-28T13:34:54Z</time>
      </trkpt>
      <trkpt lat="46.63821" lon="12.34544">
        <ele>2683.66</ele>
        <time>2019-02-28T13:35:13Z</time>
      </trkpt>
      <trkpt lat="46.6382" lon="12.34544">
        <ele>2685.1</ele>
        <time>2019-02-28T13:35:20Z</time>
      </trkpt>
      <trkpt lat="46.63819" lon="12.34544">
        <ele>2683.66</ele>
        <time>2019-02-28T13:35:23Z</time>
      </trkpt>
      <trkpt lat="46.63819" lon="12.34546">
        <ele>2687.98</ele>
        <time>2019-02-28T13:35:36Z</time>
      </trkpt>
      <trkpt lat="46.63819" lon="12.34546">
        <ele>2687.02</ele>
        <time>2019-02-28T13:35:37Z</time>
      </trkpt>
      <trkpt lat="46.6382" lon="12.34545">
        <ele>2684.14</ele>
        <time>2019-02-28T13:35:41Z</time>
      </trkpt>
      <trkpt lat="46.6382" lon="12.34544">
        <ele>2682.22</ele>
        <time>2019-02-28T13:36:11Z</time>
      </trkpt>
      <trkpt lat="46.6382" lon="12.34544">
        <ele>2682.22</ele>
        <time>2019-02-28T13:36:41Z</time>
      </trkpt>
      <trkpt lat="46.63816" lon="12.34549">
        <ele>2682.22</ele>
        <time>2019-02-28T13:37:14Z</time>
      </trkpt>
      <trkpt lat="46.63817" lon="12.34548">
        <ele>2683.18</ele>
        <time>2019-02-28T13:37:47Z</time>
      </trkpt>
      <trkpt lat="46.63817" lon="12.34548">
        <ele>2684.14</ele>
        <time>2019-02-28T13:38:09Z</time>
      </trkpt>
      <trkpt lat="46.63817" lon="12.34549">
        <ele>2685.1</ele>
        <time>2019-02-28T13:38:16Z</time>
      </trkpt>
      <trkpt lat="46.63817" lon="12.34546">
        <ele>2684.14</ele>
        <time>2019-02-28T13:38:50Z</time>
      </trkpt>
      <trkpt lat="46.6382" lon="12.34545">
        <ele>2685.58</ele>
        <time>2019-02-28T13:39:19Z</time>
      </trkpt>
      <trkpt lat="46.6382" lon="12.34547">
        <ele>2686.54</ele>
        <time>2019-02-28T13:39:40Z</time>
      </trkpt>
      <trkpt lat="46.6382" lon="12.34547">
        <ele>2686.06</ele>
        <time>2019-02-28T13:39:51Z</time>
      </trkpt>
      <trkpt lat="46.6382" lon="12.34548">
        <ele>2683.66</ele>
        <time>2019-02-28T13:39:57Z</time>
      </trkpt>
      <trkpt lat="46.6382" lon="12.34548">
        <ele>2685.58</ele>
        <time>2019-02-28T13:40:00Z</time>
      </trkpt>
      <trkpt lat="46.6382" lon="12.34547">
        <ele>2686.54</ele>
        <time>2019-02-28T13:40:09Z</time>
      </trkpt>
      <trkpt lat="46.63819" lon="12.34548">
        <ele>2684.62</ele>
        <time>2019-02-28T13:40:44Z</time>
      </trkpt>
      <trkpt lat="46.63818" lon="12.34548">
        <ele>2684.14</ele>
        <time>2019-02-28T13:40:59Z</time>
      </trkpt>
      <trkpt lat="46.63818" lon="12.34548">
        <ele>2685.1</ele>
        <time>2019-02-28T13:41:36Z</time>
      </trkpt>
      <trkpt lat="46.63819" lon="12.34548">
        <ele>2684.14</ele>
        <time>2019-02-28T13:42:00Z</time>
      </trkpt>
      <trkpt lat="46.63818" lon="12.34548">
        <ele>2685.1</ele>
        <time>2019-02-28T13:42:40Z</time>
      </trkpt>
      <trkpt lat="46.63819" lon="12.34546">
        <ele>2685.1</ele>
        <time>2019-02-28T13:43:08Z</time>
      </trkpt>
      <trkpt lat="46.63818" lon="12.34547">
        <ele>2684.62</ele>
        <time>2019-02-28T13:43:37Z</time>
      </trkpt>
      <trkpt lat="46.63818" lon="12.34547">
        <ele>2685.1</ele>
        <time>2019-02-28T13:44:02Z</time>
      </trkpt>
      <trkpt lat="46.63818" lon="12.34547">
        <ele>2685.1</ele>
        <time>2019-02-28T13:44:32Z</time>
      </trkpt>
      <trkpt lat="46.63818" lon="12.34548">
        <ele>2683.66</ele>
        <time>2019-02-28T13:44:51Z</time>
      </trkpt>
      <trkpt lat="46.63818" lon="12.34547">
        <ele>2684.14</ele>
        <time>2019-02-28T13:45:11Z</time>
      </trkpt>
      <trkpt lat="46.63818" lon="12.34548">
        <ele>2683.18</ele>
        <time>2019-02-28T13:45:35Z</time>
      </trkpt>
      <trkpt lat="46.63818" lon="12.34548">
        <ele>2683.18</ele>
        <time>2019-02-28T13:45:58Z</time>
      </trkpt>
      <trkpt lat="46.63818" lon="12.34547">
        <ele>2683.66</ele>
        <time>2019-02-28T13:46:18Z</time>
      </trkpt>
      <trkpt lat="46.63817" lon="12.34548">
        <ele>2684.62</ele>
        <time>2019-02-28T13:46:49Z</time>
      </trkpt>
      <trkpt lat="46.63818" lon="12.34547">
        <ele>2683.18</ele>
        <time>2019-02-28T13:47:12Z</time>
      </trkpt>
      <trkpt lat="46.63817" lon="12.3455">
        <ele>2683.18</ele>
        <time>2019-02-28T13:47:47Z</time>
      </trkpt>
      <trkpt lat="46.63816" lon="12.34547">
        <ele>2684.14</ele>
        <time>2019-02-28T13:48:08Z</time>
      </trkpt>
      <trkpt lat="46.63816" lon="12.34546">
        <ele>2685.1</ele>
        <time>2019-02-28T13:48:37Z</time>
      </trkpt>
      <trkpt lat="46.63815" lon="12.34546">
        <ele>2684.62</ele>
        <time>2019-02-28T13:49:09Z</time>
      </trkpt>
      <trkpt lat="46.63815" lon="12.34546">
        <ele>2687.02</ele>
        <time>2019-02-28T13:49:26Z</time>
      </trkpt>
      <trkpt lat="46.63815" lon="12.34546">
        <ele>2686.06</ele>
        <time>2019-02-28T13:49:57Z</time>
      </trkpt>
      <trkpt lat="46.63815" lon="12.34547">
        <ele>2689.43</ele>
        <time>2019-02-28T13:50:18Z</time>
      </trkpt>
      <trkpt lat="46.63816" lon="12.34546">
        <ele>2688.94</ele>
        <time>2019-02-28T13:50:19Z</time>
      </trkpt>
      <trkpt lat="46.63817" lon="12.34546">
        <ele>2685.1</ele>
        <time>2019-02-28T13:50:22Z</time>
      </trkpt>
      <trkpt lat="46.63818" lon="12.34545">
        <ele>2685.1</ele>
        <time>2019-02-28T13:50:23Z</time>
      </trkpt>
      <trkpt lat="46.63821" lon="12.34543">
        <ele>2689.43</ele>
        <time>2019-02-28T13:50:33Z</time>
      </trkpt>
      <trkpt lat="46.63821" lon="12.34544">
        <ele>2688.94</ele>
        <time>2019-02-28T13:50:34Z</time>
      </trkpt>
      <trkpt lat="46.63821" lon="12.34544">
        <ele>2687.98</ele>
        <time>2019-02-28T13:50:36Z</time>
      </trkpt>
      <trkpt lat="46.6382" lon="12.34544">
        <ele>2687.5</ele>
        <time>2019-02-28T13:50:46Z</time>
      </trkpt>
      <trkpt lat="46.6382" lon="12.34544">
        <ele>2690.87</ele>
        <time>2019-02-28T13:50:49Z</time>
      </trkpt>
      <trkpt lat="46.6382" lon="12.34545">
        <ele>2687.5</ele>
        <time>2019-02-28T13:50:52Z</time>
      </trkpt>
      <trkpt lat="46.6382" lon="12.34544">
        <ele>2690.87</ele>
        <time>2019-02-28T13:50:54Z</time>
      </trkpt>
      <trkpt lat="46.63819" lon="12.34544">
        <ele>2690.39</ele>
        <time>2019-02-28T13:50:55Z</time>
      </trkpt>
      <trkpt lat="46.63818" lon="12.34543">
        <ele>2688.46</ele>
        <time>2019-02-28T13:50:58Z</time>
      </trkpt>
      <trkpt lat="46.63819" lon="12.34542">
        <ele>2688.94</ele>
        <time>2019-02-28T13:51:23Z</time>
      </trkpt>
      <trkpt lat="46.63818" lon="12.34544">
        <ele>2687.02</ele>
        <time>2019-02-28T13:51:43Z</time>
      </trkpt>
      <trkpt lat="46.6382" lon="12.34544">
        <ele>2684.14</ele>
        <time>2019-02-28T13:52:02Z</time>
      </trkpt>
      <trkpt lat="46.6382" lon="12.34544">
        <ele>2687.5</ele>
        <time>2019-02-28T13:52:08Z</time>
      </trkpt>
      <trkpt lat="46.63821" lon="12.34544">
        <ele>2687.5</ele>
        <time>2019-02-28T13:52:28Z</time>
      </trkpt>
      <trkpt lat="46.63821" lon="12.34543">
        <ele>2689.43</ele>
        <time>2019-02-28T13:52:35Z</time>
      </trkpt>
      <trkpt lat="46.63821" lon="12.34543">
        <ele>2686.06</ele>
        <time>2019-02-28T13:52:46Z</time>
      </trkpt>
      <trkpt lat="46.63821" lon="12.34543">
        <ele>2686.06</ele>
        <time>2019-02-28T13:52:47Z</time>
      </trkpt>
      <trkpt lat="46.6382" lon="12.34543">
        <ele>2687.02</ele>
        <time>2019-02-28T13:53:08Z</time>
      </trkpt>
      <trkpt lat="46.63818" lon="12.34543">
        <ele>2686.54</ele>
        <time>2019-02-28T13:53:29Z</time>
      </trkpt>
      <trkpt lat="46.63815" lon="12.34538">
        <ele>2686.06</ele>
        <time>2019-02-28T13:53:43Z</time>
      </trkpt>
      <trkpt lat="46.63816" lon="12.34537">
        <ele>2685.58</ele>
        <time>2019-02-28T13:54:01Z</time>
      </trkpt>
      <trkpt lat="46.63815" lon="12.34532">
        <ele>2685.1</ele>
        <time>2019-02-28T13:54:09Z</time>
      </trkpt>
      <trkpt lat="46.63811" lon="12.34537">
        <ele>2685.58</ele>
        <time>2019-02-28T13:54:18Z</time>
      </trkpt>
      <trkpt lat="46.6381" lon="12.34536">
        <ele>2683.66</ele>
        <time>2019-02-28T13:54:37Z</time>
      </trkpt>
      <trkpt lat="46.63809" lon="12.34536">
        <ele>2683.18</ele>
        <time>2019-02-28T13:54:44Z</time>
      </trkpt>
      <trkpt lat="46.63808" lon="12.34542">
        <ele>2681.25</ele>
        <time>2019-02-28T13:55:00Z</time>
      </trkpt>
      <trkpt lat="46.63807" lon="12.34542">
        <ele>2680.77</ele>
        <time>2019-02-28T13:55:24Z</time>
      </trkpt>
      <trkpt lat="46.63808" lon="12.34542">
        <ele>2680.29</ele>
        <time>2019-02-28T13:55:38Z</time>
      </trkpt>
      <trkpt lat="46.63808" lon="12.34558">
        <ele>2679.33</ele>
        <time>2019-02-28T13:55:43Z</time>
      </trkpt>
      <trkpt lat="46.63809" lon="12.34563">
        <ele>2677.89</ele>
        <time>2019-02-28T13:55:46Z</time>
      </trkpt>
      <trkpt lat="46.6381" lon="12.34567">
        <ele>2677.41</ele>
        <time>2019-02-28T13:55:48Z</time>
      </trkpt>
      <trkpt lat="46.63803" lon="12.34566">
        <ele>2674.04</ele>
        <time>2019-02-28T13:55:51Z</time>
      </trkpt>
      <trkpt lat="46.63801" lon="12.34562">
        <ele>2672.6</ele>
        <time>2019-02-28T13:55:53Z</time>
      </trkpt>
      <trkpt lat="46.63802" lon="12.34561">
        <ele>2672.6</ele>
        <time>2019-02-28T13:56:07Z</time>
      </trkpt>
      <trkpt lat="46.63799" lon="12.3456">
        <ele>2673.08</ele>
        <time>2019-02-28T13:56:31Z</time>
      </trkpt>
      <trkpt lat="46.638" lon="12.3456">
        <ele>2674.04</ele>
        <time>2019-02-28T13:56:58Z</time>
      </trkpt>
      <trkpt lat="46.63799" lon="12.34561">
        <ele>2674.52</ele>
        <time>2019-02-28T13:57:09Z</time>
      </trkpt>
      <trkpt lat="46.6379" lon="12.34554">
        <ele>2670.68</ele>
        <time>2019-02-28T13:57:13Z</time>
      </trkpt>
      <trkpt lat="46.63785" lon="12.34543">
        <ele>2667.31</ele>
        <time>2019-02-28T13:57:17Z</time>
      </trkpt>
      <trkpt lat="46.63781" lon="12.34558">
        <ele>2665.39</ele>
        <time>2019-02-28T13:57:22Z</time>
      </trkpt>
      <trkpt lat="46.63771" lon="12.34562">
        <ele>2661.07</ele>
        <time>2019-02-28T13:57:25Z</time>
      </trkpt>
      <trkpt lat="46.63771" lon="12.34552">
        <ele>2660.59</ele>
        <time>2019-02-28T13:57:30Z</time>
      </trkpt>
      <trkpt lat="46.63771" lon="12.34551">
        <ele>2660.59</ele>
        <time>2019-02-28T13:57:31Z</time>
      </trkpt>
      <trkpt lat="46.63768" lon="12.34537">
        <ele>2660.11</ele>
        <time>2019-02-28T13:57:42Z</time>
      </trkpt>
      <trkpt lat="46.63768" lon="12.34537">
        <ele>2660.11</ele>
        <time>2019-02-28T13:57:43Z</time>
      </trkpt>
      <trkpt lat="46.63763" lon="12.34543">
        <ele>2658.18</ele>
        <time>2019-02-28T13:57:46Z</time>
      </trkpt>
      <trkpt lat="46.63762" lon="12.34552">
        <ele>2657.7</ele>
        <time>2019-02-28T13:57:48Z</time>
      </trkpt>
      <trkpt lat="46.63756" lon="12.34549">
        <ele>2654.34</ele>
        <time>2019-02-28T13:57:51Z</time>
      </trkpt>
      <trkpt lat="46.63755" lon="12.34542">
        <ele>2653.38</ele>
        <time>2019-02-28T13:57:53Z</time>
      </trkpt>
      <trkpt lat="46.63753" lon="12.34538">
        <ele>2652.9</ele>
        <time>2019-02-28T13:58:10Z</time>
      </trkpt>
      <trkpt lat="46.63751" lon="12.34536">
        <ele>2653.38</ele>
        <time>2019-02-28T13:58:12Z</time>
      </trkpt>
      <trkpt lat="46.63748" lon="12.3454">
        <ele>2650.97</ele>
        <time>2019-02-28T13:58:17Z</time>
      </trkpt>
      <trkpt lat="46.63748" lon="12.34542">
        <ele>2650.01</ele>
        <time>2019-02-28T13:58:39Z</time>
      </trkpt>
      <trkpt lat="46.63748" lon="12.34543">
        <ele>2651.93</ele>
        <time>2019-02-28T13:58:57Z</time>
      </trkpt>
      <trkpt lat="46.63747" lon="12.34543">
        <ele>2652.42</ele>
        <time>2019-02-28T13:59:00Z</time>
      </trkpt>
      <trkpt lat="46.63743" lon="12.34533">
        <ele>2650.01</ele>
        <time>2019-02-28T13:59:06Z</time>
      </trkpt>
      <trkpt lat="46.63742" lon="12.34528">
        <ele>2649.05</ele>
        <time>2019-02-28T13:59:07Z</time>
      </trkpt>
      <trkpt lat="46.63741" lon="12.34522">
        <ele>2648.09</ele>
        <time>2019-02-28T13:59:08Z</time>
      </trkpt>
      <trkpt lat="46.63739" lon="12.34514">
        <ele>2647.61</ele>
        <time>2019-02-28T13:59:09Z</time>
      </trkpt>
      <trkpt lat="46.63737" lon="12.34505">
        <ele>2645.69</ele>
        <time>2019-02-28T13:59:10Z</time>
      </trkpt>
      <trkpt lat="46.63737" lon="12.34497">
        <ele>2643.28</ele>
        <time>2019-02-28T13:59:11Z</time>
      </trkpt>
      <trkpt lat="46.63737" lon="12.34492">
        <ele>2641.36</ele>
        <time>2019-02-28T13:59:12Z</time>
      </trkpt>
      <trkpt lat="46.63737" lon="12.34488">
        <ele>2639.92</ele>
        <time>2019-02-28T13:59:13Z</time>
      </trkpt>
      <trkpt lat="46.63736" lon="12.34485">
        <ele>2639.92</ele>
        <time>2019-02-28T13:59:14Z</time>
      </trkpt>
      <trkpt lat="46.63727" lon="12.34446">
        <ele>2636.55</ele>
        <time>2019-02-28T13:59:24Z</time>
      </trkpt>
      <trkpt lat="46.63725" lon="12.3444">
        <ele>2635.59</ele>
        <time>2019-02-28T13:59:26Z</time>
      </trkpt>
      <trkpt lat="46.63724" lon="12.34442">
        <ele>2637.51</ele>
        <time>2019-02-28T13:59:44Z</time>
      </trkpt>
      <trkpt lat="46.63724" lon="12.34444">
        <ele>2637.03</ele>
        <time>2019-02-28T14:00:07Z</time>
      </trkpt>
      <trkpt lat="46.6372" lon="12.34455">
        <ele>2635.59</ele>
        <time>2019-02-28T14:00:11Z</time>
      </trkpt>
      <trkpt lat="46.63717" lon="12.3448">
        <ele>2630.79</ele>
        <time>2019-02-28T14:00:16Z</time>
      </trkpt>
      <trkpt lat="46.63717" lon="12.34482">
        <ele>2629.34</ele>
        <time>2019-02-28T14:00:18Z</time>
      </trkpt>
      <trkpt lat="46.63718" lon="12.34481">
        <ele>2629.34</ele>
        <time>2019-02-28T14:00:32Z</time>
      </trkpt>
      <trkpt lat="46.63717" lon="12.3448">
        <ele>2628.86</ele>
        <time>2019-02-28T14:00:57Z</time>
      </trkpt>
      <trkpt lat="46.63716" lon="12.34481">
        <ele>2628.86</ele>
        <time>2019-02-28T14:00:59Z</time>
      </trkpt>
      <trkpt lat="46.63713" lon="12.34487">
        <ele>2627.42</ele>
        <time>2019-02-28T14:01:02Z</time>
      </trkpt>
      <trkpt lat="46.63711" lon="12.34485">
        <ele>2628.86</ele>
        <time>2019-02-28T14:01:03Z</time>
      </trkpt>
      <trkpt lat="46.63709" lon="12.34479">
        <ele>2625.02</ele>
        <time>2019-02-28T14:01:06Z</time>
      </trkpt>
      <trkpt lat="46.63708" lon="12.34476">
        <ele>2624.54</ele>
        <time>2019-02-28T14:01:08Z</time>
      </trkpt>
      <trkpt lat="46.63702" lon="12.34479">
        <ele>2619.73</ele>
        <time>2019-02-28T14:01:10Z</time>
      </trkpt>
      <trkpt lat="46.637" lon="12.34483">
        <ele>2619.73</ele>
        <time>2019-02-28T14:01:11Z</time>
      </trkpt>
      <trkpt lat="46.63698" lon="12.34495">
        <ele>2616.37</ele>
        <time>2019-02-28T14:01:14Z</time>
      </trkpt>
      <trkpt lat="46.63696" lon="12.34492">
        <ele>2616.85</ele>
        <time>2019-02-28T14:01:18Z</time>
      </trkpt>
      <trkpt lat="46.63693" lon="12.3448">
        <ele>2613</ele>
        <time>2019-02-28T14:01:21Z</time>
      </trkpt>
      <trkpt lat="46.63687" lon="12.34482">
        <ele>2608.19</ele>
        <time>2019-02-28T14:01:25Z</time>
      </trkpt>
      <trkpt lat="46.63686" lon="12.34485">
        <ele>2608.19</ele>
        <time>2019-02-28T14:01:26Z</time>
      </trkpt>
      <trkpt lat="46.63683" lon="12.34479">
        <ele>2604.35</ele>
        <time>2019-02-28T14:01:30Z</time>
      </trkpt>
      <trkpt lat="46.63683" lon="12.34479">
        <ele>2604.35</ele>
        <time>2019-02-28T14:01:31Z</time>
      </trkpt>
      <trkpt lat="46.63681" lon="12.34478">
        <ele>2603.87</ele>
        <time>2019-02-28T14:01:33Z</time>
      </trkpt>
      <trkpt lat="46.63678" lon="12.34484">
        <ele>2600.5</ele>
        <time>2019-02-28T14:01:36Z</time>
      </trkpt>
      <trkpt lat="46.63678" lon="12.3448">
        <ele>2602.43</ele>
        <time>2019-02-28T14:01:51Z</time>
      </trkpt>
      <trkpt lat="46.63677" lon="12.34482">
        <ele>2600.5</ele>
        <time>2019-02-28T14:02:05Z</time>
      </trkpt>
      <trkpt lat="46.63673" lon="12.34475">
        <ele>2597.14</ele>
        <time>2019-02-28T14:02:09Z</time>
      </trkpt>
      <trkpt lat="46.63671" lon="12.34475">
        <ele>2596.18</ele>
        <time>2019-02-28T14:02:15Z</time>
      </trkpt>
      <trkpt lat="46.63666" lon="12.34465">
        <ele>2593.77</ele>
        <time>2019-02-28T14:02:29Z</time>
      </trkpt>
      <trkpt lat="46.63661" lon="12.34443">
        <ele>2591.85</ele>
        <time>2019-02-28T14:02:39Z</time>
      </trkpt>
      <trkpt lat="46.63661" lon="12.34442">
        <ele>2591.85</ele>
        <time>2019-02-28T14:02:40Z</time>
      </trkpt>
      <trkpt lat="46.63649" lon="12.34424">
        <ele>2588.97</ele>
        <time>2019-02-28T14:02:47Z</time>
      </trkpt>
      <trkpt lat="46.63649" lon="12.34432">
        <ele>2586.08</ele>
        <time>2019-02-28T14:02:50Z</time>
      </trkpt>
      <trkpt lat="46.63649" lon="12.34432">
        <ele>2586.08</ele>
        <time>2019-02-28T14:02:57Z</time>
      </trkpt>
      <trkpt lat="46.63643" lon="12.34424">
        <ele>2582.24</ele>
        <time>2019-02-28T14:03:01Z</time>
      </trkpt>
      <trkpt lat="46.63643" lon="12.3442">
        <ele>2582.72</ele>
        <time>2019-02-28T14:03:02Z</time>
      </trkpt>
      <trkpt lat="46.63644" lon="12.34419">
        <ele>2582.72</ele>
        <time>2019-02-28T14:03:11Z</time>
      </trkpt>
      <trkpt lat="46.63642" lon="12.34421">
        <ele>2583.2</ele>
        <time>2019-02-28T14:03:38Z</time>
      </trkpt>
      <trkpt lat="46.63646" lon="12.34423">
        <ele>2580.8</ele>
        <time>2019-02-28T14:03:44Z</time>
      </trkpt>
      <trkpt lat="46.63647" lon="12.34415">
        <ele>2581.76</ele>
        <time>2019-02-28T14:04:01Z</time>
      </trkpt>
      <trkpt lat="46.63641" lon="12.34417">
        <ele>2581.28</ele>
        <time>2019-02-28T14:04:13Z</time>
      </trkpt>
      <trkpt lat="46.63641" lon="12.34417">
        <ele>2579.84</ele>
        <time>2019-02-28T14:04:15Z</time>
      </trkpt>
      <trkpt lat="46.63636" lon="12.34404">
        <ele>2577.91</ele>
        <time>2019-02-28T14:04:18Z</time>
      </trkpt>
      <trkpt lat="46.63634" lon="12.34393">
        <ele>2574.07</ele>
        <time>2019-02-28T14:04:22Z</time>
      </trkpt>
      <trkpt lat="46.63634" lon="12.34393">
        <ele>2576.47</ele>
        <time>2019-02-28T14:04:27Z</time>
      </trkpt>
      <trkpt lat="46.63622" lon="12.34364">
        <ele>2574.07</ele>
        <time>2019-02-28T14:04:36Z</time>
      </trkpt>
      <trkpt lat="46.63615" lon="12.34349">
        <ele>2572.14</ele>
        <time>2019-02-28T14:04:40Z</time>
      </trkpt>
      <trkpt lat="46.63609" lon="12.34339">
        <ele>2569.26</ele>
        <time>2019-02-28T14:04:42Z</time>
      </trkpt>
      <trkpt lat="46.63603" lon="12.34331">
        <ele>2567.34</ele>
        <time>2019-02-28T14:04:44Z</time>
      </trkpt>
      <trkpt lat="46.63599" lon="12.34323">
        <ele>2567.82</ele>
        <time>2019-02-28T14:04:47Z</time>
      </trkpt>
      <trkpt lat="46.63596" lon="12.34317">
        <ele>2567.34</ele>
        <time>2019-02-28T14:04:49Z</time>
      </trkpt>
      <trkpt lat="46.63593" lon="12.34311">
        <ele>2565.9</ele>
        <time>2019-02-28T14:04:50Z</time>
      </trkpt>
      <trkpt lat="46.63588" lon="12.34319">
        <ele>2562.05</ele>
        <time>2019-02-28T14:04:54Z</time>
      </trkpt>
      <trkpt lat="46.6359" lon="12.34321">
        <ele>2562.53</ele>
        <time>2019-02-28T14:05:04Z</time>
      </trkpt>
      <trkpt lat="46.63591" lon="12.34321">
        <ele>2562.53</ele>
        <time>2019-02-28T14:05:23Z</time>
      </trkpt>
      <trkpt lat="46.63591" lon="12.34321">
        <ele>2562.53</ele>
        <time>2019-02-28T14:05:28Z</time>
      </trkpt>
      <trkpt lat="46.63582" lon="12.34328">
        <ele>2559.65</ele>
        <time>2019-02-28T14:05:32Z</time>
      </trkpt>
      <trkpt lat="46.63582" lon="12.34332">
        <ele>2559.65</ele>
        <time>2019-02-28T14:05:33Z</time>
      </trkpt>
      <trkpt lat="46.63584" lon="12.34337">
        <ele>2558.21</ele>
        <time>2019-02-28T14:05:35Z</time>
      </trkpt>
      <trkpt lat="46.63579" lon="12.3434">
        <ele>2555.32</ele>
        <time>2019-02-28T14:05:39Z</time>
      </trkpt>
      <trkpt lat="46.63577" lon="12.34347">
        <ele>2553.4</ele>
        <time>2019-02-28T14:05:42Z</time>
      </trkpt>
      <trkpt lat="46.6357" lon="12.34346">
        <ele>2551</ele>
        <time>2019-02-28T14:05:45Z</time>
      </trkpt>
      <trkpt lat="46.6357" lon="12.34346">
        <ele>2550.51</ele>
        <time>2019-02-28T14:05:46Z</time>
      </trkpt>
      <trkpt lat="46.63573" lon="12.34358">
        <ele>2548.11</ele>
        <time>2019-02-28T14:05:52Z</time>
      </trkpt>
      <trkpt lat="46.63571" lon="12.34357">
        <ele>2546.67</ele>
        <time>2019-02-28T14:06:13Z</time>
      </trkpt>
      <trkpt lat="46.6357" lon="12.34357">
        <ele>2546.67</ele>
        <time>2019-02-28T14:06:16Z</time>
      </trkpt>
      <trkpt lat="46.63556" lon="12.34354">
        <ele>2542.82</ele>
        <time>2019-02-28T14:06:21Z</time>
      </trkpt>
      <trkpt lat="46.63548" lon="12.3435">
        <ele>2541.38</ele>
        <time>2019-02-28T14:06:24Z</time>
      </trkpt>
      <trkpt lat="46.63546" lon="12.3435">
        <ele>2541.38</ele>
        <time>2019-02-28T14:06:38Z</time>
      </trkpt>
      <trkpt lat="46.63546" lon="12.34351">
        <ele>2541.38</ele>
        <time>2019-02-28T14:06:42Z</time>
      </trkpt>
      <trkpt lat="46.63552" lon="12.34372">
        <ele>2537.54</ele>
        <time>2019-02-28T14:06:47Z</time>
      </trkpt>
      <trkpt lat="46.63547" lon="12.34385">
        <ele>2532.73</ele>
        <time>2019-02-28T14:06:51Z</time>
      </trkpt>
      <trkpt lat="46.63542" lon="12.34389">
        <ele>2531.29</ele>
        <time>2019-02-28T14:06:53Z</time>
      </trkpt>
      <trkpt lat="46.63552" lon="12.34418">
        <ele>2528.4</ele>
        <time>2019-02-28T14:06:58Z</time>
      </trkpt>
      <trkpt lat="46.63556" lon="12.34449">
        <ele>2525.04</ele>
        <time>2019-02-28T14:07:03Z</time>
      </trkpt>
      <trkpt lat="46.63554" lon="12.34471">
        <ele>2522.16</ele>
        <time>2019-02-28T14:07:07Z</time>
      </trkpt>
      <trkpt lat="46.63554" lon="12.34463">
        <ele>2519.75</ele>
        <time>2019-02-28T14:07:13Z</time>
      </trkpt>
      <trkpt lat="46.63552" lon="12.34458">
        <ele>2520.71</ele>
        <time>2019-02-28T14:07:41Z</time>
      </trkpt>
      <trkpt lat="46.63551" lon="12.34457">
        <ele>2520.23</ele>
        <time>2019-02-28T14:07:51Z</time>
      </trkpt>
      <trkpt lat="46.63546" lon="12.34472">
        <ele>2517.83</ele>
        <time>2019-02-28T14:07:55Z</time>
      </trkpt>
      <trkpt lat="46.63544" lon="12.34494">
        <ele>2515.43</ele>
        <time>2019-02-28T14:07:59Z</time>
      </trkpt>
      <trkpt lat="46.63544" lon="12.34503">
        <ele>2514.95</ele>
        <time>2019-02-28T14:08:01Z</time>
      </trkpt>
      <trkpt lat="46.63536" lon="12.34503">
        <ele>2509.66</ele>
        <time>2019-02-28T14:08:04Z</time>
      </trkpt>
      <trkpt lat="46.63534" lon="12.34493">
        <ele>2508.7</ele>
        <time>2019-02-28T14:08:06Z</time>
      </trkpt>
      <trkpt lat="46.63524" lon="12.34496">
        <ele>2505.81</ele>
        <time>2019-02-28T14:08:10Z</time>
      </trkpt>
      <trkpt lat="46.63518" lon="12.34502">
        <ele>2500.53</ele>
        <time>2019-02-28T14:08:13Z</time>
      </trkpt>
      <trkpt lat="46.63516" lon="12.34498">
        <ele>2499.08</ele>
        <time>2019-02-28T14:08:18Z</time>
      </trkpt>
      <trkpt lat="46.63514" lon="12.34514">
        <ele>2496.2</ele>
        <time>2019-02-28T14:08:22Z</time>
      </trkpt>
      <trkpt lat="46.63514" lon="12.34515">
        <ele>2495.72</ele>
        <time>2019-02-28T14:08:30Z</time>
      </trkpt>
      <trkpt lat="46.63513" lon="12.34516">
        <ele>2495.72</ele>
        <time>2019-02-28T14:08:51Z</time>
      </trkpt>
      <trkpt lat="46.63506" lon="12.34513">
        <ele>2491.39</ele>
        <time>2019-02-28T14:08:54Z</time>
      </trkpt>
      <trkpt lat="46.63504" lon="12.34507">
        <ele>2490.91</ele>
        <time>2019-02-28T14:08:55Z</time>
      </trkpt>
      <trkpt lat="46.63493" lon="12.34489">
        <ele>2487.55</ele>
        <time>2019-02-28T14:09:00Z</time>
      </trkpt>
      <trkpt lat="46.63472" lon="12.34498">
        <ele>2484.18</ele>
        <time>2019-02-28T14:09:05Z</time>
      </trkpt>
      <trkpt lat="46.63461" lon="12.34501">
        <ele>2480.82</ele>
        <time>2019-02-28T14:09:07Z</time>
      </trkpt>
      <trkpt lat="46.63456" lon="12.345">
        <ele>2480.34</ele>
        <time>2019-02-28T14:09:08Z</time>
      </trkpt>
      <trkpt lat="46.63448" lon="12.34495">
        <ele>2477.94</ele>
        <time>2019-02-28T14:09:15Z</time>
      </trkpt>
      <trkpt lat="46.63447" lon="12.34495">
        <ele>2477.45</ele>
        <time>2019-02-28T14:09:18Z</time>
      </trkpt>
      <trkpt lat="46.63431" lon="12.34512">
        <ele>2473.61</ele>
        <time>2019-02-28T14:09:23Z</time>
      </trkpt>
      <trkpt lat="46.63418" lon="12.34548">
        <ele>2470.24</ele>
        <time>2019-02-28T14:09:27Z</time>
      </trkpt>
      <trkpt lat="46.63411" lon="12.34575">
        <ele>2468.32</ele>
        <time>2019-02-28T14:09:30Z</time>
      </trkpt>
      <trkpt lat="46.63407" lon="12.34618">
        <ele>2466.88</ele>
        <time>2019-02-28T14:09:39Z</time>
      </trkpt>
      <trkpt lat="46.63402" lon="12.34649">
        <ele>2466.4</ele>
        <time>2019-02-28T14:09:51Z</time>
      </trkpt>
      <trkpt lat="46.63399" lon="12.34662">
        <ele>2464.48</ele>
        <time>2019-02-28T14:10:00Z</time>
      </trkpt>
      <trkpt lat="46.63399" lon="12.34662">
        <ele>2464.48</ele>
        <time>2019-02-28T14:10:23Z</time>
      </trkpt>
      <trkpt lat="46.63401" lon="12.34657">
        <ele>2464.48</ele>
        <time>2019-02-28T14:10:46Z</time>
      </trkpt>
      <trkpt lat="46.63401" lon="12.34657">
        <ele>2464</ele>
        <time>2019-02-28T14:11:16Z</time>
      </trkpt>
      <trkpt lat="46.63398" lon="12.34673">
        <ele>2463.52</ele>
        <time>2019-02-28T14:11:35Z</time>
      </trkpt>
      <trkpt lat="46.63397" lon="12.34689">
        <ele>2463.04</ele>
        <time>2019-02-28T14:11:38Z</time>
      </trkpt>
      <trkpt lat="46.63392" lon="12.3472">
        <ele>2460.15</ele>
        <time>2019-02-28T14:11:42Z</time>
      </trkpt>
      <trkpt lat="46.63392" lon="12.34738">
        <ele>2459.19</ele>
        <time>2019-02-28T14:11:45Z</time>
      </trkpt>
      <trkpt lat="46.63389" lon="12.34758">
        <ele>2457.27</ele>
        <time>2019-02-28T14:11:50Z</time>
      </trkpt>
      <trkpt lat="46.63381" lon="12.34793">
        <ele>2454.38</ele>
        <time>2019-02-28T14:11:55Z</time>
      </trkpt>
      <trkpt lat="46.63377" lon="12.34807">
        <ele>2453.9</ele>
        <time>2019-02-28T14:11:57Z</time>
      </trkpt>
      <trkpt lat="46.63374" lon="12.34836">
        <ele>2451.02</ele>
        <time>2019-02-28T14:12:02Z</time>
      </trkpt>
      <trkpt lat="46.63374" lon="12.34847">
        <ele>2451.02</ele>
        <time>2019-02-28T14:12:04Z</time>
      </trkpt>
      <trkpt lat="46.63371" lon="12.34853">
        <ele>2451.5</ele>
        <time>2019-02-28T14:12:15Z</time>
      </trkpt>
      <trkpt lat="46.63371" lon="12.34853">
        <ele>2451.02</ele>
        <time>2019-02-28T14:12:16Z</time>
      </trkpt>
      <trkpt lat="46.63369" lon="12.34869">
        <ele>2449.58</ele>
        <time>2019-02-28T14:12:24Z</time>
      </trkpt>
      <trkpt lat="46.63377" lon="12.34866">
        <ele>2445.25</ele>
        <time>2019-02-28T14:12:27Z</time>
      </trkpt>
      <trkpt lat="46.63385" lon="12.34857">
        <ele>2446.21</ele>
        <time>2019-02-28T14:12:30Z</time>
      </trkpt>
      <trkpt lat="46.63387" lon="12.34858">
        <ele>2445.73</ele>
        <time>2019-02-28T14:12:32Z</time>
      </trkpt>
      <trkpt lat="46.63377" lon="12.34874">
        <ele>2444.29</ele>
        <time>2019-02-28T14:12:37Z</time>
      </trkpt>
      <trkpt lat="46.63373" lon="12.3489">
        <ele>2443.33</ele>
        <time>2019-02-28T14:12:39Z</time>
      </trkpt>
      <trkpt lat="46.63363" lon="12.34939">
        <ele>2438.04</ele>
        <time>2019-02-28T14:12:45Z</time>
      </trkpt>
      <trkpt lat="46.63362" lon="12.34944">
        <ele>2438.04</ele>
        <time>2019-02-28T14:12:46Z</time>
      </trkpt>
      <trkpt lat="46.63353" lon="12.34967">
        <ele>2435.64</ele>
        <time>2019-02-28T14:12:53Z</time>
      </trkpt>
      <trkpt lat="46.63352" lon="12.34967">
        <ele>2435.64</ele>
        <time>2019-02-28T14:13:08Z</time>
      </trkpt>
      <trkpt lat="46.63352" lon="12.34968">
        <ele>2435.64</ele>
        <time>2019-02-28T14:13:34Z</time>
      </trkpt>
      <trkpt lat="46.63352" lon="12.3497">
        <ele>2434.2</ele>
        <time>2019-02-28T14:14:02Z</time>
      </trkpt>
      <trkpt lat="46.63352" lon="12.34967">
        <ele>2435.16</ele>
        <time>2019-02-28T14:14:27Z</time>
      </trkpt>
      <trkpt lat="46.63352" lon="12.34967">
        <ele>2436.12</ele>
        <time>2019-02-28T14:14:48Z</time>
      </trkpt>
      <trkpt lat="46.6335" lon="12.34968">
        <ele>2436.12</ele>
        <time>2019-02-28T14:15:10Z</time>
      </trkpt>
      <trkpt lat="46.63348" lon="12.34975">
        <ele>2435.64</ele>
        <time>2019-02-28T14:15:25Z</time>
      </trkpt>
      <trkpt lat="46.63343" lon="12.35006">
        <ele>2430.83</ele>
        <time>2019-02-28T14:15:29Z</time>
      </trkpt>
      <trkpt lat="46.63343" lon="12.35038">
        <ele>2427.47</ele>
        <time>2019-02-28T14:15:32Z</time>
      </trkpt>
      <trkpt lat="46.63338" lon="12.35072">
        <ele>2427.47</ele>
        <time>2019-02-28T14:15:36Z</time>
      </trkpt>
      <trkpt lat="46.63323" lon="12.35085">
        <ele>2425.54</ele>
        <time>2019-02-28T14:15:40Z</time>
      </trkpt>
      <trkpt lat="46.63313" lon="12.35087">
        <ele>2427.95</ele>
        <time>2019-02-28T14:15:45Z</time>
      </trkpt>
      <trkpt lat="46.63316" lon="12.35087">
        <ele>2426.99</ele>
        <time>2019-02-28T14:16:12Z</time>
      </trkpt>
      <trkpt lat="46.63315" lon="12.35087">
        <ele>2425.06</ele>
        <time>2019-02-28T14:16:41Z</time>
      </trkpt>
      <trkpt lat="46.63315" lon="12.35089">
        <ele>2425.06</ele>
        <time>2019-02-28T14:16:58Z</time>
      </trkpt>
      <trkpt lat="46.6331" lon="12.35097">
        <ele>2424.1</ele>
        <time>2019-02-28T14:17:01Z</time>
      </trkpt>
      <trkpt lat="46.63301" lon="12.35111">
        <ele>2422.18</ele>
        <time>2019-02-28T14:17:04Z</time>
      </trkpt>
      <trkpt lat="46.63294" lon="12.35144">
        <ele>2419.78</ele>
        <time>2019-02-28T14:17:11Z</time>
      </trkpt>
      <trkpt lat="46.63293" lon="12.35151">
        <ele>2417.85</ele>
        <time>2019-02-28T14:17:16Z</time>
      </trkpt>
      <trkpt lat="46.63296" lon="12.35149">
        <ele>2418.33</ele>
        <time>2019-02-28T14:17:39Z</time>
      </trkpt>
      <trkpt lat="46.63297" lon="12.3515">
        <ele>2417.85</ele>
        <time>2019-02-28T14:17:52Z</time>
      </trkpt>
      <trkpt lat="46.63286" lon="12.35158">
        <ele>2414.49</ele>
        <time>2019-02-28T14:17:58Z</time>
      </trkpt>
      <trkpt lat="46.63283" lon="12.35168">
        <ele>2413.53</ele>
        <time>2019-02-28T14:18:00Z</time>
      </trkpt>
      <trkpt lat="46.63273" lon="12.35162">
        <ele>2409.68</ele>
        <time>2019-02-28T14:18:03Z</time>
      </trkpt>
      <trkpt lat="46.63268" lon="12.35176">
        <ele>2406.32</ele>
        <time>2019-02-28T14:18:07Z</time>
      </trkpt>
      <trkpt lat="46.63261" lon="12.35188">
        <ele>2402.95</ele>
        <time>2019-02-28T14:18:11Z</time>
      </trkpt>
      <trkpt lat="46.63253" lon="12.35196">
        <ele>2398.63</ele>
        <time>2019-02-28T14:18:14Z</time>
      </trkpt>
      <trkpt lat="46.63256" lon="12.35214">
        <ele>2397.18</ele>
        <time>2019-02-28T14:18:17Z</time>
      </trkpt>
      <trkpt lat="46.63245" lon="12.35216">
        <ele>2393.82</ele>
        <time>2019-02-28T14:18:20Z</time>
      </trkpt>
      <trkpt lat="46.63234" lon="12.35219">
        <ele>2389.49</ele>
        <time>2019-02-28T14:18:24Z</time>
      </trkpt>
      <trkpt lat="46.63238" lon="12.35226">
        <ele>2388.05</ele>
        <time>2019-02-28T14:18:26Z</time>
      </trkpt>
      <trkpt lat="46.63251" lon="12.35264">
        <ele>2384.21</ele>
        <time>2019-02-28T14:18:34Z</time>
      </trkpt>
      <trkpt lat="46.63251" lon="12.35268">
        <ele>2383.73</ele>
        <time>2019-02-28T14:18:35Z</time>
      </trkpt>
      <trkpt lat="46.63251" lon="12.35272">
        <ele>2384.21</ele>
        <time>2019-02-28T14:18:50Z</time>
      </trkpt>
      <trkpt lat="46.63251" lon="12.35272">
        <ele>2384.21</ele>
        <time>2019-02-28T14:19:14Z</time>
      </trkpt>
      <trkpt lat="46.63249" lon="12.35273">
        <ele>2383.73</ele>
        <time>2019-02-28T14:19:31Z</time>
      </trkpt>
      <trkpt lat="46.63241" lon="12.35272">
        <ele>2380.84</ele>
        <time>2019-02-28T14:19:36Z</time>
      </trkpt>
      <trkpt lat="46.63236" lon="12.35288">
        <ele>2377.48</ele>
        <time>2019-02-28T14:19:40Z</time>
      </trkpt>
      <trkpt lat="46.63228" lon="12.35297">
        <ele>2372.19</ele>
        <time>2019-02-28T14:19:43Z</time>
      </trkpt>
      <trkpt lat="46.6322" lon="12.35296">
        <ele>2369.31</ele>
        <time>2019-02-28T14:19:46Z</time>
      </trkpt>
      <trkpt lat="46.6322" lon="12.35309">
        <ele>2367.38</ele>
        <time>2019-02-28T14:19:48Z</time>
      </trkpt>
      <trkpt lat="46.63212" lon="12.35309">
        <ele>2363.06</ele>
        <time>2019-02-28T14:19:51Z</time>
      </trkpt>
      <trkpt lat="46.63207" lon="12.353">
        <ele>2362.1</ele>
        <time>2019-02-28T14:19:53Z</time>
      </trkpt>
      <trkpt lat="46.63205" lon="12.35311">
        <ele>2360.17</ele>
        <time>2019-02-28T14:19:56Z</time>
      </trkpt>
      <trkpt lat="46.63209" lon="12.35325">
        <ele>2359.21</ele>
        <time>2019-02-28T14:20:06Z</time>
      </trkpt>
      <trkpt lat="46.63209" lon="12.35324">
        <ele>2358.73</ele>
        <time>2019-02-28T14:20:17Z</time>
      </trkpt>
      <trkpt lat="46.63187" lon="12.35309">
        <ele>2354.89</ele>
        <time>2019-02-28T14:20:22Z</time>
      </trkpt>
      <trkpt lat="46.63163" lon="12.3529">
        <ele>2353.44</ele>
        <time>2019-02-28T14:20:29Z</time>
      </trkpt>
      <trkpt lat="46.63157" lon="12.35302">
        <ele>2351.52</ele>
        <time>2019-02-28T14:20:32Z</time>
      </trkpt>
      <trkpt lat="46.63148" lon="12.35307">
        <ele>2346.72</ele>
        <time>2019-02-28T14:20:34Z</time>
      </trkpt>
      <trkpt lat="46.63143" lon="12.35304">
        <ele>2345.75</ele>
        <time>2019-02-28T14:20:35Z</time>
      </trkpt>
      <trkpt lat="46.63131" lon="12.35296">
        <ele>2343.83</ele>
        <time>2019-02-28T14:20:38Z</time>
      </trkpt>
      <trkpt lat="46.63123" lon="12.35311">
        <ele>2341.91</ele>
        <time>2019-02-28T14:20:41Z</time>
      </trkpt>
      <trkpt lat="46.63115" lon="12.35311">
        <ele>2337.58</ele>
        <time>2019-02-28T14:20:43Z</time>
      </trkpt>
      <trkpt lat="46.63098" lon="12.3532">
        <ele>2333.74</ele>
        <time>2019-02-28T14:20:47Z</time>
      </trkpt>
      <trkpt lat="46.63096" lon="12.35326">
        <ele>2333.74</ele>
        <time>2019-02-28T14:20:48Z</time>
      </trkpt>
      <trkpt lat="46.63093" lon="12.35333">
        <ele>2333.26</ele>
        <time>2019-02-28T14:20:55Z</time>
      </trkpt>
      <trkpt lat="46.63094" lon="12.35331">
        <ele>2332.3</ele>
        <time>2019-02-28T14:21:15Z</time>
      </trkpt>
      <trkpt lat="46.63095" lon="12.35331">
        <ele>2332.78</ele>
        <time>2019-02-28T14:21:36Z</time>
      </trkpt>
      <trkpt lat="46.63094" lon="12.35328">
        <ele>2332.78</ele>
        <time>2019-02-28T14:21:58Z</time>
      </trkpt>
      <trkpt lat="46.63093" lon="12.35331">
        <ele>2331.81</ele>
        <time>2019-02-28T14:22:14Z</time>
      </trkpt>
      <trkpt lat="46.63094" lon="12.35332">
        <ele>2331.33</ele>
        <time>2019-02-28T14:22:39Z</time>
      </trkpt>
      <trkpt lat="46.63093" lon="12.35333">
        <ele>2330.85</ele>
        <time>2019-02-28T14:22:43Z</time>
      </trkpt>
      <trkpt lat="46.63086" lon="12.35338">
        <ele>2328.45</ele>
        <time>2019-02-28T14:22:50Z</time>
      </trkpt>
      <trkpt lat="46.63086" lon="12.35337">
        <ele>2327.97</ele>
        <time>2019-02-28T14:22:55Z</time>
      </trkpt>
      <trkpt lat="46.63079" lon="12.35339">
        <ele>2327.01</ele>
        <time>2019-02-28T14:22:59Z</time>
      </trkpt>
      <trkpt lat="46.6306" lon="12.35347">
        <ele>2321.24</ele>
        <time>2019-02-28T14:23:04Z</time>
      </trkpt>
      <trkpt lat="46.63045" lon="12.35367">
        <ele>2317.88</ele>
        <time>2019-02-28T14:23:08Z</time>
      </trkpt>
      <trkpt lat="46.63027" lon="12.35382">
        <ele>2314.51</ele>
        <time>2019-02-28T14:23:12Z</time>
      </trkpt>
      <trkpt lat="46.63021" lon="12.35387">
        <ele>2314.51</ele>
        <time>2019-02-28T14:23:13Z</time>
      </trkpt>
      <trkpt lat="46.63" lon="12.35408">
        <ele>2311.15</ele>
        <time>2019-02-28T14:23:19Z</time>
      </trkpt>
      <trkpt lat="46.62998" lon="12.3541">
        <ele>2310.19</ele>
        <time>2019-02-28T14:23:26Z</time>
      </trkpt>
      <trkpt lat="46.63" lon="12.3541">
        <ele>2310.67</ele>
        <time>2019-02-28T14:23:47Z</time>
      </trkpt>
      <trkpt lat="46.63" lon="12.3541">
        <ele>2310.67</ele>
        <time>2019-02-28T14:23:56Z</time>
      </trkpt>
      <trkpt lat="46.63003" lon="12.35425">
        <ele>2308.74</ele>
        <time>2019-02-28T14:24:01Z</time>
      </trkpt>
      <trkpt lat="46.62988" lon="12.35428">
        <ele>2305.38</ele>
        <time>2019-02-28T14:24:04Z</time>
      </trkpt>
      <trkpt lat="46.62968" lon="12.35441">
        <ele>2302.01</ele>
        <time>2019-02-28T14:24:07Z</time>
      </trkpt>
      <trkpt lat="46.6296" lon="12.35446">
        <ele>2300.57</ele>
        <time>2019-02-28T14:24:08Z</time>
      </trkpt>
      <trkpt lat="46.62916" lon="12.35485">
        <ele>2296.25</ele>
        <time>2019-02-28T14:24:16Z</time>
      </trkpt>
      <trkpt lat="46.62899" lon="12.35514">
        <ele>2296.25</ele>
        <time>2019-02-28T14:24:27Z</time>
      </trkpt>
      <trkpt lat="46.62883" lon="12.3553">
        <ele>2295.77</ele>
        <time>2019-02-28T14:24:34Z</time>
      </trkpt>
      <trkpt lat="46.62862" lon="12.35543">
        <ele>2292.4</ele>
        <time>2019-02-28T14:24:39Z</time>
      </trkpt>
      <trkpt lat="46.6285" lon="12.35566">
        <ele>2289.04</ele>
        <time>2019-02-28T14:24:46Z</time>
      </trkpt>
      <trkpt lat="46.62841" lon="12.35574">
        <ele>2287.59</ele>
        <time>2019-02-28T14:24:49Z</time>
      </trkpt>
      <trkpt lat="46.62841" lon="12.35577">
        <ele>2286.63</ele>
        <time>2019-02-28T14:24:57Z</time>
      </trkpt>
      <trkpt lat="46.62841" lon="12.35577">
        <ele>2286.15</ele>
        <time>2019-02-28T14:25:01Z</time>
      </trkpt>
      <trkpt lat="46.62832" lon="12.35574">
        <ele>2284.23</ele>
        <time>2019-02-28T14:25:05Z</time>
      </trkpt>
      <trkpt lat="46.62832" lon="12.35573">
        <ele>2284.23</ele>
        <time>2019-02-28T14:25:07Z</time>
      </trkpt>
      <trkpt lat="46.62829" lon="12.35582">
        <ele>2282.31</ele>
        <time>2019-02-28T14:25:14Z</time>
      </trkpt>
      <trkpt lat="46.62829" lon="12.35581">
        <ele>2281.83</ele>
        <time>2019-02-28T14:25:35Z</time>
      </trkpt>
      <trkpt lat="46.62828" lon="12.35582">
        <ele>2281.83</ele>
        <time>2019-02-28T14:25:59Z</time>
      </trkpt>
      <trkpt lat="46.62828" lon="12.35584">
        <ele>2282.31</ele>
        <time>2019-02-28T14:26:08Z</time>
      </trkpt>
      <trkpt lat="46.62828" lon="12.35592">
        <ele>2281.35</ele>
        <time>2019-02-28T14:26:17Z</time>
      </trkpt>
      <trkpt lat="46.62827" lon="12.35597">
        <ele>2280.87</ele>
        <time>2019-02-28T14:26:21Z</time>
      </trkpt>
      <trkpt lat="46.62819" lon="12.3561">
        <ele>2277.5</ele>
        <time>2019-02-28T14:26:25Z</time>
      </trkpt>
      <trkpt lat="46.62816" lon="12.35612">
        <ele>2277.5</ele>
        <time>2019-02-28T14:26:26Z</time>
      </trkpt>
      <trkpt lat="46.62809" lon="12.3562">
        <ele>2273.66</ele>
        <time>2019-02-28T14:26:29Z</time>
      </trkpt>
      <trkpt lat="46.62806" lon="12.35623">
        <ele>2273.66</ele>
        <time>2019-02-28T14:26:30Z</time>
      </trkpt>
      <trkpt lat="46.628" lon="12.35628">
        <ele>2270.29</ele>
        <time>2019-02-28T14:26:32Z</time>
      </trkpt>
      <trkpt lat="46.62791" lon="12.3564">
        <ele>2266.45</ele>
        <time>2019-02-28T14:26:38Z</time>
      </trkpt>
      <trkpt lat="46.62785" lon="12.35648">
        <ele>2264.04</ele>
        <time>2019-02-28T14:26:41Z</time>
      </trkpt>
      <trkpt lat="46.62786" lon="12.35652">
        <ele>2262.6</ele>
        <time>2019-02-28T14:26:42Z</time>
      </trkpt>
      <trkpt lat="46.62788" lon="12.35655">
        <ele>2262.12</ele>
        <time>2019-02-28T14:26:43Z</time>
      </trkpt>
      <trkpt lat="46.6279" lon="12.35658">
        <ele>2261.64</ele>
        <time>2019-02-28T14:26:44Z</time>
      </trkpt>
      <trkpt lat="46.62789" lon="12.35662">
        <ele>2262.6</ele>
        <time>2019-02-28T14:26:45Z</time>
      </trkpt>
      <trkpt lat="46.62779" lon="12.35668">
        <ele>2259.24</ele>
        <time>2019-02-28T14:26:48Z</time>
      </trkpt>
      <trkpt lat="46.62774" lon="12.35666">
        <ele>2258.27</ele>
        <time>2019-02-28T14:26:50Z</time>
      </trkpt>
      <trkpt lat="46.62772" lon="12.35674">
        <ele>2255.87</ele>
        <time>2019-02-28T14:26:52Z</time>
      </trkpt>
      <trkpt lat="46.62773" lon="12.35677">
        <ele>2255.39</ele>
        <time>2019-02-28T14:26:53Z</time>
      </trkpt>
      <trkpt lat="46.62773" lon="12.35681">
        <ele>2254.91</ele>
        <time>2019-02-28T14:26:54Z</time>
      </trkpt>
      <trkpt lat="46.62763" lon="12.35687">
        <ele>2252.03</ele>
        <time>2019-02-28T14:26:57Z</time>
      </trkpt>
      <trkpt lat="46.62758" lon="12.35684">
        <ele>2251.54</ele>
        <time>2019-02-28T14:27:07Z</time>
      </trkpt>
      <trkpt lat="46.62758" lon="12.35683">
        <ele>2251.54</ele>
        <time>2019-02-28T14:27:09Z</time>
      </trkpt>
      <trkpt lat="46.62755" lon="12.35697">
        <ele>2247.7</ele>
        <time>2019-02-28T14:27:13Z</time>
      </trkpt>
      <trkpt lat="46.62757" lon="12.35702">
        <ele>2248.18</ele>
        <time>2019-02-28T14:27:14Z</time>
      </trkpt>
      <trkpt lat="46.62744" lon="12.35712">
        <ele>2244.82</ele>
        <time>2019-02-28T14:27:18Z</time>
      </trkpt>
      <trkpt lat="46.6274" lon="12.3571">
        <ele>2244.33</ele>
        <time>2019-02-28T14:27:22Z</time>
      </trkpt>
      <trkpt lat="46.62732" lon="12.35718">
        <ele>2241.93</ele>
        <time>2019-02-28T14:27:26Z</time>
      </trkpt>
      <trkpt lat="46.62728" lon="12.35716">
        <ele>2241.45</ele>
        <time>2019-02-28T14:27:27Z</time>
      </trkpt>
      <trkpt lat="46.62726" lon="12.35714">
        <ele>2240.97</ele>
        <time>2019-02-28T14:27:28Z</time>
      </trkpt>
      <trkpt lat="46.62725" lon="12.35711">
        <ele>2240.49</ele>
        <time>2019-02-28T14:27:29Z</time>
      </trkpt>
      <trkpt lat="46.62724" lon="12.3571">
        <ele>2240.01</ele>
        <time>2019-02-28T14:27:40Z</time>
      </trkpt>
      <trkpt lat="46.62723" lon="12.35709">
        <ele>2240.01</ele>
        <time>2019-02-28T14:27:47Z</time>
      </trkpt>
      <trkpt lat="46.62715" lon="12.35718">
        <ele>2239.53</ele>
        <time>2019-02-28T14:27:50Z</time>
      </trkpt>
      <trkpt lat="46.62713" lon="12.35717">
        <ele>2238.57</ele>
        <time>2019-02-28T14:27:51Z</time>
      </trkpt>
      <trkpt lat="46.62711" lon="12.35716">
        <ele>2238.09</ele>
        <time>2019-02-28T14:27:52Z</time>
      </trkpt>
      <trkpt lat="46.62708" lon="12.35717">
        <ele>2237.61</ele>
        <time>2019-02-28T14:27:53Z</time>
      </trkpt>
      <trkpt lat="46.62705" lon="12.35721">
        <ele>2236.64</ele>
        <time>2019-02-28T14:27:54Z</time>
      </trkpt>
      <trkpt lat="46.62697" lon="12.35729">
        <ele>2235.2</ele>
        <time>2019-02-28T14:27:56Z</time>
      </trkpt>
      <trkpt lat="46.62684" lon="12.35724">
        <ele>2231.36</ele>
        <time>2019-02-28T14:27:59Z</time>
      </trkpt>
      <trkpt lat="46.6268" lon="12.35723">
        <ele>2231.36</ele>
        <time>2019-02-28T14:28:00Z</time>
      </trkpt>
      <trkpt lat="46.62674" lon="12.35723">
        <ele>2230.88</ele>
        <time>2019-02-28T14:28:02Z</time>
      </trkpt>
      <trkpt lat="46.6267" lon="12.35723">
        <ele>2230.88</ele>
        <time>2019-02-28T14:28:14Z</time>
      </trkpt>
      <trkpt lat="46.62664" lon="12.35724">
        <ele>2229.92</ele>
        <time>2019-02-28T14:28:20Z</time>
      </trkpt>
      <trkpt lat="46.62645" lon="12.35711">
        <ele>2226.07</ele>
        <time>2019-02-28T14:28:26Z</time>
      </trkpt>
      <trkpt lat="46.62637" lon="12.35724">
        <ele>2224.63</ele>
        <time>2019-02-28T14:28:29Z</time>
      </trkpt>
      <trkpt lat="46.62634" lon="12.35747">
        <ele>2225.59</ele>
        <time>2019-02-28T14:28:36Z</time>
      </trkpt>
      <trkpt lat="46.62633" lon="12.35748">
        <ele>2224.63</ele>
        <time>2019-02-28T14:28:52Z</time>
      </trkpt>
      <trkpt lat="46.62633" lon="12.35748">
        <ele>2224.63</ele>
        <time>2019-02-28T14:29:22Z</time>
      </trkpt>
      <trkpt lat="46.62634" lon="12.3575">
        <ele>2224.15</ele>
        <time>2019-02-28T14:29:43Z</time>
      </trkpt>
      <trkpt lat="46.62621" lon="12.35734">
        <ele>2221.26</ele>
        <time>2019-02-28T14:29:50Z</time>
      </trkpt>
      <trkpt lat="46.62617" lon="12.35735">
        <ele>2219.34</ele>
        <time>2019-02-28T14:29:51Z</time>
      </trkpt>
      <trkpt lat="46.62616" lon="12.35741">
        <ele>2217.42</ele>
        <time>2019-02-28T14:29:52Z</time>
      </trkpt>
      <trkpt lat="46.62615" lon="12.35747">
        <ele>2216.46</ele>
        <time>2019-02-28T14:29:53Z</time>
      </trkpt>
      <trkpt lat="46.62615" lon="12.35753">
        <ele>2215.98</ele>
        <time>2019-02-28T14:29:54Z</time>
      </trkpt>
      <trkpt lat="46.62613" lon="12.35759">
        <ele>2215.5</ele>
        <time>2019-02-28T14:29:55Z</time>
      </trkpt>
      <trkpt lat="46.6261" lon="12.35763">
        <ele>2215.01</ele>
        <time>2019-02-28T14:29:56Z</time>
      </trkpt>
      <trkpt lat="46.62606" lon="12.35768">
        <ele>2210.69</ele>
        <time>2019-02-28T14:29:57Z</time>
      </trkpt>
      <trkpt lat="46.62602" lon="12.35774">
        <ele>2209.73</ele>
        <time>2019-02-28T14:29:58Z</time>
      </trkpt>
      <trkpt lat="46.62598" lon="12.3578">
        <ele>2208.77</ele>
        <time>2019-02-28T14:29:59Z</time>
      </trkpt>
      <trkpt lat="46.62594" lon="12.35784">
        <ele>2209.25</ele>
        <time>2019-02-28T14:30:00Z</time>
      </trkpt>
      <trkpt lat="46.6259" lon="12.35785">
        <ele>2207.81</ele>
        <time>2019-02-28T14:30:01Z</time>
      </trkpt>
      <trkpt lat="46.62584" lon="12.35788">
        <ele>2205.88</ele>
        <time>2019-02-28T14:30:02Z</time>
      </trkpt>
      <trkpt lat="46.62579" lon="12.35792">
        <ele>2206.36</ele>
        <time>2019-02-28T14:30:03Z</time>
      </trkpt>
      <trkpt lat="46.62574" lon="12.35794">
        <ele>2204.92</ele>
        <time>2019-02-28T14:30:04Z</time>
      </trkpt>
      <trkpt lat="46.62569" lon="12.35793">
        <ele>2202.04</ele>
        <time>2019-02-28T14:30:05Z</time>
      </trkpt>
      <trkpt lat="46.62564" lon="12.35795">
        <ele>2201.56</ele>
        <time>2019-02-28T14:30:06Z</time>
      </trkpt>
      <trkpt lat="46.6256" lon="12.35798">
        <ele>2202.04</ele>
        <time>2019-02-28T14:30:07Z</time>
      </trkpt>
      <trkpt lat="46.62557" lon="12.35799">
        <ele>2203</ele>
        <time>2019-02-28T14:30:08Z</time>
      </trkpt>
      <trkpt lat="46.62552" lon="12.35795">
        <ele>2201.56</ele>
        <time>2019-02-28T14:30:17Z</time>
      </trkpt>
      <trkpt lat="46.62552" lon="12.35796">
        <ele>2202.52</ele>
        <time>2019-02-28T14:30:28Z</time>
      </trkpt>
      <trkpt lat="46.62551" lon="12.35795">
        <ele>2203.96</ele>
        <time>2019-02-28T14:30:37Z</time>
      </trkpt>
      <trkpt lat="46.62549" lon="12.35795">
        <ele>2200.59</ele>
        <time>2019-02-28T14:30:41Z</time>
      </trkpt>
      <trkpt lat="46.62547" lon="12.35795">
        <ele>2203.96</ele>
        <time>2019-02-28T14:30:43Z</time>
      </trkpt>
      <trkpt lat="46.62548" lon="12.35795">
        <ele>2203</ele>
        <time>2019-02-28T14:30:44Z</time>
      </trkpt>
      <trkpt lat="46.62546" lon="12.35795">
        <ele>2203.96</ele>
        <time>2019-02-28T14:30:51Z</time>
      </trkpt>
      <trkpt lat="46.62545" lon="12.35795">
        <ele>2203.48</ele>
        <time>2019-02-28T14:30:52Z</time>
      </trkpt>
      <trkpt lat="46.62543" lon="12.35794">
        <ele>2202.52</ele>
        <time>2019-02-28T14:30:53Z</time>
      </trkpt>
      <trkpt lat="46.6254" lon="12.35791">
        <ele>2203</ele>
        <time>2019-02-28T14:30:54Z</time>
      </trkpt>
      <trkpt lat="46.62538" lon="12.35788">
        <ele>2202.04</ele>
        <time>2019-02-28T14:30:55Z</time>
      </trkpt>
      <trkpt lat="46.62536" lon="12.35784">
        <ele>2200.59</ele>
        <time>2019-02-28T14:30:56Z</time>
      </trkpt>
      <trkpt lat="46.62528" lon="12.35784">
        <ele>2195.79</ele>
        <time>2019-02-28T14:30:59Z</time>
      </trkpt>
      <trkpt lat="46.62526" lon="12.35789">
        <ele>2195.79</ele>
        <time>2019-02-28T14:31:00Z</time>
      </trkpt>
      <trkpt lat="46.62522" lon="12.35805">
        <ele>2193.39</ele>
        <time>2019-02-28T14:31:03Z</time>
      </trkpt>
      <trkpt lat="46.62528" lon="12.35828">
        <ele>2192.9</ele>
        <time>2019-02-28T14:31:07Z</time>
      </trkpt>
      <trkpt lat="46.62527" lon="12.35834">
        <ele>2192.42</ele>
        <time>2019-02-28T14:31:08Z</time>
      </trkpt>
      <trkpt lat="46.62526" lon="12.35838">
        <ele>2192.42</ele>
        <time>2019-02-28T14:31:09Z</time>
      </trkpt>
      <trkpt lat="46.62527" lon="12.35842">
        <ele>2193.39</ele>
        <time>2019-02-28T14:31:10Z</time>
      </trkpt>
      <trkpt lat="46.62528" lon="12.35845">
        <ele>2193.39</ele>
        <time>2019-02-28T14:31:11Z</time>
      </trkpt>
      <trkpt lat="46.62528" lon="12.35848">
        <ele>2193.87</ele>
        <time>2019-02-28T14:31:12Z</time>
      </trkpt>
      <trkpt lat="46.62528" lon="12.3585">
        <ele>2195.31</ele>
        <time>2019-02-28T14:31:15Z</time>
      </trkpt>
      <trkpt lat="46.62528" lon="12.35851">
        <ele>2194.35</ele>
        <time>2019-02-28T14:31:25Z</time>
      </trkpt>
      <trkpt lat="46.62529" lon="12.35853">
        <ele>2194.35</ele>
        <time>2019-02-28T14:31:26Z</time>
      </trkpt>
      <trkpt lat="46.62532" lon="12.35856">
        <ele>2192.9</ele>
        <time>2019-02-28T14:31:27Z</time>
      </trkpt>
      <trkpt lat="46.62534" lon="12.35859">
        <ele>2191.46</ele>
        <time>2019-02-28T14:31:28Z</time>
      </trkpt>
      <trkpt lat="46.62535" lon="12.35862">
        <ele>2190.98</ele>
        <time>2019-02-28T14:31:29Z</time>
      </trkpt>
      <trkpt lat="46.62537" lon="12.35864">
        <ele>2190.5</ele>
        <time>2019-02-28T14:31:30Z</time>
      </trkpt>
      <trkpt lat="46.62538" lon="12.35866">
        <ele>2190.02</ele>
        <time>2019-02-28T14:31:31Z</time>
      </trkpt>
      <trkpt lat="46.6254" lon="12.35867">
        <ele>2189.54</ele>
        <time>2019-02-28T14:31:32Z</time>
      </trkpt>
      <trkpt lat="46.6254" lon="12.35868">
        <ele>2190.02</ele>
        <time>2019-02-28T14:31:41Z</time>
      </trkpt>
      <trkpt lat="46.62542" lon="12.35869">
        <ele>2189.06</ele>
        <time>2019-02-28T14:31:42Z</time>
      </trkpt>
      <trkpt lat="46.62544" lon="12.35871">
        <ele>2189.54</ele>
        <time>2019-02-28T14:31:43Z</time>
      </trkpt>
      <trkpt lat="46.62552" lon="12.35858">
        <ele>2185.69</ele>
        <time>2019-02-28T14:31:47Z</time>
      </trkpt>
      <trkpt lat="46.62555" lon="12.35864">
        <ele>2182.81</ele>
        <time>2019-02-28T14:31:49Z</time>
      </trkpt>
      <trkpt lat="46.62557" lon="12.35866">
        <ele>2182.33</ele>
        <time>2019-02-28T14:31:50Z</time>
      </trkpt>
      <trkpt lat="46.62563" lon="12.35865">
        <ele>2178.48</ele>
        <time>2019-02-28T14:31:53Z</time>
      </trkpt>
      <trkpt lat="46.62563" lon="12.35868">
        <ele>2176.56</ele>
        <time>2019-02-28T14:31:55Z</time>
      </trkpt>
      <trkpt lat="46.62572" lon="12.3587">
        <ele>2172.24</ele>
        <time>2019-02-28T14:32:00Z</time>
      </trkpt>
      <trkpt lat="46.62568" lon="12.35875">
        <ele>2172.24</ele>
        <time>2019-02-28T14:32:16Z</time>
      </trkpt>
      <trkpt lat="46.62564" lon="12.35881">
        <ele>2172.24</ele>
        <time>2019-02-28T14:32:31Z</time>
      </trkpt>
      <trkpt lat="46.62564" lon="12.35885">
        <ele>2172.24</ele>
        <time>2019-02-28T14:32:47Z</time>
      </trkpt>
      <trkpt lat="46.62571" lon="12.35887">
        <ele>2167.43</ele>
        <time>2019-02-28T14:32:52Z</time>
      </trkpt>
      <trkpt lat="46.62571" lon="12.35887">
        <ele>2167.43</ele>
        <time>2019-02-28T14:32:53Z</time>
      </trkpt>
      <trkpt lat="46.62572" lon="12.35887">
        <ele>2166.95</ele>
        <time>2019-02-28T14:32:54Z</time>
      </trkpt>
      <trkpt lat="46.62581" lon="12.35891">
        <ele>2163.58</ele>
        <time>2019-02-28T14:32:58Z</time>
      </trkpt>
      <trkpt lat="46.62581" lon="12.35893">
        <ele>2161.18</ele>
        <time>2019-02-28T14:33:01Z</time>
      </trkpt>
      <trkpt lat="46.62577" lon="12.3588">
        <ele>2161.18</ele>
        <time>2019-02-28T14:33:21Z</time>
      </trkpt>
      <trkpt lat="46.62571" lon="12.35871">
        <ele>2160.22</ele>
        <time>2019-02-28T14:33:44Z</time>
      </trkpt>
      <trkpt lat="46.62583" lon="12.35889">
        <ele>2157.34</ele>
        <time>2019-02-28T14:33:48Z</time>
      </trkpt>
      <trkpt lat="46.62588" lon="12.35909">
        <ele>2153.01</ele>
        <time>2019-02-28T14:33:50Z</time>
      </trkpt>
      <trkpt lat="46.62598" lon="12.35953">
        <ele>2149.16</ele>
        <time>2019-02-28T14:33:55Z</time>
      </trkpt>
      <trkpt lat="46.62608" lon="12.35983">
        <ele>2147.72</ele>
        <time>2019-02-28T14:34:06Z</time>
      </trkpt>
      <trkpt lat="46.62607" lon="12.35989">
        <ele>2147.24</ele>
        <time>2019-02-28T14:34:31Z</time>
      </trkpt>
      <trkpt lat="46.62608" lon="12.35991">
        <ele>2146.76</ele>
        <time>2019-02-28T14:34:44Z</time>
      </trkpt>
      <trkpt lat="46.62618" lon="12.36001">
        <ele>2145.32</ele>
        <time>2019-02-28T14:34:50Z</time>
      </trkpt>
      <trkpt lat="46.62627" lon="12.35989">
        <ele>2143.4</ele>
        <time>2019-02-28T14:34:54Z</time>
      </trkpt>
      <trkpt lat="46.62626" lon="12.35982">
        <ele>2142.44</ele>
        <time>2019-02-28T14:34:56Z</time>
      </trkpt>
      <trkpt lat="46.62622" lon="12.35967">
        <ele>2140.51</ele>
        <time>2019-02-28T14:34:59Z</time>
      </trkpt>
      <trkpt lat="46.62623" lon="12.35957">
        <ele>2138.11</ele>
        <time>2019-02-28T14:35:02Z</time>
      </trkpt>
      <trkpt lat="46.62638" lon="12.35964">
        <ele>2133.3</ele>
        <time>2019-02-28T14:35:06Z</time>
      </trkpt>
      <trkpt lat="46.62645" lon="12.35972">
        <ele>2131.86</ele>
        <time>2019-02-28T14:35:08Z</time>
      </trkpt>
      <trkpt lat="46.62659" lon="12.35972">
        <ele>2128.02</ele>
        <time>2019-02-28T14:35:12Z</time>
      </trkpt>
      <trkpt lat="46.62659" lon="12.35973">
        <ele>2128.02</ele>
        <time>2019-02-28T14:35:13Z</time>
      </trkpt>
      <trkpt lat="46.62655" lon="12.35976">
        <ele>2127.53</ele>
        <time>2019-02-28T14:35:32Z</time>
      </trkpt>
      <trkpt lat="46.62656" lon="12.35981">
        <ele>2127.53</ele>
        <time>2019-02-28T14:35:52Z</time>
      </trkpt>
      <trkpt lat="46.62656" lon="12.35981">
        <ele>2127.53</ele>
        <time>2019-02-28T14:35:54Z</time>
      </trkpt>
      <trkpt lat="46.62665" lon="12.35984">
        <ele>2125.61</ele>
        <time>2019-02-28T14:35:58Z</time>
      </trkpt>
      <trkpt lat="46.62671" lon="12.36001">
        <ele>2121.77</ele>
        <time>2019-02-28T14:36:02Z</time>
      </trkpt>
      <trkpt lat="46.62671" lon="12.36002">
        <ele>2121.77</ele>
        <time>2019-02-28T14:36:03Z</time>
      </trkpt>
      <trkpt lat="46.62686" lon="12.36008">
        <ele>2117.92</ele>
        <time>2019-02-28T14:36:07Z</time>
      </trkpt>
      <trkpt lat="46.62702" lon="12.36007">
        <ele>2114.08</ele>
        <time>2019-02-28T14:36:10Z</time>
      </trkpt>
      <trkpt lat="46.62713" lon="12.35998">
        <ele>2111.67</ele>
        <time>2019-02-28T14:36:12Z</time>
      </trkpt>
      <trkpt lat="46.62723" lon="12.36006">
        <ele>2110.23</ele>
        <time>2019-02-28T14:36:15Z</time>
      </trkpt>
      <trkpt lat="46.62736" lon="12.36002">
        <ele>2106.87</ele>
        <time>2019-02-28T14:36:19Z</time>
      </trkpt>
      <trkpt lat="46.6274" lon="12.36005">
        <ele>2106.87</ele>
        <time>2019-02-28T14:36:20Z</time>
      </trkpt>
      <trkpt lat="46.6275" lon="12.36009">
        <ele>2103.5</ele>
        <time>2019-02-28T14:36:22Z</time>
      </trkpt>
      <trkpt lat="46.62754" lon="12.36015">
        <ele>2102.54</ele>
        <time>2019-02-28T14:36:23Z</time>
      </trkpt>
      <trkpt lat="46.62756" lon="12.36029">
        <ele>2102.54</ele>
        <time>2019-02-28T14:36:31Z</time>
      </trkpt>
      <trkpt lat="46.62758" lon="12.36029">
        <ele>2102.54</ele>
        <time>2019-02-28T14:36:44Z</time>
      </trkpt>
      <trkpt lat="46.62771" lon="12.36036">
        <ele>2099.18</ele>
        <time>2019-02-28T14:36:48Z</time>
      </trkpt>
      <trkpt lat="46.62774" lon="12.3604">
        <ele>2098.21</ele>
        <time>2019-02-28T14:36:49Z</time>
      </trkpt>
      <trkpt lat="46.62781" lon="12.3603">
        <ele>2093.89</ele>
        <time>2019-02-28T14:36:54Z</time>
      </trkpt>
      <trkpt lat="46.62783" lon="12.36033">
        <ele>2091</ele>
        <time>2019-02-28T14:36:56Z</time>
      </trkpt>
      <trkpt lat="46.62793" lon="12.36037">
        <ele>2086.68</ele>
        <time>2019-02-28T14:36:59Z</time>
      </trkpt>
      <trkpt lat="46.62809" lon="12.36052">
        <ele>2081.87</ele>
        <time>2019-02-28T14:37:03Z</time>
      </trkpt>
      <trkpt lat="46.62812" lon="12.36057">
        <ele>2080.43</ele>
        <time>2019-02-28T14:37:04Z</time>
      </trkpt>
      <trkpt lat="46.62816" lon="12.36065">
        <ele>2080.43</ele>
        <time>2019-02-28T14:37:12Z</time>
      </trkpt>
      <trkpt lat="46.62817" lon="12.36067">
        <ele>2079.95</ele>
        <time>2019-02-28T14:37:32Z</time>
      </trkpt>
      <trkpt lat="46.62818" lon="12.36072">
        <ele>2080.91</ele>
        <time>2019-02-28T14:37:47Z</time>
      </trkpt>
      <trkpt lat="46.62827" lon="12.36082">
        <ele>2077.55</ele>
        <time>2019-02-28T14:37:51Z</time>
      </trkpt>
      <trkpt lat="46.6284" lon="12.36089">
        <ele>2072.74</ele>
        <time>2019-02-28T14:37:56Z</time>
      </trkpt>
      <trkpt lat="46.62845" lon="12.36088">
        <ele>2069.38</ele>
        <time>2019-02-28T14:37:58Z</time>
      </trkpt>
      <trkpt lat="46.62864" lon="12.36099">
        <ele>2064.09</ele>
        <time>2019-02-28T14:38:03Z</time>
      </trkpt>
      <trkpt lat="46.62867" lon="12.36101">
        <ele>2063.61</ele>
        <time>2019-02-28T14:38:04Z</time>
      </trkpt>
      <trkpt lat="46.62875" lon="12.36116">
        <ele>2058.8</ele>
        <time>2019-02-28T14:38:08Z</time>
      </trkpt>
      <trkpt lat="46.62882" lon="12.36128">
        <ele>2056.4</ele>
        <time>2019-02-28T14:38:12Z</time>
      </trkpt>
      <trkpt lat="46.62881" lon="12.3613">
        <ele>2057.36</ele>
        <time>2019-02-28T14:38:26Z</time>
      </trkpt>
      <trkpt lat="46.6288" lon="12.36137">
        <ele>2056.88</ele>
        <time>2019-02-28T14:38:46Z</time>
      </trkpt>
      <trkpt lat="46.6288" lon="12.36145">
        <ele>2056.88</ele>
        <time>2019-02-28T14:38:58Z</time>
      </trkpt>
      <trkpt lat="46.62884" lon="12.36156">
        <ele>2056.4</ele>
        <time>2019-02-28T14:39:12Z</time>
      </trkpt>
      <trkpt lat="46.62886" lon="12.36173">
        <ele>2052.07</ele>
        <time>2019-02-28T14:39:17Z</time>
      </trkpt>
      <trkpt lat="46.62886" lon="12.36187">
        <ele>2048.23</ele>
        <time>2019-02-28T14:39:20Z</time>
      </trkpt>
      <trkpt lat="46.62884" lon="12.36188">
        <ele>2047.26</ele>
        <time>2019-02-28T14:39:24Z</time>
      </trkpt>
      <trkpt lat="46.62887" lon="12.36172">
        <ele>2044.86</ele>
        <time>2019-02-28T14:39:27Z</time>
      </trkpt>
      <trkpt lat="46.62879" lon="12.36135">
        <ele>2044.86</ele>
        <time>2019-02-28T14:39:39Z</time>
      </trkpt>
      <trkpt lat="46.62862" lon="12.36125">
        <ele>2043.42</ele>
        <time>2019-02-28T14:40:09Z</time>
      </trkpt>
      <trkpt lat="46.62863" lon="12.36113">
        <ele>2041.5</ele>
        <time>2019-02-28T14:40:14Z</time>
      </trkpt>
      <trkpt lat="46.62862" lon="12.36114">
        <ele>2040.05</ele>
        <time>2019-02-28T14:40:16Z</time>
      </trkpt>
      <trkpt lat="46.62861" lon="12.36115">
        <ele>2038.13</ele>
        <time>2019-02-28T14:40:17Z</time>
      </trkpt>
      <trkpt lat="46.62859" lon="12.36117">
        <ele>2036.69</ele>
        <time>2019-02-28T14:40:18Z</time>
      </trkpt>
      <trkpt lat="46.62858" lon="12.36121">
        <ele>2035.73</ele>
        <time>2019-02-28T14:40:20Z</time>
      </trkpt>
      <trkpt lat="46.62861" lon="12.36111">
        <ele>2031.88</ele>
        <time>2019-02-28T14:40:24Z</time>
      </trkpt>
      <trkpt lat="46.62862" lon="12.36108">
        <ele>2030.44</ele>
        <time>2019-02-28T14:40:25Z</time>
      </trkpt>
      <trkpt lat="46.62862" lon="12.36107">
        <ele>2028.04</ele>
        <time>2019-02-28T14:40:26Z</time>
      </trkpt>
      <trkpt lat="46.62861" lon="12.36107">
        <ele>2026.6</ele>
        <time>2019-02-28T14:40:29Z</time>
      </trkpt>
      <trkpt lat="46.62858" lon="12.36105">
        <ele>2024.67</ele>
        <time>2019-02-28T14:40:39Z</time>
      </trkpt>
      <trkpt lat="46.62858" lon="12.36106">
        <ele>2026.6</ele>
        <time>2019-02-28T14:40:44Z</time>
      </trkpt>
      <trkpt lat="46.62859" lon="12.36107">
        <ele>2025.15</ele>
        <time>2019-02-28T14:40:45Z</time>
      </trkpt>
      <trkpt lat="46.62865" lon="12.3611">
        <ele>2024.67</ele>
        <time>2019-02-28T14:41:11Z</time>
      </trkpt>
      <trkpt lat="46.62867" lon="12.3611">
        <ele>2023.71</ele>
        <time>2019-02-28T14:41:25Z</time>
      </trkpt>
      <trkpt lat="46.6287" lon="12.36097">
        <ele>2017.94</ele>
        <time>2019-02-28T14:41:30Z</time>
      </trkpt>
      <trkpt lat="46.62872" lon="12.36094">
        <ele>2016.02</ele>
        <time>2019-02-28T14:41:31Z</time>
      </trkpt>
      <trkpt lat="46.62876" lon="12.36088">
        <ele>2011.22</ele>
        <time>2019-02-28T14:41:34Z</time>
      </trkpt>
      <trkpt lat="46.62877" lon="12.36086">
        <ele>2008.81</ele>
        <time>2019-02-28T14:41:35Z</time>
      </trkpt>
      <trkpt lat="46.62881" lon="12.3608">
        <ele>2005.45</ele>
        <time>2019-02-28T14:41:37Z</time>
      </trkpt>
      <trkpt lat="46.6289" lon="12.36109">
        <ele>2004.49</ele>
        <time>2019-02-28T14:41:46Z</time>
      </trkpt>
      <trkpt lat="46.62892" lon="12.36113">
        <ele>2004.49</ele>
        <time>2019-02-28T14:42:03Z</time>
      </trkpt>
      <trkpt lat="46.62896" lon="12.36122">
        <ele>2003.52</ele>
        <time>2019-02-28T14:42:21Z</time>
      </trkpt>
      <trkpt lat="46.62904" lon="12.36134">
        <ele>2004.49</ele>
        <time>2019-02-28T14:42:43Z</time>
      </trkpt>
      <trkpt lat="46.62905" lon="12.36136">
        <ele>2006.41</ele>
        <time>2019-02-28T14:42:45Z</time>
      </trkpt>
      <trkpt lat="46.62905" lon="12.36138">
        <ele>2004.97</ele>
        <time>2019-02-28T14:42:46Z</time>
      </trkpt>
      <trkpt lat="46.6291" lon="12.36149">
        <ele>2004.01</ele>
        <time>2019-02-28T14:43:16Z</time>
      </trkpt>
      <trkpt lat="46.62896" lon="12.3613">
        <ele>2004.49</ele>
        <time>2019-02-28T14:43:43Z</time>
      </trkpt>
      <trkpt lat="46.62901" lon="12.36134">
        <ele>2003.04</ele>
        <time>2019-02-28T14:44:07Z</time>
      </trkpt>
      <trkpt lat="46.62895" lon="12.36127">
        <ele>2003.52</ele>
        <time>2019-02-28T14:44:36Z</time>
      </trkpt>
      <trkpt lat="46.62888" lon="12.36119">
        <ele>2003.04</ele>
        <time>2019-02-28T14:45:05Z</time>
      </trkpt>
      <trkpt lat="46.62883" lon="12.36104">
        <ele>2001.6</ele>
        <time>2019-02-28T14:45:06Z</time>
      </trkpt>
      <trkpt lat="46.62883" lon="12.36103">
        <ele>2000.64</ele>
        <time>2019-02-28T14:45:07Z</time>
      </trkpt>
      <trkpt lat="46.62877" lon="12.36083">
        <ele>1998.24</ele>
        <time>2019-02-28T14:45:09Z</time>
      </trkpt>
      <trkpt lat="46.62872" lon="12.36079">
        <ele>1996.8</ele>
        <time>2019-02-28T14:45:10Z</time>
      </trkpt>
      <trkpt lat="46.62872" lon="12.36079">
        <ele>1996.8</ele>
        <time>2019-02-28T14:45:11Z</time>
      </trkpt>
      <trkpt lat="46.62874" lon="12.36076">
        <ele>1994.39</ele>
        <time>2019-02-28T14:45:23Z</time>
      </trkpt>
      <trkpt lat="46.62879" lon="12.36079">
        <ele>1994.39</ele>
        <time>2019-02-28T14:45:43Z</time>
      </trkpt>
      <trkpt lat="46.62878" lon="12.36081">
        <ele>1993.43</ele>
        <time>2019-02-28T14:45:45Z</time>
      </trkpt>
      <trkpt lat="46.62879" lon="12.36082">
        <ele>1993.43</ele>
        <time>2019-02-28T14:45:46Z</time>
      </trkpt>
      <trkpt lat="46.62881" lon="12.36081">
        <ele>1991.99</ele>
        <time>2019-02-28T14:45:48Z</time>
      </trkpt>
      <trkpt lat="46.62882" lon="12.36079">
        <ele>1990.55</ele>
        <time>2019-02-28T14:45:49Z</time>
      </trkpt>
      <trkpt lat="46.62884" lon="12.36078">
        <ele>1989.59</ele>
        <time>2019-02-28T14:45:50Z</time>
      </trkpt>
      <trkpt lat="46.62886" lon="12.36079">
        <ele>1986.22</ele>
        <time>2019-02-28T14:45:53Z</time>
      </trkpt>
      <trkpt lat="46.62891" lon="12.36075">
        <ele>1984.78</ele>
        <time>2019-02-28T14:45:54Z</time>
      </trkpt>
      <trkpt lat="46.62892" lon="12.36074">
        <ele>1983.34</ele>
        <time>2019-02-28T14:45:55Z</time>
      </trkpt>
      <trkpt lat="46.62894" lon="12.36069">
        <ele>1981.9</ele>
        <time>2019-02-28T14:45:57Z</time>
      </trkpt>
      <trkpt lat="46.629" lon="12.36071">
        <ele>1979.97</ele>
        <time>2019-02-28T14:46:00Z</time>
      </trkpt>
      <trkpt lat="46.62907" lon="12.36072">
        <ele>1979.01</ele>
        <time>2019-02-28T14:46:02Z</time>
      </trkpt>
      <trkpt lat="46.6292" lon="12.36079">
        <ele>1978.53</ele>
        <time>2019-02-28T14:46:10Z</time>
      </trkpt>
      <trkpt lat="46.62921" lon="12.3608">
        <ele>1978.05</ele>
        <time>2019-02-28T14:46:13Z</time>
      </trkpt>
      <trkpt lat="46.62926" lon="12.36084">
        <ele>1976.61</ele>
        <time>2019-02-28T14:46:15Z</time>
      </trkpt>
      <trkpt lat="46.62928" lon="12.3609">
        <ele>1975.65</ele>
        <time>2019-02-28T14:46:17Z</time>
      </trkpt>
      <trkpt lat="46.62937" lon="12.36087">
        <ele>1972.76</ele>
        <time>2019-02-28T14:46:21Z</time>
      </trkpt>
      <trkpt lat="46.62939" lon="12.36073">
        <ele>1967.96</ele>
        <time>2019-02-28T14:46:26Z</time>
      </trkpt>
      <trkpt lat="46.62943" lon="12.36079">
        <ele>1964.59</ele>
        <time>2019-02-28T14:46:29Z</time>
      </trkpt>
      <trkpt lat="46.62953" lon="12.36107">
        <ele>1960.75</ele>
        <time>2019-02-28T14:46:42Z</time>
      </trkpt>
      <trkpt lat="46.62952" lon="12.36122">
        <ele>1958.82</ele>
        <time>2019-02-28T14:46:45Z</time>
      </trkpt>
      <trkpt lat="46.62961" lon="12.3614">
        <ele>1955.46</ele>
        <time>2019-02-28T14:46:51Z</time>
      </trkpt>
      <trkpt lat="46.62963" lon="12.3609">
        <ele>1947.77</ele>
        <time>2019-02-28T14:46:59Z</time>
      </trkpt>
      <trkpt lat="46.62963" lon="12.36086">
        <ele>1946.81</ele>
        <time>2019-02-28T14:47:00Z</time>
      </trkpt>
      <trkpt lat="46.62963" lon="12.36094">
        <ele>1943.44</ele>
        <time>2019-02-28T14:47:04Z</time>
      </trkpt>
      <trkpt lat="46.62962" lon="12.36099">
        <ele>1944.4</ele>
        <time>2019-02-28T14:47:16Z</time>
      </trkpt>
      <trkpt lat="46.62969" lon="12.36095">
        <ele>1940.56</ele>
        <time>2019-02-28T14:47:20Z</time>
      </trkpt>
      <trkpt lat="46.62975" lon="12.36097">
        <ele>1939.6</ele>
        <time>2019-02-28T14:47:22Z</time>
      </trkpt>
      <trkpt lat="46.62986" lon="12.36111">
        <ele>1938.16</ele>
        <time>2019-02-28T14:47:28Z</time>
      </trkpt>
      <trkpt lat="46.62993" lon="12.36109">
        <ele>1936.71</ele>
        <time>2019-02-28T14:47:30Z</time>
      </trkpt>
      <trkpt lat="46.62999" lon="12.36115">
        <ele>1936.71</ele>
        <time>2019-02-28T14:47:39Z</time>
      </trkpt>
      <trkpt lat="46.63002" lon="12.36119">
        <ele>1936.71</ele>
        <time>2019-02-28T14:47:55Z</time>
      </trkpt>
      <trkpt lat="46.63005" lon="12.36126">
        <ele>1935.27</ele>
        <time>2019-02-28T14:48:10Z</time>
      </trkpt>
      <trkpt lat="46.63005" lon="12.36129">
        <ele>1937.67</ele>
        <time>2019-02-28T14:48:48Z</time>
      </trkpt>
      <trkpt lat="46.63005" lon="12.36129">
        <ele>1936.23</ele>
        <time>2019-02-28T14:48:49Z</time>
      </trkpt>
      <trkpt lat="46.63018" lon="12.36133">
        <ele>1935.75</ele>
        <time>2019-02-28T14:49:12Z</time>
      </trkpt>
      <trkpt lat="46.63032" lon="12.36146">
        <ele>1935.75</ele>
        <time>2019-02-28T14:49:48Z</time>
      </trkpt>
      <trkpt lat="46.63031" lon="12.36149">
        <ele>1937.19</ele>
        <time>2019-02-28T14:50:04Z</time>
      </trkpt>
      <trkpt lat="46.63032" lon="12.36147">
        <ele>1936.71</ele>
        <time>2019-02-28T14:50:17Z</time>
      </trkpt>
      <trkpt lat="46.63031" lon="12.36146">
        <ele>1936.71</ele>
        <time>2019-02-28T14:50:38Z</time>
      </trkpt>
      <trkpt lat="46.63031" lon="12.36149">
        <ele>1938.16</ele>
        <time>2019-02-28T14:50:49Z</time>
      </trkpt>
      <trkpt lat="46.63032" lon="12.36151">
        <ele>1936.71</ele>
        <time>2019-02-28T14:50:51Z</time>
      </trkpt>
      <trkpt lat="46.63039" lon="12.36162">
        <ele>1936.71</ele>
        <time>2019-02-28T14:51:20Z</time>
      </trkpt>
      <trkpt lat="46.63042" lon="12.36159">
        <ele>1936.23</ele>
        <time>2019-02-28T14:51:43Z</time>
      </trkpt>
      <trkpt lat="46.6305" lon="12.36159">
        <ele>1936.23</ele>
        <time>2019-02-28T14:52:09Z</time>
      </trkpt>
      <trkpt lat="46.63057" lon="12.36165">
        <ele>1936.71</ele>
        <time>2019-02-28T14:52:37Z</time>
      </trkpt>
      <trkpt lat="46.63061" lon="12.36169">
        <ele>1940.08</ele>
        <time>2019-02-28T14:52:49Z</time>
      </trkpt>
      <trkpt lat="46.63061" lon="12.36169">
        <ele>1940.08</ele>
        <time>2019-02-28T14:52:50Z</time>
      </trkpt>
      <trkpt lat="46.63064" lon="12.36169">
        <ele>1942</ele>
        <time>2019-02-28T14:53:17Z</time>
      </trkpt>
      <trkpt lat="46.63068" lon="12.36177">
        <ele>1944.88</ele>
        <time>2019-02-28T14:53:38Z</time>
      </trkpt>
      <trkpt lat="46.63083" lon="12.36175">
        <ele>1941.52</ele>
        <time>2019-02-28T14:53:42Z</time>
      </trkpt>
      <trkpt lat="46.63086" lon="12.36179">
        <ele>1940.56</ele>
        <time>2019-02-28T14:53:43Z</time>
      </trkpt>
      <trkpt lat="46.63107" lon="12.36191">
        <ele>1939.6</ele>
        <time>2019-02-28T14:53:47Z</time>
      </trkpt>
      <trkpt lat="46.63122" lon="12.36191">
        <ele>1938.16</ele>
        <time>2019-02-28T14:53:49Z</time>
      </trkpt>
      <trkpt lat="46.63128" lon="12.36193">
        <ele>1937.67</ele>
        <time>2019-02-28T14:53:50Z</time>
      </trkpt>
      <trkpt lat="46.63138" lon="12.36196">
        <ele>1937.19</ele>
        <time>2019-02-28T14:53:52Z</time>
      </trkpt>
      <trkpt lat="46.63152" lon="12.36207">
        <ele>1935.75</ele>
        <time>2019-02-28T14:53:56Z</time>
      </trkpt>
      <trkpt lat="46.63181" lon="12.362">
        <ele>1931.43</ele>
        <time>2019-02-28T14:54:00Z</time>
      </trkpt>
      <trkpt lat="46.63184" lon="12.36202">
        <ele>1930.46</ele>
        <time>2019-02-28T14:54:01Z</time>
      </trkpt>
      <trkpt lat="46.63201" lon="12.36217">
        <ele>1928.54</ele>
        <time>2019-02-28T14:54:06Z</time>
      </trkpt>
      <trkpt lat="46.63222" lon="12.36225">
        <ele>1926.14</ele>
        <time>2019-02-28T14:54:11Z</time>
      </trkpt>
      <trkpt lat="46.63226" lon="12.36223">
        <ele>1925.66</ele>
        <time>2019-02-28T14:54:12Z</time>
      </trkpt>
      <trkpt lat="46.63226" lon="12.3623">
        <ele>1925.18</ele>
        <time>2019-02-28T14:54:25Z</time>
      </trkpt>
      <trkpt lat="46.63225" lon="12.36233">
        <ele>1925.18</ele>
        <time>2019-02-28T14:54:42Z</time>
      </trkpt>
      <trkpt lat="46.63235" lon="12.36234">
        <ele>1923.74</ele>
        <time>2019-02-28T14:54:46Z</time>
      </trkpt>
      <trkpt lat="46.63247" lon="12.36228">
        <ele>1923.25</ele>
        <time>2019-02-28T14:54:52Z</time>
      </trkpt>
      <trkpt lat="46.63265" lon="12.36207">
        <ele>1920.85</ele>
        <time>2019-02-28T14:54:59Z</time>
      </trkpt>
      <trkpt lat="46.6327" lon="12.36186">
        <ele>1920.85</ele>
        <time>2019-02-28T14:55:06Z</time>
      </trkpt>
      <trkpt lat="46.63272" lon="12.36192">
        <ele>1923.74</ele>
        <time>2019-02-28T14:55:27Z</time>
      </trkpt>
      <trkpt lat="46.63272" lon="12.36194">
        <ele>1924.22</ele>
        <time>2019-02-28T14:55:36Z</time>
      </trkpt>
      <trkpt lat="46.6327" lon="12.36195">
        <ele>1922.77</ele>
        <time>2019-02-28T14:55:40Z</time>
      </trkpt>
      <trkpt lat="46.63294" lon="12.3619">
        <ele>1921.81</ele>
        <time>2019-02-28T14:55:52Z</time>
      </trkpt>
      <trkpt lat="46.63293" lon="12.36179">
        <ele>1920.37</ele>
        <time>2019-02-28T14:55:55Z</time>
      </trkpt>
      <trkpt lat="46.63293" lon="12.36179">
        <ele>1919.89</ele>
        <time>2019-02-28T14:56:00Z</time>
      </trkpt>
      <trkpt lat="46.63298" lon="12.36177">
        <ele>1919.89</ele>
        <time>2019-02-28T14:56:12Z</time>
      </trkpt>
      <trkpt lat="46.63298" lon="12.36176">
        <ele>1918.93</ele>
        <time>2019-02-28T14:56:13Z</time>
      </trkpt>
      <trkpt lat="46.63302" lon="12.36172">
        <ele>1918.45</ele>
        <time>2019-02-28T14:56:14Z</time>
      </trkpt>
      <trkpt lat="46.63315" lon="12.36176">
        <ele>1918.45</ele>
        <time>2019-02-28T14:56:24Z</time>
      </trkpt>
      <trkpt lat="46.63321" lon="12.36178">
        <ele>1921.81</ele>
        <time>2019-02-28T14:56:46Z</time>
      </trkpt>
      <trkpt lat="46.63322" lon="12.36178">
        <ele>1923.74</ele>
        <time>2019-02-28T14:56:51Z</time>
      </trkpt>
      <trkpt lat="46.63322" lon="12.36178">
        <ele>1922.29</ele>
        <time>2019-02-28T14:56:52Z</time>
      </trkpt>
      <trkpt lat="46.63323" lon="12.36183">
        <ele>1922.29</ele>
        <time>2019-02-28T14:57:18Z</time>
      </trkpt>
      <trkpt lat="46.63332" lon="12.36182">
        <ele>1921.81</ele>
        <time>2019-02-28T14:57:41Z</time>
      </trkpt>
      <trkpt lat="46.63348" lon="12.36188">
        <ele>1918.45</ele>
        <time>2019-02-28T14:57:46Z</time>
      </trkpt>
      <trkpt lat="46.63355" lon="12.36187">
        <ele>1917.01</ele>
        <time>2019-02-28T14:57:48Z</time>
      </trkpt>
      <trkpt lat="46.6341" lon="12.36191">
        <ele>1914.6</ele>
        <time>2019-02-28T14:57:59Z</time>
      </trkpt>
      <trkpt lat="46.63421" lon="12.36195">
        <ele>1914.6</ele>
        <time>2019-02-28T14:58:08Z</time>
      </trkpt>
      <trkpt lat="46.6343" lon="12.36196">
        <ele>1914.6</ele>
        <time>2019-02-28T14:58:31Z</time>
      </trkpt>
      <trkpt lat="46.63426" lon="12.36204">
        <ele>1915.56</ele>
        <time>2019-02-28T14:58:52Z</time>
      </trkpt>
      <trkpt lat="46.6343" lon="12.36209">
        <ele>1914.6</ele>
        <time>2019-02-28T14:59:08Z</time>
      </trkpt>
      <trkpt lat="46.63437" lon="12.36204">
        <ele>1913.64</ele>
        <time>2019-02-28T14:59:10Z</time>
      </trkpt>
      <trkpt lat="46.63442" lon="12.36203">
        <ele>1911.72</ele>
        <time>2019-02-28T14:59:12Z</time>
      </trkpt>
      <trkpt lat="46.63443" lon="12.36203">
        <ele>1911.24</ele>
        <time>2019-02-28T14:59:13Z</time>
      </trkpt>
      <trkpt lat="46.63446" lon="12.36196">
        <ele>1908.83</ele>
        <time>2019-02-28T14:59:15Z</time>
      </trkpt>
      <trkpt lat="46.63457" lon="12.36192">
        <ele>1905.95</ele>
        <time>2019-02-28T14:59:17Z</time>
      </trkpt>
      <trkpt lat="46.63472" lon="12.36182">
        <ele>1902.11</ele>
        <time>2019-02-28T14:59:21Z</time>
      </trkpt>
      <trkpt lat="46.63477" lon="12.36183">
        <ele>1900.66</ele>
        <time>2019-02-28T14:59:23Z</time>
      </trkpt>
      <trkpt lat="46.63494" lon="12.36197">
        <ele>1897.3</ele>
        <time>2019-02-28T14:59:30Z</time>
      </trkpt>
      <trkpt lat="46.63497" lon="12.36198">
        <ele>1896.34</ele>
        <time>2019-02-28T14:59:31Z</time>
      </trkpt>
      <trkpt lat="46.63505" lon="12.36191">
        <ele>1894.9</ele>
        <time>2019-02-28T14:59:35Z</time>
      </trkpt>
      <trkpt lat="46.63513" lon="12.3619">
        <ele>1892.97</ele>
        <time>2019-02-28T14:59:37Z</time>
      </trkpt>
      <trkpt lat="46.63518" lon="12.36194">
        <ele>1891.53</ele>
        <time>2019-02-28T14:59:40Z</time>
      </trkpt>
      <trkpt lat="46.63527" lon="12.3619">
        <ele>1889.13</ele>
        <time>2019-02-28T14:59:42Z</time>
      </trkpt>
      <trkpt lat="46.63538" lon="12.36192">
        <ele>1887.69</ele>
        <time>2019-02-28T14:59:45Z</time>
      </trkpt>
      <trkpt lat="46.63548" lon="12.36193">
        <ele>1886.24</ele>
        <time>2019-02-28T14:59:48Z</time>
      </trkpt>
      <trkpt lat="46.63581" lon="12.36203">
        <ele>1885.28</ele>
        <time>2019-02-28T14:59:58Z</time>
      </trkpt>
      <trkpt lat="46.63599" lon="12.36224">
        <ele>1886.24</ele>
        <time>2019-02-28T15:00:18Z</time>
      </trkpt>
      <trkpt lat="46.63646" lon="12.36243">
        <ele>1886.24</ele>
        <time>2019-02-28T15:00:36Z</time>
      </trkpt>
      <trkpt lat="46.63648" lon="12.36241">
        <ele>1886.24</ele>
        <time>2019-02-28T15:00:42Z</time>
      </trkpt>
      <trkpt lat="46.63649" lon="12.36238">
        <ele>1885.76</ele>
        <time>2019-02-28T15:00:43Z</time>
      </trkpt>
      <trkpt lat="46.63653" lon="12.36232">
        <ele>1886.72</ele>
        <time>2019-02-28T15:00:53Z</time>
      </trkpt>
      <trkpt lat="46.63653" lon="12.36228">
        <ele>1885.28</ele>
        <time>2019-02-28T15:01:10Z</time>
      </trkpt>
      <trkpt lat="46.63661" lon="12.36211">
        <ele>1883.36</ele>
        <time>2019-02-28T15:01:17Z</time>
      </trkpt>
      <trkpt lat="46.63664" lon="12.36201">
        <ele>1881.44</ele>
        <time>2019-02-28T15:01:21Z</time>
      </trkpt>
      <trkpt lat="46.63658" lon="12.36187">
        <ele>1879.51</ele>
        <time>2019-02-28T15:01:24Z</time>
      </trkpt>
      <trkpt lat="46.63657" lon="12.36182">
        <ele>1879.51</ele>
        <time>2019-02-28T15:01:33Z</time>
      </trkpt>
      <trkpt lat="46.63657" lon="12.3618">
        <ele>1879.51</ele>
        <time>2019-02-28T15:01:36Z</time>
      </trkpt>
      <trkpt lat="46.63657" lon="12.36178">
        <ele>1879.51</ele>
        <time>2019-02-28T15:01:37Z</time>
      </trkpt>
      <trkpt lat="46.63661" lon="12.36157">
        <ele>1877.59</ele>
        <time>2019-02-28T15:01:44Z</time>
      </trkpt>
      <trkpt lat="46.63663" lon="12.36154">
        <ele>1877.11</ele>
        <time>2019-02-28T15:01:47Z</time>
      </trkpt>
      <trkpt lat="46.63667" lon="12.36154">
        <ele>1875.19</ele>
        <time>2019-02-28T15:01:50Z</time>
      </trkpt>
      <trkpt lat="46.63661" lon="12.36169">
        <ele>1874.71</ele>
        <time>2019-02-28T15:02:02Z</time>
      </trkpt>
      <trkpt lat="46.6364" lon="12.36185">
        <ele>1874.71</ele>
        <time>2019-02-28T15:02:23Z</time>
      </trkpt>
      <trkpt lat="46.63635" lon="12.36186">
        <ele>1873.75</ele>
        <time>2019-02-28T15:02:39Z</time>
      </trkpt>
      <trkpt lat="46.63646" lon="12.36181">
        <ele>1871.82</ele>
        <time>2019-02-28T15:02:43Z</time>
      </trkpt>
      <trkpt lat="46.63659" lon="12.36176">
        <ele>1867.98</ele>
        <time>2019-02-28T15:02:46Z</time>
      </trkpt>
      <trkpt lat="46.63675" lon="12.36179">
        <ele>1865.09</ele>
        <time>2019-02-28T15:02:50Z</time>
      </trkpt>
      <trkpt lat="46.6368" lon="12.36164">
        <ele>1859.81</ele>
        <time>2019-02-28T15:02:54Z</time>
      </trkpt>
      <trkpt lat="46.6368" lon="12.36155">
        <ele>1859.33</ele>
        <time>2019-02-28T15:02:56Z</time>
      </trkpt>
      <trkpt lat="46.63694" lon="12.36145">
        <ele>1857.89</ele>
        <time>2019-02-28T15:02:58Z</time>
      </trkpt>
      <trkpt lat="46.63701" lon="12.3614">
        <ele>1855.96</ele>
        <time>2019-02-28T15:03:00Z</time>
      </trkpt>
      <trkpt lat="46.63709" lon="12.36157">
        <ele>1855.48</ele>
        <time>2019-02-28T15:03:09Z</time>
      </trkpt>
      <trkpt lat="46.63699" lon="12.3617">
        <ele>1855.48</ele>
        <time>2019-02-28T15:03:27Z</time>
      </trkpt>
      <trkpt lat="46.63694" lon="12.36173">
        <ele>1855.48</ele>
        <time>2019-02-28T15:03:51Z</time>
      </trkpt>
      <trkpt lat="46.63695" lon="12.36172">
        <ele>1855.48</ele>
        <time>2019-02-28T15:04:11Z</time>
      </trkpt>
      <trkpt lat="46.63688" lon="12.36167">
        <ele>1855.48</ele>
        <time>2019-02-28T15:04:32Z</time>
      </trkpt>
      <trkpt lat="46.63686" lon="12.36165">
        <ele>1855.48</ele>
        <time>2019-02-28T15:04:52Z</time>
      </trkpt>
      <trkpt lat="46.63685" lon="12.36164">
        <ele>1856.92</ele>
        <time>2019-02-28T15:04:55Z</time>
      </trkpt>
      <trkpt lat="46.63688" lon="12.36164">
        <ele>1855.48</ele>
        <time>2019-02-28T15:05:15Z</time>
      </trkpt>
      <trkpt lat="46.63687" lon="12.3616">
        <ele>1855</ele>
        <time>2019-02-28T15:05:36Z</time>
      </trkpt>
      <trkpt lat="46.63708" lon="12.3614">
        <ele>1850.68</ele>
        <time>2019-02-28T15:05:40Z</time>
      </trkpt>
      <trkpt lat="46.63721" lon="12.36126">
        <ele>1847.31</ele>
        <time>2019-02-28T15:05:44Z</time>
      </trkpt>
      <trkpt lat="46.63732" lon="12.36115">
        <ele>1844.43</ele>
        <time>2019-02-28T15:05:48Z</time>
      </trkpt>
      <trkpt lat="46.63739" lon="12.36108">
        <ele>1841.54</ele>
        <time>2019-02-28T15:05:51Z</time>
      </trkpt>
      <trkpt lat="46.63747" lon="12.36098">
        <ele>1839.14</ele>
        <time>2019-02-28T15:05:54Z</time>
      </trkpt>
      <trkpt lat="46.63757" lon="12.36094">
        <ele>1837.7</ele>
        <time>2019-02-28T15:05:56Z</time>
      </trkpt>
      <trkpt lat="46.63765" lon="12.36087">
        <ele>1835.77</ele>
        <time>2019-02-28T15:05:59Z</time>
      </trkpt>
      <trkpt lat="46.63764" lon="12.3609">
        <ele>1834.81</ele>
        <time>2019-02-28T15:06:00Z</time>
      </trkpt>
      <trkpt lat="46.63752" lon="12.361">
        <ele>1834.81</ele>
        <time>2019-02-28T15:06:16Z</time>
      </trkpt>
      <trkpt lat="46.63743" lon="12.36103">
        <ele>1834.33</ele>
        <time>2019-02-28T15:06:41Z</time>
      </trkpt>
      <trkpt lat="46.63744" lon="12.36103">
        <ele>1834.33</ele>
        <time>2019-02-28T15:06:44Z</time>
      </trkpt>
      <trkpt lat="46.63768" lon="12.36093">
        <ele>1830.01</ele>
        <time>2019-02-28T15:06:51Z</time>
      </trkpt>
      <trkpt lat="46.6377" lon="12.3609">
        <ele>1830.49</ele>
        <time>2019-02-28T15:06:52Z</time>
      </trkpt>
      <trkpt lat="46.63774" lon="12.36085">
        <ele>1829.05</ele>
        <time>2019-02-28T15:06:55Z</time>
      </trkpt>
      <trkpt lat="46.63775" lon="12.36086">
        <ele>1827.12</ele>
        <time>2019-02-28T15:06:56Z</time>
      </trkpt>
      <trkpt lat="46.63784" lon="12.36038">
        <ele>1823.76</ele>
        <time>2019-02-28T15:07:06Z</time>
      </trkpt>
      <trkpt lat="46.63784" lon="12.36036">
        <ele>1823.76</ele>
        <time>2019-02-28T15:07:07Z</time>
      </trkpt>
      <trkpt lat="46.6379" lon="12.3602">
        <ele>1821.84</ele>
        <time>2019-02-28T15:07:09Z</time>
      </trkpt>
      <trkpt lat="46.63791" lon="12.36019">
        <ele>1820.87</ele>
        <time>2019-02-28T15:07:10Z</time>
      </trkpt>
      <trkpt lat="46.63797" lon="12.36025">
        <ele>1819.43</ele>
        <time>2019-02-28T15:07:11Z</time>
      </trkpt>
      <trkpt lat="46.638" lon="12.36022">
        <ele>1818.95</ele>
        <time>2019-02-28T15:07:12Z</time>
      </trkpt>
      <trkpt lat="46.63806" lon="12.36059">
        <ele>1816.07</ele>
        <time>2019-02-28T15:07:20Z</time>
      </trkpt>
      <trkpt lat="46.63815" lon="12.36056">
        <ele>1813.18</ele>
        <time>2019-02-28T15:07:24Z</time>
      </trkpt>
      <trkpt lat="46.63816" lon="12.36058">
        <ele>1813.66</ele>
        <time>2019-02-28T15:07:32Z</time>
      </trkpt>
      <trkpt lat="46.63826" lon="12.36051">
        <ele>1811.26</ele>
        <time>2019-02-28T15:07:36Z</time>
      </trkpt>
      <trkpt lat="46.63825" lon="12.36032">
        <ele>1808.86</ele>
        <time>2019-02-28T15:07:40Z</time>
      </trkpt>
      <trkpt lat="46.63834" lon="12.36027">
        <ele>1805.97</ele>
        <time>2019-02-28T15:07:44Z</time>
      </trkpt>
      <trkpt lat="46.63847" lon="12.36017">
        <ele>1804.05</ele>
        <time>2019-02-28T15:07:53Z</time>
      </trkpt>
      <trkpt lat="46.63849" lon="12.36018">
        <ele>1804.53</ele>
        <time>2019-02-28T15:08:09Z</time>
      </trkpt>
      <trkpt lat="46.63855" lon="12.36018">
        <ele>1802.61</ele>
        <time>2019-02-28T15:08:12Z</time>
      </trkpt>
      <trkpt lat="46.63877" lon="12.36023">
        <ele>1800.21</ele>
        <time>2019-02-28T15:08:21Z</time>
      </trkpt>
      <trkpt lat="46.63886" lon="12.36024">
        <ele>1798.28</ele>
        <time>2019-02-28T15:08:26Z</time>
      </trkpt>
      <trkpt lat="46.63894" lon="12.36029">
        <ele>1795.88</ele>
        <time>2019-02-28T15:08:37Z</time>
      </trkpt>
      <trkpt lat="46.63887" lon="12.36034">
        <ele>1794.44</ele>
        <time>2019-02-28T15:08:39Z</time>
      </trkpt>
      <trkpt lat="46.63881" lon="12.36037">
        <ele>1793</ele>
        <time>2019-02-28T15:08:46Z</time>
      </trkpt>
      <trkpt lat="46.63882" lon="12.3604">
        <ele>1793</ele>
        <time>2019-02-28T15:09:07Z</time>
      </trkpt>
      <trkpt lat="46.63882" lon="12.3604">
        <ele>1793</ele>
        <time>2019-02-28T15:09:30Z</time>
      </trkpt>
      <trkpt lat="46.63882" lon="12.36044">
        <ele>1792.52</ele>
        <time>2019-02-28T15:09:50Z</time>
      </trkpt>
      <trkpt lat="46.6388" lon="12.36047">
        <ele>1791.55</ele>
        <time>2019-02-28T15:09:55Z</time>
      </trkpt>
      <trkpt lat="46.63908" lon="12.36042">
        <ele>1788.19</ele>
        <time>2019-02-28T15:10:01Z</time>
      </trkpt>
      <trkpt lat="46.63935" lon="12.36037">
        <ele>1784.34</ele>
        <time>2019-02-28T15:10:07Z</time>
      </trkpt>
      <trkpt lat="46.63949" lon="12.36029">
        <ele>1781.94</ele>
        <time>2019-02-28T15:10:10Z</time>
      </trkpt>
      <trkpt lat="46.63965" lon="12.3602">
        <ele>1779.54</ele>
        <time>2019-02-28T15:10:13Z</time>
      </trkpt>
      <trkpt lat="46.63978" lon="12.36003">
        <ele>1778.58</ele>
        <time>2019-02-28T15:10:21Z</time>
      </trkpt>
      <trkpt lat="46.63975" lon="12.36007">
        <ele>1778.1</ele>
        <time>2019-02-28T15:10:45Z</time>
      </trkpt>
      <trkpt lat="46.63976" lon="12.36011">
        <ele>1777.61</ele>
        <time>2019-02-28T15:11:08Z</time>
      </trkpt>
      <trkpt lat="46.63977" lon="12.36011">
        <ele>1777.61</ele>
        <time>2019-02-28T15:11:09Z</time>
      </trkpt>
      <trkpt lat="46.63997" lon="12.36">
        <ele>1773.77</ele>
        <time>2019-02-28T15:11:15Z</time>
      </trkpt>
      <trkpt lat="46.64005" lon="12.35996">
        <ele>1772.81</ele>
        <time>2019-02-28T15:11:17Z</time>
      </trkpt>
      <trkpt lat="46.64029" lon="12.35986">
        <ele>1770.41</ele>
        <time>2019-02-28T15:11:28Z</time>
      </trkpt>
      <trkpt lat="46.64032" lon="12.3599">
        <ele>1770.41</ele>
        <time>2019-02-28T15:11:48Z</time>
      </trkpt>
      <trkpt lat="46.64033" lon="12.3599">
        <ele>1768.96</ele>
        <time>2019-02-28T15:11:58Z</time>
      </trkpt>
      <trkpt lat="46.64047" lon="12.35984">
        <ele>1766.56</ele>
        <time>2019-02-28T15:12:01Z</time>
      </trkpt>
      <trkpt lat="46.64064" lon="12.35973">
        <ele>1762.71</ele>
        <time>2019-02-28T15:12:06Z</time>
      </trkpt>
      <trkpt lat="46.64066" lon="12.35978">
        <ele>1762.23</ele>
        <time>2019-02-28T15:12:23Z</time>
      </trkpt>
      <trkpt lat="46.64067" lon="12.35977">
        <ele>1761.27</ele>
        <time>2019-02-28T15:12:25Z</time>
      </trkpt>
      <trkpt lat="46.64073" lon="12.35975">
        <ele>1759.35</ele>
        <time>2019-02-28T15:12:33Z</time>
      </trkpt>
      <trkpt lat="46.64082" lon="12.3597">
        <ele>1756.47</ele>
        <time>2019-02-28T15:12:37Z</time>
      </trkpt>
      <trkpt lat="46.64092" lon="12.35957">
        <ele>1754.54</ele>
        <time>2019-02-28T15:12:41Z</time>
      </trkpt>
      <trkpt lat="46.64092" lon="12.35956">
        <ele>1754.06</ele>
        <time>2019-02-28T15:12:42Z</time>
      </trkpt>
      <trkpt lat="46.64093" lon="12.35956">
        <ele>1753.1</ele>
        <time>2019-02-28T15:12:52Z</time>
      </trkpt>
      <trkpt lat="46.64104" lon="12.35952">
        <ele>1749.26</ele>
        <time>2019-02-28T15:12:57Z</time>
      </trkpt>
      <trkpt lat="46.64107" lon="12.35949">
        <ele>1748.78</ele>
        <time>2019-02-28T15:12:58Z</time>
      </trkpt>
      <trkpt lat="46.64111" lon="12.35946">
        <ele>1748.29</ele>
        <time>2019-02-28T15:13:08Z</time>
      </trkpt>
      <trkpt lat="46.64114" lon="12.3595">
        <ele>1748.78</ele>
        <time>2019-02-28T15:13:24Z</time>
      </trkpt>
      <trkpt lat="46.64113" lon="12.35951">
        <ele>1745.89</ele>
        <time>2019-02-28T15:13:26Z</time>
      </trkpt>
      <trkpt lat="46.64119" lon="12.35954">
        <ele>1744.93</ele>
        <time>2019-02-28T15:13:35Z</time>
      </trkpt>
      <trkpt lat="46.64121" lon="12.35953">
        <ele>1744.93</ele>
        <time>2019-02-28T15:13:56Z</time>
      </trkpt>
      <trkpt lat="46.64123" lon="12.35954">
        <ele>1744.45</ele>
        <time>2019-02-28T15:14:14Z</time>
      </trkpt>
      <trkpt lat="46.64123" lon="12.35954">
        <ele>1744.45</ele>
        <time>2019-02-28T15:14:15Z</time>
      </trkpt>
      <trkpt lat="46.64134" lon="12.35954">
        <ele>1741.57</ele>
        <time>2019-02-28T15:14:22Z</time>
      </trkpt>
      <trkpt lat="46.64135" lon="12.35954">
        <ele>1741.57</ele>
        <time>2019-02-28T15:14:23Z</time>
      </trkpt>
      <trkpt lat="46.64145" lon="12.35946">
        <ele>1739.64</ele>
        <time>2019-02-28T15:14:31Z</time>
      </trkpt>
      <trkpt lat="46.64145" lon="12.35946">
        <ele>1739.16</ele>
        <time>2019-02-28T15:14:33Z</time>
      </trkpt>
      <trkpt lat="46.64143" lon="12.35942">
        <ele>1736.76</ele>
        <time>2019-02-28T15:14:37Z</time>
      </trkpt>
      <trkpt lat="46.64142" lon="12.35937">
        <ele>1736.28</ele>
        <time>2019-02-28T15:14:48Z</time>
      </trkpt>
      <trkpt lat="46.64147" lon="12.35929">
        <ele>1735.8</ele>
        <time>2019-02-28T15:14:52Z</time>
      </trkpt>
      <trkpt lat="46.64158" lon="12.35903">
        <ele>1733.88</ele>
        <time>2019-02-28T15:15:01Z</time>
      </trkpt>
      <trkpt lat="46.64161" lon="12.35894">
        <ele>1733.39</ele>
        <time>2019-02-28T15:15:11Z</time>
      </trkpt>
      <trkpt lat="46.64163" lon="12.3589">
        <ele>1733.39</ele>
        <time>2019-02-28T15:15:13Z</time>
      </trkpt>
      <trkpt lat="46.64171" lon="12.35876">
        <ele>1729.55</ele>
        <time>2019-02-28T15:15:19Z</time>
      </trkpt>
      <trkpt lat="46.6417" lon="12.3588">
        <ele>1729.07</ele>
        <time>2019-02-28T15:15:30Z</time>
      </trkpt>
      <trkpt lat="46.6417" lon="12.35878">
        <ele>1728.59</ele>
        <time>2019-02-28T15:15:45Z</time>
      </trkpt>
      <trkpt lat="46.64169" lon="12.3587">
        <ele>1728.59</ele>
        <time>2019-02-28T15:16:08Z</time>
      </trkpt>
      <trkpt lat="46.6417" lon="12.35869">
        <ele>1728.59</ele>
        <time>2019-02-28T15:16:15Z</time>
      </trkpt>
      <trkpt lat="46.64164" lon="12.35873">
        <ele>1728.11</ele>
        <time>2019-02-28T15:16:29Z</time>
      </trkpt>
      <trkpt lat="46.64168" lon="12.3591">
        <ele>1728.11</ele>
        <time>2019-02-28T15:16:57Z</time>
      </trkpt>
      <trkpt lat="46.64162" lon="12.35897">
        <ele>1728.11</ele>
        <time>2019-02-28T15:17:16Z</time>
      </trkpt>
      <trkpt lat="46.64162" lon="12.35896">
        <ele>1727.63</ele>
        <time>2019-02-28T15:17:22Z</time>
      </trkpt>
      <trkpt lat="46.64163" lon="12.35861">
        <ele>1726.18</ele>
        <time>2019-02-28T15:17:25Z</time>
      </trkpt>
      <trkpt lat="46.6417" lon="12.3584">
        <ele>1723.78</ele>
        <time>2019-02-28T15:17:30Z</time>
      </trkpt>
      <trkpt lat="46.64168" lon="12.3583">
        <ele>1721.86</ele>
        <time>2019-02-28T15:17:45Z</time>
      </trkpt>
      <trkpt lat="46.64169" lon="12.3583">
        <ele>1721.38</ele>
        <time>2019-02-28T15:17:46Z</time>
      </trkpt>
      <trkpt lat="46.64173" lon="12.35827">
        <ele>1720.42</ele>
        <time>2019-02-28T15:17:48Z</time>
      </trkpt>
      <trkpt lat="46.64177" lon="12.35824">
        <ele>1718.97</ele>
        <time>2019-02-28T15:17:50Z</time>
      </trkpt>
      <trkpt lat="46.6418" lon="12.35818">
        <ele>1718.01</ele>
        <time>2019-02-28T15:17:52Z</time>
      </trkpt>
      <trkpt lat="46.64186" lon="12.35813">
        <ele>1715.61</ele>
        <time>2019-02-28T15:18:02Z</time>
      </trkpt>
      <trkpt lat="46.64186" lon="12.35814">
        <ele>1715.61</ele>
        <time>2019-02-28T15:18:04Z</time>
      </trkpt>
      <trkpt lat="46.64191" lon="12.35815">
        <ele>1713.21</ele>
        <time>2019-02-28T15:18:08Z</time>
      </trkpt>
      <trkpt lat="46.64192" lon="12.35817">
        <ele>1713.69</ele>
        <time>2019-02-28T15:18:27Z</time>
      </trkpt>
      <trkpt lat="46.64194" lon="12.35819">
        <ele>1713.69</ele>
        <time>2019-02-28T15:18:28Z</time>
      </trkpt>
      <trkpt lat="46.64199" lon="12.35795">
        <ele>1709.84</ele>
        <time>2019-02-28T15:18:34Z</time>
      </trkpt>
      <trkpt lat="46.64201" lon="12.35791">
        <ele>1707.92</ele>
        <time>2019-02-28T15:18:37Z</time>
      </trkpt>
      <trkpt lat="46.64206" lon="12.35786">
        <ele>1705.52</ele>
        <time>2019-02-28T15:18:41Z</time>
      </trkpt>
      <trkpt lat="46.64213" lon="12.35782">
        <ele>1703.59</ele>
        <time>2019-02-28T15:18:50Z</time>
      </trkpt>
      <trkpt lat="46.6422" lon="12.35781">
        <ele>1699.27</ele>
        <time>2019-02-28T15:19:00Z</time>
      </trkpt>
      <trkpt lat="46.64224" lon="12.3578">
        <ele>1698.31</ele>
        <time>2019-02-28T15:19:01Z</time>
      </trkpt>
      <trkpt lat="46.64231" lon="12.35787">
        <ele>1694.94</ele>
        <time>2019-02-28T15:19:05Z</time>
      </trkpt>
      <trkpt lat="46.64239" lon="12.35792">
        <ele>1694.94</ele>
        <time>2019-02-28T15:19:08Z</time>
      </trkpt>
      <trkpt lat="46.64255" lon="12.3579">
        <ele>1691.58</ele>
        <time>2019-02-28T15:19:12Z</time>
      </trkpt>
      <trkpt lat="46.64261" lon="12.3579">
        <ele>1691.1</ele>
        <time>2019-02-28T15:19:14Z</time>
      </trkpt>
      <trkpt lat="46.64263" lon="12.3579">
        <ele>1691.1</ele>
        <time>2019-02-28T15:19:15Z</time>
      </trkpt>
      <trkpt lat="46.64266" lon="12.35795">
        <ele>1691.1</ele>
        <time>2019-02-28T15:19:26Z</time>
      </trkpt>
      <trkpt lat="46.6427" lon="12.35801">
        <ele>1690.62</ele>
        <time>2019-02-28T15:19:49Z</time>
      </trkpt>
      <trkpt lat="46.64272" lon="12.35809">
        <ele>1690.14</ele>
        <time>2019-02-28T15:20:06Z</time>
      </trkpt>
      <trkpt lat="46.64271" lon="12.35803">
        <ele>1689.65</ele>
        <time>2019-02-28T15:20:34Z</time>
      </trkpt>
      <trkpt lat="46.64272" lon="12.35807">
        <ele>1689.17</ele>
        <time>2019-02-28T15:20:59Z</time>
      </trkpt>
      <trkpt lat="46.6427" lon="12.35806">
        <ele>1688.69</ele>
        <time>2019-02-28T15:21:24Z</time>
      </trkpt>
      <trkpt lat="46.6427" lon="12.35804">
        <ele>1688.69</ele>
        <time>2019-02-28T15:21:43Z</time>
      </trkpt>
      <trkpt lat="46.6427" lon="12.35808">
        <ele>1688.69</ele>
        <time>2019-02-28T15:22:09Z</time>
      </trkpt>
      <trkpt lat="46.6427" lon="12.3581">
        <ele>1688.21</ele>
        <time>2019-02-28T15:22:33Z</time>
      </trkpt>
      <trkpt lat="46.64269" lon="12.35805">
        <ele>1687.73</ele>
        <time>2019-02-28T15:22:58Z</time>
      </trkpt>
      <trkpt lat="46.64266" lon="12.35803">
        <ele>1687.73</ele>
        <time>2019-02-28T15:23:21Z</time>
      </trkpt>
      <trkpt lat="46.64266" lon="12.35798">
        <ele>1687.73</ele>
        <time>2019-02-28T15:23:45Z</time>
      </trkpt>
      <trkpt lat="46.64266" lon="12.35794">
        <ele>1687.73</ele>
        <time>2019-02-28T15:24:09Z</time>
      </trkpt>
      <trkpt lat="46.64266" lon="12.35796">
        <ele>1687.25</ele>
        <time>2019-02-28T15:24:19Z</time>
      </trkpt>
      <trkpt lat="46.64278" lon="12.3579">
        <ele>1684.85</ele>
        <time>2019-02-28T15:24:25Z</time>
      </trkpt>
      <trkpt lat="46.64296" lon="12.35782">
        <ele>1682.44</ele>
        <time>2019-02-28T15:24:30Z</time>
      </trkpt>
      <trkpt lat="46.64306" lon="12.35781">
        <ele>1681</ele>
        <time>2019-02-28T15:24:32Z</time>
      </trkpt>
      <trkpt lat="46.64328" lon="12.35776">
        <ele>1677.64</ele>
        <time>2019-02-28T15:24:36Z</time>
      </trkpt>
      <trkpt lat="46.64351" lon="12.35773">
        <ele>1677.16</ele>
        <time>2019-02-28T15:24:45Z</time>
      </trkpt>
      <trkpt lat="46.64353" lon="12.35773">
        <ele>1676.68</ele>
        <time>2019-02-28T15:25:09Z</time>
      </trkpt>
      <trkpt lat="46.64361" lon="12.35767">
        <ele>1674.27</ele>
        <time>2019-02-28T15:25:18Z</time>
      </trkpt>
      <trkpt lat="46.64361" lon="12.35766">
        <ele>1674.27</ele>
        <time>2019-02-28T15:25:21Z</time>
      </trkpt>
      <trkpt lat="46.64359" lon="12.35757">
        <ele>1670.91</ele>
        <time>2019-02-28T15:25:25Z</time>
      </trkpt>
      <trkpt lat="46.64364" lon="12.35755">
        <ele>1667.06</ele>
        <time>2019-02-28T15:25:30Z</time>
      </trkpt>
      <trkpt lat="46.64364" lon="12.35751">
        <ele>1666.58</ele>
        <time>2019-02-28T15:25:47Z</time>
      </trkpt>
      <trkpt lat="46.64364" lon="12.3575">
        <ele>1666.1</ele>
        <time>2019-02-28T15:26:09Z</time>
      </trkpt>
      <trkpt lat="46.64364" lon="12.35749">
        <ele>1665.62</ele>
        <time>2019-02-28T15:26:11Z</time>
      </trkpt>
      <trkpt lat="46.64375" lon="12.35742">
        <ele>1662.26</ele>
        <time>2019-02-28T15:26:14Z</time>
      </trkpt>
      <trkpt lat="46.64383" lon="12.35742">
        <ele>1663.22</ele>
        <time>2019-02-28T15:26:22Z</time>
      </trkpt>
      <trkpt lat="46.64382" lon="12.35743">
        <ele>1661.3</ele>
        <time>2019-02-28T15:26:41Z</time>
      </trkpt>
      <trkpt lat="46.64387" lon="12.35742">
        <ele>1661.3</ele>
        <time>2019-02-28T15:26:53Z</time>
      </trkpt>
      <trkpt lat="46.64398" lon="12.35734">
        <ele>1657.93</ele>
        <time>2019-02-28T15:26:57Z</time>
      </trkpt>
      <trkpt lat="46.64401" lon="12.35732">
        <ele>1656.97</ele>
        <time>2019-02-28T15:26:59Z</time>
      </trkpt>
      <trkpt lat="46.64402" lon="12.35733">
        <ele>1656.97</ele>
        <time>2019-02-28T15:27:08Z</time>
      </trkpt>
      <trkpt lat="46.64416" lon="12.35726">
        <ele>1653.12</ele>
        <time>2019-02-28T15:27:13Z</time>
      </trkpt>
      <trkpt lat="46.64415" lon="12.35723">
        <ele>1653.6</ele>
        <time>2019-02-28T15:27:23Z</time>
      </trkpt>
      <trkpt lat="46.64423" lon="12.3572">
        <ele>1650.24</ele>
        <time>2019-02-28T15:27:36Z</time>
      </trkpt>
      <trkpt lat="46.64429" lon="12.35721">
        <ele>1647.36</ele>
        <time>2019-02-28T15:27:46Z</time>
      </trkpt>
      <trkpt lat="46.64429" lon="12.35715">
        <ele>1645.43</ele>
        <time>2019-02-28T15:27:49Z</time>
      </trkpt>
      <trkpt lat="46.64422" lon="12.35708">
        <ele>1644.47</ele>
        <time>2019-02-28T15:27:54Z</time>
      </trkpt>
      <trkpt lat="46.6442" lon="12.35705">
        <ele>1643.03</ele>
        <time>2019-02-28T15:27:59Z</time>
      </trkpt>
      <trkpt lat="46.64432" lon="12.35708">
        <ele>1640.15</ele>
        <time>2019-02-28T15:28:04Z</time>
      </trkpt>
      <trkpt lat="46.6443" lon="12.35706">
        <ele>1640.15</ele>
        <time>2019-02-28T15:28:07Z</time>
      </trkpt>
      <trkpt lat="46.64428" lon="12.35696">
        <ele>1637.74</ele>
        <time>2019-02-28T15:28:12Z</time>
      </trkpt>
      <trkpt lat="46.64434" lon="12.35694">
        <ele>1635.34</ele>
        <time>2019-02-28T15:28:16Z</time>
      </trkpt>
      <trkpt lat="46.64434" lon="12.35694">
        <ele>1634.86</ele>
        <time>2019-02-28T15:28:30Z</time>
      </trkpt>
      <trkpt lat="46.64438" lon="12.3569">
        <ele>1634.38</ele>
        <time>2019-02-28T15:28:47Z</time>
      </trkpt>
      <trkpt lat="46.64451" lon="12.35682">
        <ele>1630.05</ele>
        <time>2019-02-28T15:28:52Z</time>
      </trkpt>
      <trkpt lat="46.64461" lon="12.35677">
        <ele>1627.17</ele>
        <time>2019-02-28T15:28:57Z</time>
      </trkpt>
      <trkpt lat="46.64467" lon="12.35672">
        <ele>1625.73</ele>
        <time>2019-02-28T15:29:05Z</time>
      </trkpt>
      <trkpt lat="46.64467" lon="12.35668">
        <ele>1625.73</ele>
        <time>2019-02-28T15:29:23Z</time>
      </trkpt>
      <trkpt lat="46.64467" lon="12.35667">
        <ele>1625.73</ele>
        <time>2019-02-28T15:29:25Z</time>
      </trkpt>
      <trkpt lat="46.64479" lon="12.35648">
        <ele>1622.36</ele>
        <time>2019-02-28T15:29:32Z</time>
      </trkpt>
      <trkpt lat="46.64483" lon="12.35646">
        <ele>1621.4</ele>
        <time>2019-02-28T15:29:33Z</time>
      </trkpt>
      <trkpt lat="46.6449" lon="12.35638">
        <ele>1619.96</ele>
        <time>2019-02-28T15:29:36Z</time>
      </trkpt>
      <trkpt lat="46.64504" lon="12.35626">
        <ele>1615.63</ele>
        <time>2019-02-28T15:29:42Z</time>
      </trkpt>
      <trkpt lat="46.64516" lon="12.35624">
        <ele>1612.27</ele>
        <time>2019-02-28T15:29:45Z</time>
      </trkpt>
      <trkpt lat="46.64532" lon="12.35611">
        <ele>1609.86</ele>
        <time>2019-02-28T15:29:49Z</time>
      </trkpt>
      <trkpt lat="46.64534" lon="12.35617">
        <ele>1609.86</ele>
        <time>2019-02-28T15:30:00Z</time>
      </trkpt>
      <trkpt lat="46.64539" lon="12.35627">
        <ele>1609.38</ele>
        <time>2019-02-28T15:30:23Z</time>
      </trkpt>
      <trkpt lat="46.64551" lon="12.35609">
        <ele>1607.46</ele>
        <time>2019-02-28T15:30:29Z</time>
      </trkpt>
      <trkpt lat="46.64563" lon="12.35603">
        <ele>1606.02</ele>
        <time>2019-02-28T15:30:32Z</time>
      </trkpt>
      <trkpt lat="46.64583" lon="12.35585">
        <ele>1602.66</ele>
        <time>2019-02-28T15:30:38Z</time>
      </trkpt>
      <trkpt lat="46.64601" lon="12.35583">
        <ele>1600.25</ele>
        <time>2019-02-28T15:30:42Z</time>
      </trkpt>
      <trkpt lat="46.64618" lon="12.3559">
        <ele>1597.37</ele>
        <time>2019-02-28T15:30:45Z</time>
      </trkpt>
      <trkpt lat="46.64629" lon="12.35592">
        <ele>1596.41</ele>
        <time>2019-02-28T15:30:47Z</time>
      </trkpt>
      <trkpt lat="46.64653" lon="12.35597">
        <ele>1594.48</ele>
        <time>2019-02-28T15:30:52Z</time>
      </trkpt>
      <trkpt lat="46.64648" lon="12.35601">
        <ele>1594.96</ele>
        <time>2019-02-28T15:30:57Z</time>
      </trkpt>
      <trkpt lat="46.64658" lon="12.35603">
        <ele>1593.04</ele>
        <time>2019-02-28T15:31:02Z</time>
      </trkpt>
      <trkpt lat="46.64675" lon="12.35602">
        <ele>1591.12</ele>
        <time>2019-02-28T15:31:06Z</time>
      </trkpt>
      <trkpt lat="46.64678" lon="12.356">
        <ele>1591.12</ele>
        <time>2019-02-28T15:31:12Z</time>
      </trkpt>
      <trkpt lat="46.64682" lon="12.35596">
        <ele>1590.64</ele>
        <time>2019-02-28T15:31:15Z</time>
      </trkpt>
      <trkpt lat="46.64702" lon="12.3559">
        <ele>1586.79</ele>
        <time>2019-02-28T15:31:19Z</time>
      </trkpt>
      <trkpt lat="46.64705" lon="12.35596">
        <ele>1586.31</ele>
        <time>2019-02-28T15:31:20Z</time>
      </trkpt>
      <trkpt lat="46.64708" lon="12.35608">
        <ele>1586.31</ele>
        <time>2019-02-28T15:31:22Z</time>
      </trkpt>
      <trkpt lat="46.6471" lon="12.35629">
        <ele>1587.27</ele>
        <time>2019-02-28T15:31:33Z</time>
      </trkpt>
      <trkpt lat="46.64715" lon="12.35637">
        <ele>1587.27</ele>
        <time>2019-02-28T15:31:47Z</time>
      </trkpt>
      <trkpt lat="46.64717" lon="12.35636">
        <ele>1587.27</ele>
        <time>2019-02-28T15:32:02Z</time>
      </trkpt>
      <trkpt lat="46.64715" lon="12.35634">
        <ele>1587.75</ele>
        <time>2019-02-28T15:32:24Z</time>
      </trkpt>
      <trkpt lat="46.64715" lon="12.35635">
        <ele>1586.79</ele>
        <time>2019-02-28T15:32:47Z</time>
      </trkpt>
      <trkpt lat="46.64717" lon="12.35632">
        <ele>1586.79</ele>
        <time>2019-02-28T15:33:05Z</time>
      </trkpt>
      <trkpt lat="46.64716" lon="12.35633">
        <ele>1586.31</ele>
        <time>2019-02-28T15:33:27Z</time>
      </trkpt>
      <trkpt lat="46.64717" lon="12.35632">
        <ele>1586.31</ele>
        <time>2019-02-28T15:33:49Z</time>
      </trkpt>
      <trkpt lat="46.64716" lon="12.35633">
        <ele>1586.31</ele>
        <time>2019-02-28T15:34:05Z</time>
      </trkpt>
      <trkpt lat="46.64719" lon="12.35638">
        <ele>1585.83</ele>
        <time>2019-02-28T15:34:16Z</time>
      </trkpt>
      <trkpt lat="46.64753" lon="12.35666">
        <ele>1583.43</ele>
        <time>2019-02-28T15:34:29Z</time>
      </trkpt>
      <trkpt lat="46.64782" lon="12.35689">
        <ele>1581.03</ele>
        <time>2019-02-28T15:34:36Z</time>
      </trkpt>
      <trkpt lat="46.64811" lon="12.3571">
        <ele>1579.58</ele>
        <time>2019-02-28T15:34:43Z</time>
      </trkpt>
      <trkpt lat="46.64825" lon="12.35725">
        <ele>1576.7</ele>
        <time>2019-02-28T15:34:46Z</time>
      </trkpt>
      <trkpt lat="46.64849" lon="12.35726">
        <ele>1576.7</ele>
        <time>2019-02-28T15:34:51Z</time>
      </trkpt>
      <trkpt lat="46.64856" lon="12.35719">
        <ele>1576.22</ele>
        <time>2019-02-28T15:34:53Z</time>
      </trkpt>
      <trkpt lat="46.6491" lon="12.3565">
        <ele>1573.33</ele>
        <time>2019-02-28T15:35:09Z</time>
      </trkpt>
      <trkpt lat="46.64962" lon="12.356">
        <ele>1569.97</ele>
        <time>2019-02-28T15:35:22Z</time>
      </trkpt>
      <trkpt lat="46.64996" lon="12.35556">
        <ele>1567.57</ele>
        <time>2019-02-28T15:35:31Z</time>
      </trkpt>
      <trkpt lat="46.65028" lon="12.35546">
        <ele>1565.64</ele>
        <time>2019-02-28T15:35:37Z</time>
      </trkpt>
      <trkpt lat="46.65084" lon="12.35558">
        <ele>1564.2</ele>
        <time>2019-02-28T15:35:50Z</time>
      </trkpt>
      <trkpt lat="46.65145" lon="12.3555">
        <ele>1560.84</ele>
        <time>2019-02-28T15:36:03Z</time>
      </trkpt>
      <trkpt lat="46.65195" lon="12.35529">
        <ele>1557.95</ele>
        <time>2019-02-28T15:36:12Z</time>
      </trkpt>
      <trkpt lat="46.65262" lon="12.35507">
        <ele>1554.59</ele>
        <time>2019-02-28T15:36:24Z</time>
      </trkpt>
      <trkpt lat="46.65331" lon="12.35495">
        <ele>1551.22</ele>
        <time>2019-02-28T15:36:35Z</time>
      </trkpt>
      <trkpt lat="46.65372" lon="12.35484">
        <ele>1548.82</ele>
        <time>2019-02-28T15:36:42Z</time>
      </trkpt>
      <trkpt lat="46.65395" lon="12.35488">
        <ele>1547.86</ele>
        <time>2019-02-28T15:36:46Z</time>
      </trkpt>
      <trkpt lat="46.65418" lon="12.35497">
        <ele>1546.42</ele>
        <time>2019-02-28T15:36:50Z</time>
      </trkpt>
      <trkpt lat="46.6548" lon="12.35525">
        <ele>1543.05</ele>
        <time>2019-02-28T15:37:01Z</time>
      </trkpt>
      <trkpt lat="46.65531" lon="12.35555">
        <ele>1540.17</ele>
        <time>2019-02-28T15:37:12Z</time>
      </trkpt>
      <trkpt lat="46.65584" lon="12.35569">
        <ele>1536.8</ele>
        <time>2019-02-28T15:37:23Z</time>
      </trkpt>
      <trkpt lat="46.6563" lon="12.35556">
        <ele>1533.44</ele>
        <time>2019-02-28T15:37:33Z</time>
      </trkpt>
      <trkpt lat="46.65648" lon="12.35551">
        <ele>1532.48</ele>
        <time>2019-02-28T15:37:37Z</time>
      </trkpt>
      <trkpt lat="46.65689" lon="12.35512">
        <ele>1529.59</ele>
        <time>2019-02-28T15:37:51Z</time>
      </trkpt>
      <trkpt lat="46.65726" lon="12.35464">
        <ele>1526.23</ele>
        <time>2019-02-28T15:38:02Z</time>
      </trkpt>
      <trkpt lat="46.65733" lon="12.35457">
        <ele>1526.23</ele>
        <time>2019-02-28T15:38:04Z</time>
      </trkpt>
      <trkpt lat="46.65785" lon="12.35417">
        <ele>1522.87</ele>
        <time>2019-02-28T15:38:17Z</time>
      </trkpt>
      <trkpt lat="46.65837" lon="12.35395">
        <ele>1519.5</ele>
        <time>2019-02-28T15:38:28Z</time>
      </trkpt>
      <trkpt lat="46.65888" lon="12.35385">
        <ele>1516.62</ele>
        <time>2019-02-28T15:38:38Z</time>
      </trkpt>
      <trkpt lat="46.65941" lon="12.35407">
        <ele>1513.25</ele>
        <time>2019-02-28T15:38:49Z</time>
      </trkpt>
      <trkpt lat="46.66012" lon="12.35428">
        <ele>1509.89</ele>
        <time>2019-02-28T15:39:03Z</time>
      </trkpt>
      <trkpt lat="46.66065" lon="12.35446">
        <ele>1506.52</ele>
        <time>2019-02-28T15:39:14Z</time>
      </trkpt>
      <trkpt lat="46.66109" lon="12.35489">
        <ele>1503.64</ele>
        <time>2019-02-28T15:39:25Z</time>
      </trkpt>
      <trkpt lat="46.66167" lon="12.35513">
        <ele>1499.79</ele>
        <time>2019-02-28T15:39:38Z</time>
      </trkpt>
      <trkpt lat="46.66206" lon="12.35524">
        <ele>1497.87</ele>
        <time>2019-02-28T15:39:46Z</time>
      </trkpt>
      <trkpt lat="46.66249" lon="12.35513">
        <ele>1494.99</ele>
        <time>2019-02-28T15:39:54Z</time>
      </trkpt>
      <trkpt lat="46.66259" lon="12.35511">
        <ele>1494.51</ele>
        <time>2019-02-28T15:39:56Z</time>
      </trkpt>
      <trkpt lat="46.66315" lon="12.35518">
        <ele>1492.1</ele>
        <time>2019-02-28T15:40:07Z</time>
      </trkpt>
      <trkpt lat="46.66336" lon="12.35482">
        <ele>1491.14</ele>
        <time>2019-02-28T15:40:16Z</time>
      </trkpt>
      <trkpt lat="46.66331" lon="12.35438">
        <ele>1490.66</ele>
        <time>2019-02-28T15:40:30Z</time>
      </trkpt>
      <trkpt lat="46.66331" lon="12.35433">
        <ele>1490.66</ele>
        <time>2019-02-28T15:40:32Z</time>
      </trkpt>
      <trkpt lat="46.66337" lon="12.35382">
        <ele>1489.7</ele>
        <time>2019-02-28T15:40:50Z</time>
      </trkpt>
      <trkpt lat="46.66343" lon="12.35336">
        <ele>1489.22</ele>
        <time>2019-02-28T15:41:04Z</time>
      </trkpt>
      <trkpt lat="46.66342" lon="12.35295">
        <ele>1489.22</ele>
        <time>2019-02-28T15:41:19Z</time>
      </trkpt>
      <trkpt lat="46.66336" lon="12.35265">
        <ele>1488.74</ele>
        <time>2019-02-28T15:41:33Z</time>
      </trkpt>
      <trkpt lat="46.66333" lon="12.35254">
        <ele>1489.22</ele>
        <time>2019-02-28T15:41:41Z</time>
      </trkpt>
      <trkpt lat="46.66333" lon="12.35253">
        <ele>1488.74</ele>
        <time>2019-02-28T15:41:42Z</time>
      </trkpt>
      <trkpt lat="46.6633" lon="12.35242">
        <ele>1488.74</ele>
        <time>2019-02-28T15:41:51Z</time>
      </trkpt>
      <trkpt lat="46.66327" lon="12.35226">
        <ele>1489.22</ele>
        <time>2019-02-28T15:42:05Z</time>
      </trkpt>
      <trkpt lat="46.66329" lon="12.35218">
        <ele>1488.74</ele>
        <time>2019-02-28T15:42:12Z</time>
      </trkpt>
      <trkpt lat="46.66338" lon="12.35211">
        <ele>1488.74</ele>
        <time>2019-02-28T15:42:25Z</time>
      </trkpt>
      <trkpt lat="46.66341" lon="12.35213">
        <ele>1488.74</ele>
        <time>2019-02-28T15:42:41Z</time>
      </trkpt>
      <trkpt lat="46.6637" lon="12.35235">
        <ele>1487.3</ele>
        <time>2019-02-28T15:42:53Z</time>
      </trkpt>
      <trkpt lat="46.66414" lon="12.35271">
        <ele>1485.37</ele>
        <time>2019-02-28T15:43:08Z</time>
      </trkpt>
      <trkpt lat="46.66466" lon="12.35296">
        <ele>1483.45</ele>
        <time>2019-02-28T15:43:26Z</time>
      </trkpt>
      <trkpt lat="46.66497" lon="12.3531">
        <ele>1482.97</ele>
        <time>2019-02-28T15:43:42Z</time>
      </trkpt>
      <trkpt lat="46.66519" lon="12.35331">
        <ele>1482.97</ele>
        <time>2019-02-28T15:44:00Z</time>
      </trkpt>
      <trkpt lat="46.66538" lon="12.35349">
        <ele>1482.49</ele>
        <time>2019-02-28T15:44:16Z</time>
      </trkpt>
      <trkpt lat="46.66548" lon="12.3535">
        <ele>1482.97</ele>
        <time>2019-02-28T15:44:30Z</time>
      </trkpt>
      <trkpt lat="46.66552" lon="12.35353">
        <ele>1482.49</ele>
        <time>2019-02-28T15:44:37Z</time>
      </trkpt>
      <trkpt lat="46.66554" lon="12.35355">
        <ele>1482.49</ele>
        <time>2019-02-28T15:44:38Z</time>
      </trkpt>
      <trkpt lat="46.66555" lon="12.35357">
        <ele>1482.49</ele>
        <time>2019-02-28T15:44:39Z</time>
      </trkpt>
      <trkpt lat="46.66555" lon="12.35358">
        <ele>1482.49</ele>
        <time>2019-02-28T15:44:40Z</time>
      </trkpt>
      <trkpt lat="46.66553" lon="12.3536">
        <ele>1482.01</ele>
        <time>2019-02-28T15:44:57Z</time>
      </trkpt>
      <trkpt lat="46.66554" lon="12.3536">
        <ele>1482.01</ele>
        <time>2019-02-28T15:45:25Z</time>
      </trkpt>
      <trkpt lat="46.66553" lon="12.3536">
        <ele>1481.05</ele>
        <time>2019-02-28T15:45:42Z</time>
      </trkpt>
      <trkpt lat="46.66554" lon="12.35359">
        <ele>1481.05</ele>
        <time>2019-02-28T15:45:59Z</time>
      </trkpt>
      <trkpt lat="46.66554" lon="12.35357">
        <ele>1481.05</ele>
        <time>2019-02-28T15:46:19Z</time>
      </trkpt>
      <trkpt lat="46.66553" lon="12.35364">
        <ele>1480.57</ele>
        <time>2019-02-28T15:46:35Z</time>
      </trkpt>
      <trkpt lat="46.66559" lon="12.35377">
        <ele>1481.05</ele>
        <time>2019-02-28T15:46:49Z</time>
      </trkpt>
      <trkpt lat="46.66563" lon="12.35373">
        <ele>1481.05</ele>
        <time>2019-02-28T15:47:07Z</time>
      </trkpt>
      <trkpt lat="46.66562" lon="12.3537">
        <ele>1481.05</ele>
        <time>2019-02-28T15:47:27Z</time>
      </trkpt>
      <trkpt lat="46.66562" lon="12.35362">
        <ele>1481.05</ele>
        <time>2019-02-28T15:47:48Z</time>
      </trkpt>
      <trkpt lat="46.66562" lon="12.3536">
        <ele>1480.57</ele>
        <time>2019-02-28T15:48:05Z</time>
      </trkpt>
      <trkpt lat="46.66559" lon="12.35355">
        <ele>1480.09</ele>
        <time>2019-02-28T15:48:30Z</time>
      </trkpt>
      <trkpt lat="46.66562" lon="12.35371">
        <ele>1480.09</ele>
        <time>2019-02-28T15:48:50Z</time>
      </trkpt>
      <trkpt lat="46.6656" lon="12.35362">
        <ele>1480.09</ele>
        <time>2019-02-28T15:49:11Z</time>
      </trkpt>
      <trkpt lat="46.66562" lon="12.35358">
        <ele>1480.09</ele>
        <time>2019-02-28T15:49:31Z</time>
      </trkpt>
      <trkpt lat="46.66562" lon="12.35358">
        <ele>1480.09</ele>
        <time>2019-02-28T15:49:54Z</time>
      </trkpt>
      <trkpt lat="46.66571" lon="12.35371">
        <ele>1480.09</ele>
        <time>2019-02-28T15:50:10Z</time>
      </trkpt>
      <trkpt lat="46.66587" lon="12.35388">
        <ele>1479.61</ele>
        <time>2019-02-28T15:50:26Z</time>
      </trkpt>
      <trkpt lat="46.66604" lon="12.3538">
        <ele>1479.13</ele>
        <time>2019-02-28T15:50:45Z</time>
      </trkpt>
      <trkpt lat="46.66618" lon="12.35381">
        <ele>1478.65</ele>
        <time>2019-02-28T15:51:00Z</time>
      </trkpt>
      <trkpt lat="46.66637" lon="12.35382">
        <ele>1479.13</ele>
        <time>2019-02-28T15:51:18Z</time>
      </trkpt>
      <trkpt lat="46.66649" lon="12.35384">
        <ele>1480.09</ele>
        <time>2019-02-28T15:51:34Z</time>
      </trkpt>
      <trkpt lat="46.66662" lon="12.35383">
        <ele>1480.09</ele>
        <time>2019-02-28T15:51:48Z</time>
      </trkpt>
      <trkpt lat="46.66667" lon="12.3538">
        <ele>1479.61</ele>
        <time>2019-02-28T15:51:52Z</time>
      </trkpt>
      <trkpt lat="46.66668" lon="12.35379">
        <ele>1479.61</ele>
        <time>2019-02-28T15:51:53Z</time>
      </trkpt>
      <trkpt lat="46.66678" lon="12.35376">
        <ele>1478.65</ele>
        <time>2019-02-28T15:52:05Z</time>
      </trkpt>
      <trkpt lat="46.66696" lon="12.35377">
        <ele>1477.68</ele>
        <time>2019-02-28T15:52:24Z</time>
      </trkpt>
      <trkpt lat="46.66693" lon="12.35377">
        <ele>1478.16</ele>
        <time>2019-02-28T15:52:37Z</time>
      </trkpt>
      <trkpt lat="46.66697" lon="12.35377">
        <ele>1477.68</ele>
        <time>2019-02-28T15:52:58Z</time>
      </trkpt>
      <trkpt lat="46.66692" lon="12.35376">
        <ele>1476.72</ele>
        <time>2019-02-28T15:53:14Z</time>
      </trkpt>
      <trkpt lat="46.66694" lon="12.35378">
        <ele>1476.24</ele>
        <time>2019-02-28T15:53:40Z</time>
      </trkpt>
      <trkpt lat="46.66691" lon="12.35379">
        <ele>1475.76</ele>
        <time>2019-02-28T15:54:14Z</time>
      </trkpt>
      <trkpt lat="46.6669" lon="12.35379">
        <ele>1475.76</ele>
        <time>2019-02-28T15:54:42Z</time>
      </trkpt>
      <trkpt lat="46.66689" lon="12.35379">
        <ele>1475.28</ele>
        <time>2019-02-28T15:55:11Z</time>
      </trkpt>
      <trkpt lat="46.66691" lon="12.35382">
        <ele>1475.28</ele>
        <time>2019-02-28T15:55:38Z</time>
      </trkpt>
      <trkpt lat="46.66688" lon="12.35383">
        <ele>1475.28</ele>
        <time>2019-02-28T15:56:07Z</time>
      </trkpt>
      <trkpt lat="46.66688" lon="12.35383">
        <ele>1475.28</ele>
        <time>2019-02-28T15:56:40Z</time>
      </trkpt>
      <trkpt lat="46.66687" lon="12.35384">
        <ele>1475.28</ele>
        <time>2019-02-28T15:57:04Z</time>
      </trkpt>
      <trkpt lat="46.66687" lon="12.35384">
        <ele>1476.72</ele>
        <time>2019-02-28T15:57:35Z</time>
      </trkpt>
      <trkpt lat="46.66684" lon="12.35385">
        <ele>1475.28</ele>
        <time>2019-02-28T15:58:03Z</time>
      </trkpt>
      <trkpt lat="46.66685" lon="12.35383">
        <ele>1474.8</ele>
        <time>2019-02-28T15:58:24Z</time>
      </trkpt>
      <trkpt lat="46.66685" lon="12.35387">
        <ele>1475.28</ele>
        <time>2019-02-28T15:58:56Z</time>
      </trkpt>
      <trkpt lat="46.66681" lon="12.35383">
        <ele>1475.28</ele>
        <time>2019-02-28T15:59:28Z</time>
      </trkpt>
      <trkpt lat="46.66683" lon="12.35387">
        <ele>1475.76</ele>
        <time>2019-02-28T15:59:56Z</time>
      </trkpt>
      <trkpt lat="46.66682" lon="12.35389">
        <ele>1475.76</ele>
        <time>2019-02-28T16:00:08Z</time>
      </trkpt>
      <trkpt lat="46.66683" lon="12.35392">
        <ele>1476.72</ele>
        <time>2019-02-28T16:00:17Z</time>
      </trkpt>
      <trkpt lat="46.66687" lon="12.35387">
        <ele>1476.72</ele>
        <time>2019-02-28T16:00:37Z</time>
      </trkpt>
      <trkpt lat="46.66689" lon="12.35377">
        <ele>1476.72</ele>
        <time>2019-02-28T16:00:59Z</time>
      </trkpt>
      <trkpt lat="46.66694" lon="12.3538">
        <ele>1477.2</ele>
        <time>2019-02-28T16:01:28Z</time>
      </trkpt>
      <trkpt lat="46.66693" lon="12.3538">
        <ele>1476.72</ele>
        <time>2019-02-28T16:02:13Z</time>
      </trkpt>
      <trkpt lat="46.66694" lon="12.35382">
        <ele>1475.76</ele>
        <time>2019-02-28T16:03:11Z</time>
      </trkpt>
      <trkpt lat="46.66693" lon="12.35378">
        <ele>1475.28</ele>
        <time>2019-02-28T16:03:47Z</time>
      </trkpt>
      <trkpt lat="46.66697" lon="12.3538">
        <ele>1474.32</ele>
        <time>2019-02-28T16:04:25Z</time>
      </trkpt>
      <trkpt lat="46.66698" lon="12.35377">
        <ele>1474.32</ele>
        <time>2019-02-28T16:05:02Z</time>
      </trkpt>
      <trkpt lat="46.66698" lon="12.35377">
        <ele>1473.36</ele>
        <time>2019-02-28T16:05:39Z</time>
      </trkpt>
      <trkpt lat="46.66697" lon="12.35376">
        <ele>1472.4</ele>
        <time>2019-02-28T16:06:20Z</time>
      </trkpt>
      <trkpt lat="46.66698" lon="12.3538">
        <ele>1471.92</ele>
        <time>2019-02-28T16:07:00Z</time>
      </trkpt>
      <trkpt lat="46.66694" lon="12.35377">
        <ele>1471.44</ele>
        <time>2019-02-28T16:07:45Z</time>
      </trkpt>
      <trkpt lat="46.66693" lon="12.35377">
        <ele>1470.47</ele>
        <time>2019-02-28T16:08:29Z</time>
      </trkpt>
      <trkpt lat="46.66692" lon="12.35378">
        <ele>1469.99</ele>
        <time>2019-02-28T16:09:04Z</time>
      </trkpt>
      <trkpt lat="46.66692" lon="12.3538">
        <ele>1469.51</ele>
        <time>2019-02-28T16:09:44Z</time>
      </trkpt>
      <trkpt lat="46.66695" lon="12.35381">
        <ele>1469.03</ele>
        <time>2019-02-28T16:10:20Z</time>
      </trkpt>
      <trkpt lat="46.66704" lon="12.35373">
        <ele>1468.55</ele>
        <time>2019-02-28T16:11:05Z</time>
      </trkpt>
      <trkpt lat="46.66698" lon="12.35378">
        <ele>1468.55</ele>
        <time>2019-02-28T16:11:46Z</time>
      </trkpt>
      <trkpt lat="46.66699" lon="12.35376">
        <ele>1468.07</ele>
        <time>2019-02-28T16:12:32Z</time>
      </trkpt>
      <trkpt lat="46.66701" lon="12.35381">
        <ele>1467.59</ele>
        <time>2019-02-28T16:13:21Z</time>
      </trkpt>
      <trkpt lat="46.66698" lon="12.35382">
        <ele>1467.11</ele>
        <time>2019-02-28T16:13:47Z</time>
      </trkpt>
      <trkpt lat="46.66695" lon="12.35382">
        <ele>1467.11</ele>
        <time>2019-02-28T16:14:21Z</time>
      </trkpt>
      <trkpt lat="46.66697" lon="12.35385">
        <ele>1466.63</ele>
        <time>2019-02-28T16:15:03Z</time>
      </trkpt>
      <trkpt lat="46.66697" lon="12.35381">
        <ele>1467.59</ele>
        <time>2019-02-28T16:15:43Z</time>
      </trkpt>
      <trkpt lat="46.66698" lon="12.35376">
        <ele>1466.15</ele>
        <time>2019-02-28T16:16:28Z</time>
      </trkpt>
      <trkpt lat="46.66693" lon="12.35382">
        <ele>1465.67</ele>
        <time>2019-02-28T16:17:06Z</time>
      </trkpt>
    </trkseg>
  </trk>
</gpx>